[[{"header":{"parameterUnit":"m.s-1","parameterCategory":1,"la1":31.0,"la2":29.5877,"lo1":-88.7671,"lo2":-86.6584,"dy":0.0162,"dx":0.0185,"nx":115,"ny":88,"refTime":"2024-03-20T00:00:00:Z","depth":0,"parameterNumber":2,"parameterNumberName":"U-component_of_WINDS"},"data":[0.0,0.0,0.0,0.0,0.0,0.0,0.0,0.0,0.0,0.0,0.0,0.0,0.0,0.0,0.0,0.0,0.0,0.0,0.0,0.0,0.0,0.0,0.0,0.0,0.0,0.0,0.0,0.0,0.0,0.0,0.0,0.0,0.0,0.0,0.0,0.0,0.0,0.0,0.0,0.0,0.0,0.0,0.0,0.0,0.0,0.0,0.0,0.0,0.0,0.0,0.0,0.0,0.0,0.0,0.0,0.0,0.0,0.0,0.0,0.0,0.0,0.0,0.0,0.0,0.0,0.0,0.0,0.0,0.0,0.0,0.0,0.0,0.0,0.0,0.0,0.0,0.0,0.0,0.0,0.0,0.0,0.0,0.0,0.0,0.0,0.0,0.0,0.0,0.0,0.0,0.0,0.0,0.0,0.0,0.0,0.0,0.0,0.0,0.0,0.0,0.0,0.0,0.0,0.0,0.0,0.0,0.0,0.0,0.0,0.0,0.0,0.0,0.0,0.0,0.0,0.0,0.0,0.0,0.0,0.0,0.0,0.0,0.0,0.0,0.0,0.0,0.0,0.0,0.0,0.0,0.0,0.0,0.0,0.0,0.0,0.0,0.0,0.0,0.0,0.0,0.0,0.0,0.0,0.0,0.0,0.0,0.0,0.0,0.0,0.0,0.0,0.0,0.0,0.0,0.0,0.0,0.0,0.0,0.0,0.0,0.0,0.0,0.0,0.0,0.0,0.0,0.0,0.0,0.0,0.0,0.0,0.0,0.0,0.0,0.0,0.0,0.0,0.0,0.0,0.0,0.0,0.0,0.0,0.0,0.0,0.0,0.0,0.0,0.0,0.0,0.0,0.0,0.0,0.0,0.0,0.0,0.0,0.0,0.0,0.0,0.0,0.0,0.0,0.0,0.0,0.0,0.0,0.0,0.0,0.0,0.0,0.0,0.0,0.0,0.0,0.0,0.0,0.0,0.0,0.0,0.0,0.0,0.0,0.0,0.0,0.0,0.0,0.0,0.0,0.0,0.0,0.0,0.0,0.0,0.0,0.0,0.0,0.0,0.0,0.0,0.0,0.0,0.0,0.0,0.0,0.0,0.0,0.0,0.0,0.0,0.0,0.0,0.0,0.0,0.0,0.0,0.0,0.0,0.0,0.0,0.0,0.0,0.0,0.0,0.0,0.0,0.0,0.0,0.0,0.0,0.0,0.0,0.0,0.0,0.0,0.0,0.0,0.0,0.0,0.0,0.0,0.0,0.0,0.0,0.0,0.0,0.0,0.0,0.0,0.0,0.0,0.0,0.0,0.0,0.0,0.0,0.0,0.0,0.0,0.0,0.0,0.0,0.0,0.0,0.0,0.0,0.0,0.0,0.0,0.0,0.0,0.0,0.0,0.0,0.0,0.0,0.0,0.0,0.0,0.0,0.0,0.0,0.0,0.0,0.0,0.0,0.0,0.0,0.0,0.0,0.0,0.0,0.0,0.0,0.0,0.0,0.0,0.0,0.0,0.0,0.0,0.0,0.0,0.0,0.0,0.0,0.0,0.0,0.0,0.0,0.0,0.0,0.0,0.0,0.0,0.0,0.0,0.0,0.0,0.0,0.0,0.0,0.0,0.0,0.0,0.0,0.0,0.0,0.0,0.0,0.0,0.0,0.0,0.0,0.0,0.0,0.0,0.0,0.0,0.0,0.0,0.0,0.0,0.0,0.0,0.0,0.0,0.0,0.0,0.0,0.0,0.0,0.0,0.0,0.0,0.0,0.0,0.0,0.0,0.0,0.0,0.0,0.0,0.0,0.0,0.0,0.0,0.0,0.0,0.0,0.0,0.0,0.0,0.0,0.0,0.0,0.0,0.0,0.0,0.0,0.0,0.0,0.0,0.0,0.0,0.0,0.0,0.0,0.0,0.0,0.0,0.0,0.0,0.0,0.0,0.0,0.0,0.0,0.0,0.0,0.0,0.0,0.0,0.0,0.0,0.0,0.0,0.0,0.0,0.0,0.0,0.0,0.0,0.0,0.0,0.0,0.0,0.0,0.0,0.0,0.0,0.0,0.0,0.0,0.0,0.0,0.0,0.0,0.0,0.0,0.0,0.0,0.0,0.0,0.0,0.0,0.0,0.0,0.0,0.0,0.0,0.0,0.0,0.0,0.0,0.0,0.0,0.0,0.0,0.0,0.0,0.0,0.0,0.0,0.0,0.0,0.0,0.0,0.0,0.0,0.0,0.0,0.0,0.0,0.0,0.0,0.0,0.0,0.0,0.0,0.0,0.0,0.0,0.0,0.0,0.0,0.0,0.0,0.0,0.0,0.0,0.0,0.0,0.0,0.0,0.0,0.0,0.0,0.0,0.0,0.0,0.0,0.0,0.0,0.0,0.0,0.0,0.0,0.0,0.0,0.0,0.0,0.0,0.0,0.0,0.0,0.0,0.0,0.0,0.0,0.0,0.0,0.0,0.0,0.0,0.0,0.0,0.0,0.0,0.0,0.0,0.0,0.0,0.0,0.0,0.0,0.0,0.0,0.0,0.0,0.0,0.0,0.0,0.0,0.0,0.0,0.0,0.0,0.0,0.0,0.0,0.0,0.0,0.0,0.0,0.0,0.0,0.0,0.0,0.0,0.0,0.0,0.0,0.0,0.0,0.0,0.0,0.0,0.0,0.0,0.0,0.0,0.0,0.0,0.0,0.0,0.0,0.0,0.0,0.0,0.0,0.0,0.0,0.0,0.0,0.0,0.0,0.0,0.0,0.0,0.0,0.0,0.0,0.0,0.0,0.0,0.0,0.0,0.0,0.0,0.0,0.0,0.0,0.0,0.0,0.0,0.0,0.0,0.0,0.0,0.0,0.0,0.0,0.0,0.0,0.0,0.0,0.0,0.0,0.0,0.0,0.0,0.0,0.0,0.0,0.0,0.0,0.0,0.0,0.0,0.0,0.0,0.0,0.0,0.0,0.0,0.0,0.0,0.0,0.0,0.0,0.0,0.0,0.0,0.0,0.0,0.0,0.0,0.0,0.0,0.0,0.0,0.0,0.0,0.0,0.0,0.0,0.0,0.0,0.0,0.0,0.0,0.0,0.0,0.0,0.0,0.0,0.0,0.0,0.0,0.0,0.0,0.0,0.0,0.0,0.0,0.0,0.0,0.0,0.0,0.0,0.0,0.0,0.0,0.0,0.0,0.0,0.0,0.0,0.0,0.0,0.0,0.0,0.0,0.0,0.0,0.0,0.0,0.0,0.0,0.0,0.0,0.0,0.0,0.0,0.0,0.0,0.0,0.0,0.0,0.0,0.0,0.0,0.0,0.0,0.0,0.0,0.0,0.0,0.0,0.0,0.0,0.0,0.0,0.0,0.0,0.0,0.0,0.0,0.0,0.0,0.0,0.0,0.0,0.0,0.0,0.0,0.0,0.0,0.0,0.0,0.0,0.0,0.0,0.0,0.0,0.0,0.0,0.0,0.0,0.0,0.0,0.0,0.0,0.0,0.0,0.0,0.0,0.0,0.0,0.0,0.0,0.0,0.0,0.0,0.0,0.0,0.0,0.0,0.0,0.0,0.0,0.0,0.0,0.0,0.0,0.0,0.0,0.0,0.0,0.0,0.0,0.0,0.0,0.0,0.0,0.0,0.0,0.0,0.0,0.0,0.0,0.0,0.0,0.0,0.0,0.0,0.0,0.0,0.0,0.0,0.0,0.0,0.0,0.0,0.0,0.0,0.0,0.0,0.0,0.0,0.0,0.0,0.0,0.0,0.0,0.0,0.0,0.0,0.0,0.0,0.0,0.0,0.0,0.0,0.0,0.0,0.0,0.0,0.0,0.0,0.0,0.0,0.0,0.0,0.0,0.0,0.0,0.0,0.0,0.0,0.0,0.0,0.0,0.0,0.0,0.0,0.0,0.0,0.0,0.0,0.0,0.0,0.0,0.0,0.0,0.0,0.0,0.0,0.0,0.0,0.0,0.0,0.0,0.0,0.0,0.0,0.0,0.0,0.0,0.0,0.0,0.0,0.0,0.0,0.0,0.0,0.0,0.0,0.0,0.0,0.0,0.0,0.0,0.0,0.0,0.0,0.0,0.0,0.0,0.0,0.0,0.0,0.0,0.0,0.0,0.0,0.0,0.0,0.0,0.0,0.0,0.0,0.0,0.0,0.0,0.0,0.0,0.0,0.0,0.0,0.0,0.0,0.0,0.0,0.0,0.0,0.0,0.0,0.0,0.0,0.0,0.0,0.0,0.0,0.0,0.0,0.0,0.0,0.0,0.0,0.0,0.0,0.0,0.0,0.0,-2.0997,0.0,0.0,0.0,0.0,0.0,0.0,0.0,0.0,0.0,0.0,0.0,0.0,0.0,0.0,0.0,0.0,0.0,0.0,0.0,0.0,0.0,0.0,0.0,0.0,0.0,0.0,0.0,0.0,0.0,0.0,0.0,0.0,0.0,0.0,0.0,0.0,0.0,0.0,0.0,0.0,0.0,0.0,0.0,0.0,0.0,0.0,0.0,0.0,0.0,0.0,0.0,0.0,0.0,0.0,0.0,0.0,0.0,0.0,0.0,0.0,0.0,0.0,0.0,0.0,0.0,0.0,0.0,0.0,0.0,0.0,0.0,0.0,0.0,0.0,0.0,0.0,0.0,0.0,0.0,0.0,0.0,0.0,0.0,0.0,0.0,0.0,0.0,0.0,0.0,0.0,0.0,0.0,0.0,0.0,0.0,0.0,0.0,0.0,0.0,0.0,0.0,0.0,0.0,0.0,0.0,0.0,0.0,0.0,0.0,0.0,-2.2264,-2.1928,-2.1687,-2.1463,-2.1195,0.0,0.0,0.0,0.0,0.0,0.0,0.0,0.0,0.0,0.0,0.0,0.0,0.0,0.0,0.0,0.0,0.0,0.0,0.0,0.0,0.0,0.0,0.0,0.0,0.0,0.0,0.0,0.0,0.0,0.0,0.0,0.0,0.0,0.0,0.0,0.0,0.0,0.0,0.0,0.0,0.0,0.0,0.0,0.0,0.0,0.0,0.0,0.0,0.0,0.0,0.0,0.0,0.0,0.0,0.0,0.0,0.0,0.0,0.0,0.0,0.0,0.0,0.0,0.0,0.0,0.0,0.0,0.0,0.0,0.0,0.0,0.0,0.0,0.0,0.0,0.0,0.0,0.0,0.0,0.0,0.0,0.0,0.0,0.0,0.0,0.0,0.0,0.0,0.0,0.0,0.0,0.0,0.0,0.0,0.0,0.0,0.0,0.0,0.0,0.0,0.0,0.0,0.0,0.0,0.0,0.0,0.0,0.0,0.0,0.0,0.0,0.0,-2.182,-2.1553,-2.1302,0.0,0.0,0.0,0.0,0.0,0.0,0.0,0.0,0.0,0.0,0.0,0.0,0.0,0.0,0.0,0.0,0.0,0.0,0.0,0.0,0.0,0.0,0.0,0.0,0.0,0.0,0.0,0.0,0.0,0.0,0.0,0.0,0.0,0.0,0.0,0.0,0.0,0.0,0.0,0.0,0.0,0.0,0.0,0.0,0.0,0.0,0.0,0.0,0.0,0.0,0.0,0.0,0.0,0.0,0.0,0.0,0.0,0.0,0.0,0.0,0.0,0.0,0.0,0.0,0.0,0.0,0.0,0.0,0.0,0.0,0.0,0.0,0.0,0.0,0.0,0.0,0.0,0.0,0.0,0.0,0.0,0.0,0.0,0.0,0.0,0.0,0.0,0.0,0.0,0.0,0.0,0.0,0.0,0.0,0.0,0.0,0.0,0.0,0.0,0.0,0.0,0.0,0.0,0.0,0.0,0.0,0.0,0.0,0.0,0.0,-2.2176,-2.1794,-2.1731,0.0,-2.1087,0.0,0.0,0.0,0.0,0.0,0.0,0.0,0.0,0.0,0.0,0.0,0.0,0.0,0.0,0.0,0.0,0.0,0.0,0.0,0.0,0.0,0.0,0.0,0.0,0.0,0.0,0.0,0.0,0.0,0.0,0.0,0.0,0.0,0.0,0.0,0.0,0.0,0.0,0.0,0.0,0.0,0.0,0.0,0.0,0.0,0.0,0.0,0.0,0.0,0.0,0.0,0.0,0.0,0.0,0.0,0.0,0.0,0.0,0.0,0.0,0.0,0.0,0.0,0.0,0.0,0.0,0.0,0.0,0.0,0.0,0.0,0.0,0.0,0.0,0.0,0.0,0.0,0.0,0.0,0.0,0.0,0.0,0.0,0.0,0.0,0.0,0.0,0.0,0.0,0.0,0.0,0.0,0.0,0.0,0.0,0.0,0.0,0.0,0.0,0.0,0.0,0.0,0.0,0.0,0.0,0.0,0.0,0.0,0.0,0.0,-2.2264,-2.1972,-2.1776,-2.1508,0.0,0.0,0.0,0.0,0.0,0.0,0.0,0.0,0.0,0.0,0.0,0.0,0.0,0.0,0.0,0.0,0.0,0.0,0.0,0.0,0.0,0.0,0.0,0.0,0.0,0.0,0.0,0.0,0.0,0.0,0.0,0.0,0.0,0.0,0.0,0.0,0.0,0.0,0.0,0.0,0.0,0.0,0.0,0.0,0.0,0.0,0.0,0.0,0.0,0.0,0.0,0.0,0.0,0.0,0.0,0.0,0.0,0.0,0.0,0.0,0.0,0.0,0.0,0.0,0.0,0.0,0.0,0.0,0.0,0.0,0.0,0.0,0.0,0.0,0.0,0.0,0.0,0.0,0.0,0.0,0.0,0.0,0.0,0.0,0.0,0.0,0.0,0.0,0.0,0.0,0.0,0.0,0.0,0.0,0.0,0.0,0.0,0.0,0.0,0.0,0.0,0.0,0.0,0.0,0.0,0.0,0.0,0.0,0.0,0.0,-2.2656,-2.249,-2.2333,-2.1996,-2.1671,-2.1157,0.0,0.0,0.0,0.0,0.0,0.0,0.0,0.0,0.0,0.0,0.0,0.0,0.0,0.0,0.0,0.0,0.0,0.0,0.0,0.0,0.0,0.0,0.0,0.0,0.0,0.0,0.0,0.0,0.0,0.0,0.0,0.0,0.0,0.0,0.0,0.0,0.0,0.0,0.0,0.0,0.0,0.0,0.0,0.0,0.0,0.0,0.0,0.0,0.0,0.0,0.0,0.0,0.0,0.0,0.0,0.0,0.0,0.0,0.0,0.0,0.0,0.0,0.0,0.0,0.0,0.0,0.0,0.0,0.0,0.0,0.0,0.0,0.0,0.0,0.0,0.0,0.0,0.0,0.0,0.0,0.0,0.0,0.0,0.0,0.0,0.0,0.0,0.0,0.0,0.0,0.0,0.0,0.0,0.0,0.0,0.0,0.0,0.0,0.0,0.0,0.0,0.0,0.0,0.0,0.0,0.0,0.0,0.0,-2.2991,-2.2983,-2.2943,-2.2868,-2.2455,-2.2025,0.0,0.0,0.0,0.0,0.0,0.0,0.0,0.0,0.0,0.0,0.0,0.0,0.0,0.0,0.0,0.0,0.0,0.0,0.0,0.0,0.0,0.0,0.0,0.0,0.0,0.0,0.0,0.0,0.0,0.0,0.0,0.0,0.0,0.0,0.0,0.0,0.0,0.0,0.0,0.0,0.0,0.0,0.0,0.0,0.0,0.0,0.0,0.0,0.0,0.0,0.0,0.0,0.0,0.0,0.0,0.0,0.0,0.0,0.0,0.0,0.0,0.0,0.0,0.0,0.0,0.0,0.0,0.0,0.0,0.0,0.0,0.0,0.0,0.0,0.0,0.0,0.0,0.0,0.0,0.0,0.0,0.0,0.0,0.0,0.0,0.0,0.0,0.0,0.0,0.0,0.0,0.0,0.0,0.0,0.0,0.0,0.0,0.0,0.0,0.0,0.0,0.0,0.0,0.0,0.0,0.0,0.0,0.0,0.0,-2.3002,-2.2945,-2.2935,-2.2895,-2.2767,-2.2379,0.0,0.0,0.0,0.0,0.0,0.0,0.0,0.0,0.0,0.0,0.0,0.0,0.0,0.0,0.0,0.0,0.0,0.0,0.0,0.0,0.0,0.0,0.0,0.0,0.0,0.0,0.0,0.0,0.0,0.0,0.0,0.0,0.0,0.0,0.0,0.0,0.0,0.0,0.0,0.0,0.0,0.0,0.0,0.0,0.0,0.0,0.0,0.0,0.0,0.0,0.0,0.0,0.0,0.0,0.0,0.0,0.0,0.0,0.0,0.0,0.0,0.0,0.0,0.0,0.0,0.0,0.0,0.0,0.0,0.0,0.0,0.0,0.0,0.0,0.0,0.0,0.0,0.0,0.0,0.0,0.0,0.0,0.0,0.0,0.0,0.0,0.0,0.0,0.0,0.0,0.0,0.0,0.0,0.0,0.0,0.0,0.0,0.0,0.0,0.0,0.0,0.0,0.0,0.0,0.0,0.0,0.0,0.0,0.0,-2.3418,0.0,-2.3297,-2.3327,-2.3169,-2.2731,0.0,0.0,0.0,0.0,0.0,0.0,0.0,0.0,0.0,0.0,0.0,0.0,0.0,0.0,0.0,0.0,0.0,0.0,0.0,0.0,0.0,0.0,0.0,0.0,0.0,0.0,0.0,0.0,0.0,0.0,0.0,0.0,0.0,0.0,0.0,0.0,0.0,0.0,0.0,0.0,0.0,0.0,0.0,0.0,0.0,0.0,0.0,0.0,0.0,0.0,0.0,0.0,0.0,0.0,0.0,0.0,0.0,0.0,0.0,0.0,0.0,0.0,0.0,0.0,0.0,0.0,0.0,0.0,0.0,0.0,0.0,0.0,0.0,0.0,0.0,0.0,0.0,0.0,0.0,0.0,0.0,0.0,0.0,0.0,0.0,0.0,0.0,0.0,0.0,0.0,0.0,0.0,0.0,0.0,0.0,0.0,0.0,0.0,0.0,0.0,0.0,0.0,0.0,0.0,0.0,0.0,0.0,0.0,-2.3982,-2.4316,-2.4263,-2.422,-2.4202,-2.3785,-2.3323,0.0,0.0,0.0,0.0,0.0,0.0,0.0,0.0,0.0,0.0,0.0,0.0,0.0,0.0,0.0,0.0,0.0,0.0,0.0,0.0,0.0,0.0,0.0,0.0,0.0,0.0,0.0,0.0,0.0,0.0,0.0,0.0,0.0,0.0,0.0,0.0,0.0,0.0,0.0,0.0,0.0,0.0,0.0,0.0,0.0,0.0,0.0,0.0,0.0,0.0,0.0,0.0,0.0,0.0,0.0,0.0,0.0,0.0,0.0,0.0,0.0,0.0,0.0,0.0,0.0,0.0,0.0,0.0,0.0,0.0,0.0,0.0,0.0,0.0,0.0,0.0,0.0,0.0,0.0,0.0,0.0,0.0,0.0,0.0,0.0,0.0,0.0,0.0,0.0,0.0,0.0,0.0,0.0,0.0,0.0,0.0,0.0,0.0,0.0,0.0,0.0,0.0,0.0,0.0,0.0,0.0,0.0,0.0,0.0,-2.5119,-2.508,-2.5047,-2.5029,-2.4611,-2.4013,0.0,0.0,0.0,0.0,0.0,0.0,0.0,0.0,0.0,0.0,0.0,0.0,0.0,0.0,0.0,0.0,0.0,0.0,0.0,0.0,0.0,0.0,0.0,0.0,0.0,0.0,0.0,0.0,0.0,0.0,0.0,0.0,0.0,0.0,0.0,0.0,0.0,0.0,0.0,0.0,0.0,0.0,0.0,0.0,0.0,0.0,0.0,0.0,0.0,0.0,0.0,0.0,0.0,0.0,0.0,0.0,0.0,0.0,0.0,0.0,0.0,0.0,0.0,0.0,0.0,0.0,0.0,0.0,0.0,0.0,0.0,0.0,0.0,0.0,0.0,0.0,0.0,0.0,0.0,0.0,0.0,0.0,0.0,0.0,0.0,0.0,0.0,0.0,0.0,0.0,0.0,0.0,0.0,0.0,0.0,0.0,0.0,0.0,0.0,0.0,0.0,0.0,0.0,0.0,0.0,0.0,0.0,0.0,0.0,-2.6404,-2.5915,-2.5635,-2.5653,-2.5344,-2.4754,-2.3687,0.0,0.0,0.0,0.0,0.0,0.0,0.0,0.0,0.0,0.0,0.0,0.0,0.0,0.0,0.0,0.0,0.0,0.0,0.0,0.0,0.0,0.0,0.0,0.0,0.0,0.0,0.0,0.0,0.0,0.0,0.0,0.0,0.0,0.0,0.0,0.0,0.0,0.0,0.0,0.0,0.0,0.0,0.0,0.0,0.0,0.0,0.0,0.0,0.0,0.0,0.0,0.0,0.0,0.0,0.0,0.0,0.0,0.0,0.0,0.0,0.0,0.0,0.0,0.0,0.0,0.0,0.0,0.0,0.0,0.0,0.0,0.0,0.0,0.0,0.0,0.0,0.0,0.0,0.0,0.0,0.0,0.0,0.0,0.0,0.0,0.0,0.0,0.0,0.0,0.0,0.0,0.0,0.0,0.0,0.0,0.0,0.0,0.0,0.0,0.0,0.0,0.0,0.0,0.0,0.0,0.0,0.0,0.0,-2.8123,-2.6916,-2.6223,-2.6168,-2.6113,-2.5463,0.0,0.0,0.0,0.0,0.0,0.0,0.0,0.0,0.0,0.0,0.0,0.0,0.0,0.0,0.0,0.0,0.0,0.0,0.0,0.0,0.0,0.0,0.0,0.0,0.0,0.0,0.0,0.0,0.0,0.0,0.0,0.0,0.0,0.0,0.0,0.0,0.0,0.0,0.0,0.0,0.0,0.0,0.0,0.0,0.0,0.0,0.0,0.0,0.0,0.0,0.0,0.0,0.0,0.0,0.0,0.0,0.0,0.0,0.0,0.0,0.0,0.0,0.0,0.0,0.0,0.0,0.0,0.0,0.0,0.0,0.0,0.0,0.0,0.0,0.0,0.0,0.0,0.0,0.0,0.0,0.0,0.0,0.0,0.0,0.0,0.0,0.0,0.0,0.0,0.0,0.0,0.0,0.0,0.0,0.0,0.0,0.0,0.0,0.0,0.0,0.0,0.0,0.0,0.0,0.0,0.0,0.0,0.0,0.0,-2.9719,-2.9291,-2.8661,-2.7765,-2.7178,-2.6518,0.0,0.0,0.0,0.0,0.0,0.0,0.0,0.0,0.0,0.0,0.0,0.0,0.0,0.0,0.0,0.0,0.0,0.0,0.0,0.0,0.0,0.0,0.0,0.0,0.0,0.0,0.0,0.0,0.0,0.0,0.0,0.0,0.0,0.0,0.0,0.0,0.0,0.0,0.0,0.0,0.0,0.0,0.0,0.0,0.0,0.0,0.0,0.0,0.0,0.0,0.0,0.0,0.0,0.0,0.0,0.0,0.0,0.0,0.0,0.0,0.0,0.0,0.0,0.0,0.0,0.0,0.0,0.0,0.0,0.0,0.0,0.0,0.0,0.0,0.0,0.0,0.0,0.0,0.0,0.0,0.0,0.0,0.0,0.0,0.0,0.0,0.0,0.0,0.0,0.0,0.0,0.0,0.0,0.0,0.0,0.0,0.0,0.0,0.0,0.0,0.0,0.0,0.0,0.0,0.0,0.0,0.0,0.0,-2.9756,-3.0892,-3.1039,-3.0685,-2.9897,-2.8652,-2.7468,0.0,0.0,0.0,0.0,0.0,0.0,0.0,0.0,0.0,0.0,0.0,0.0,0.0,0.0,0.0,0.0,0.0,0.0,0.0,0.0,0.0,0.0,0.0,0.0,0.0,0.0,0.0,0.0,0.0,0.0,0.0,0.0,0.0,0.0,0.0,0.0,0.0,0.0,0.0,0.0,0.0,0.0,0.0,0.0,0.0,0.0,0.0,0.0,0.0,0.0,0.0,0.0,0.0,0.0,0.0,0.0,0.0,0.0,0.0,0.0,0.0,0.0,0.0,0.0,0.0,0.0,0.0,0.0,0.0,0.0,0.0,0.0,0.0,0.0,0.0,0.0,0.0,0.0,0.0,0.0,0.0,0.0,0.0,0.0,0.0,0.0,0.0,0.0,0.0,0.0,0.0,0.0,0.0,0.0,0.0,0.0,0.0,0.0,0.0,0.0,0.0,0.0,0.0,0.0,0.0,0.0,0.0,0.0,-3.0801,-3.1777,-3.227,-3.235,-3.1974,-3.0156,-2.8418,0.0,0.0,0.0,0.0,0.0,0.0,0.0,0.0,0.0,0.0,0.0,0.0,0.0,0.0,0.0,0.0,0.0,0.0,0.0,0.0,0.0,0.0,0.0,0.0,0.0,0.0,0.0,0.0,0.0,0.0,0.0,0.0,0.0,0.0,0.0,0.0,0.0,0.0,0.0,0.0,0.0,0.0,0.0,0.0,0.0,0.0,0.0,0.0,0.0,0.0,0.0,0.0,0.0,0.0,0.0,0.0,0.0,0.0,0.0,0.0,0.0,0.0,0.0,0.0,0.0,0.0,0.0,0.0,0.0,0.0,0.0,0.0,0.0,0.0,0.0,0.0,0.0,0.0,0.0,0.0,0.0,0.0,0.0,0.0,0.0,0.0,0.0,0.0,0.0,0.0,0.0,0.0,0.0,0.0,0.0,0.0,0.0,0.0,0.0,0.0,0.0,0.0,0.0,0.0,0.0,0.0,0.0,0.0,-3.1795,-3.3,-3.3225,-3.3173,-3.283,-3.0983,-2.936,0.0,0.0,0.0,0.0,0.0,0.0,0.0,0.0,0.0,0.0,0.0,0.0,0.0,0.0,0.0,0.0,0.0,0.0,0.0,0.0,0.0,0.0,0.0,0.0,0.0,0.0,0.0,0.0,0.0,0.0,0.0,0.0,0.0,0.0,0.0,0.0,0.0,0.0,0.0,0.0,0.0,0.0,0.0,0.0,0.0,0.0,0.0,0.0,-1.829,0.0,0.0,0.0,0.0,0.0,0.0,0.0,0.0,0.0,0.0,0.0,0.0,0.0,0.0,0.0,0.0,0.0,0.0,0.0,0.0,0.0,0.0,0.0,0.0,0.0,0.0,0.0,0.0,0.0,0.0,0.0,0.0,0.0,0.0,0.0,0.0,0.0,0.0,0.0,0.0,0.0,0.0,0.0,0.0,0.0,0.0,0.0,0.0,0.0,0.0,0.0,0.0,0.0,0.0,0.0,0.0,0.0,0.0,0.0,-3.2441,-3.3691,-3.403,-3.4,-3.3574,-3.1926,-3.0279,0.0,0.0,0.0,0.0,0.0,0.0,0.0,0.0,0.0,0.0,0.0,0.0,0.0,0.0,0.0,0.0,0.0,0.0,0.0,0.0,0.0,0.0,0.0,0.0,0.0,0.0,0.0,0.0,0.0,0.0,0.0,0.0,0.0,0.0,0.0,0.0,0.0,0.0,0.0,0.0,0.0,0.0,0.0,0.0,0.0,0.0,0.0,0.0,0.0,0.0,0.0,0.0,0.0,0.0,0.0,0.0,0.0,0.0,0.0,0.0,0.0,0.0,0.0,0.0,0.0,0.0,0.0,0.0,0.0,0.0,0.0,0.0,0.0,0.0,0.0,0.0,0.0,0.0,0.0,0.0,0.0,0.0,0.0,0.0,0.0,0.0,0.0,0.0,0.0,0.0,0.0,0.0,0.0,0.0,0.0,0.0,0.0,0.0,0.0,0.0,0.0,0.0,0.0,0.0,0.0,0.0,0.0,-3.1601,-3.293,-3.4238,-3.4669,-3.4729,-3.4277,-3.2876,-3.1127,-2.9149,0.0,0.0,0.0,0.0,0.0,0.0,0.0,0.0,0.0,0.0,0.0,0.0,0.0,0.0,0.0,0.0,0.0,0.0,0.0,0.0,0.0,0.0,0.0,0.0,0.0,0.0,0.0,0.0,0.0,0.0,0.0,0.0,0.0,0.0,0.0,0.0,0.0,0.0,-1.817,-1.8464,0.0,0.0,0.0,0.0,0.0,0.0,0.0,0.0,-1.8718,0.0,0.0,0.0,0.0,0.0,0.0,0.0,0.0,0.0,0.0,0.0,0.0,0.0,0.0,0.0,0.0,0.0,0.0,0.0,0.0,0.0,0.0,0.0,0.0,0.0,0.0,0.0,0.0,0.0,0.0,0.0,0.0,0.0,0.0,0.0,0.0,0.0,0.0,0.0,0.0,0.0,0.0,0.0,0.0,0.0,0.0,0.0,0.0,0.0,0.0,0.0,0.0,0.0,0.0,0.0,0.0,-3.0762,-3.2051,-3.3496,-3.5117,-3.5246,-3.5151,-3.4748,-3.3501,-3.177,-2.9524,0.0,0.0,0.0,0.0,0.0,0.0,0.0,0.0,0.0,0.0,0.0,0.0,0.0,0.0,0.0,0.0,0.0,0.0,0.0,0.0,0.0,0.0,0.0,0.0,0.0,0.0,0.0,0.0,0.0,0.0,0.0,0.0,0.0,0.0,0.0,0.0,0.0,0.0,0.0,-1.9185,-1.9399,0.0,0.0,0.0,0.0,0.0,0.0,0.0,0.0,-1.9586,0.0,0.0,0.0,0.0,0.0,0.0,0.0,0.0,0.0,0.0,0.0,0.0,0.0,0.0,0.0,0.0,0.0,0.0,0.0,0.0,0.0,0.0,0.0,0.0,0.0,0.0,0.0,0.0,0.0,0.0,0.0,0.0,0.0,0.0,0.0,0.0,0.0,0.0,0.0,0.0,0.0,0.0,0.0,0.0,0.0,0.0,0.0,0.0,0.0,0.0,0.0,0.0,0.0,0.0,0.0,-3.1523,-3.2812,-3.4199,-3.5664,-3.5723,-3.5538,-3.5151,-3.3733,-3.2176,0.0,0.0,0.0,0.0,0.0,0.0,0.0,0.0,0.0,0.0,0.0,0.0,0.0,0.0,0.0,0.0,0.0,0.0,0.0,0.0,0.0,0.0,0.0,0.0,0.0,0.0,0.0,0.0,0.0,0.0,0.0,0.0,0.0,0.0,0.0,0.0,0.0,0.0,0.0,0.0,-1.9506,-1.9746,-2.0174,0.0,0.0,0.0,0.0,0.0,0.0,-2.006,-2.0027,0.0,0.0,0.0,0.0,0.0,0.0,0.0,0.0,0.0,0.0,0.0,0.0,0.0,0.0,0.0,0.0,0.0,0.0,0.0,0.0,0.0,0.0,0.0,0.0,0.0,0.0,0.0,0.0,0.0,0.0,0.0,0.0,0.0,0.0,0.0,0.0,0.0,0.0,0.0,0.0,0.0,0.0,0.0,0.0,0.0,0.0,0.0,0.0,0.0,0.0,0.0,0.0,0.0,0.0,0.0,-3.2148,-3.3516,-3.4844,-3.6074,-3.623,-3.6074,-3.5644,-3.4199,-3.2671,0.0,0.0,0.0,0.0,0.0,0.0,0.0,0.0,0.0,0.0,0.0,0.0,0.0,0.0,0.0,0.0,0.0,0.0,0.0,0.0,0.0,0.0,0.0,0.0,0.0,0.0,0.0,0.0,0.0,0.0,0.0,0.0,0.0,0.0,0.0,0.0,0.0,0.0,0.0,0.0,0.0,-2.0174,-2.0454,-2.0548,0.0,0.0,0.0,0.0,-2.0588,-2.0535,0.0,0.0,0.0,0.0,0.0,0.0,0.0,0.0,0.0,0.0,0.0,0.0,0.0,0.0,0.0,0.0,0.0,0.0,0.0,0.0,0.0,0.0,0.0,0.0,0.0,0.0,0.0,0.0,0.0,0.0,0.0,0.0,0.0,0.0,0.0,0.0,0.0,0.0,0.0,0.0,0.0,0.0,0.0,0.0,0.0,0.0,0.0,0.0,0.0,0.0,0.0,0.0,0.0,0.0,0.0,0.0,-3.2229,-3.3789,-3.5254,-3.6523,-3.6953,-3.6953,-3.6523,-3.5234,-3.3578,0.0,0.0,0.0,0.0,0.0,0.0,0.0,0.0,0.0,0.0,0.0,0.0,0.0,0.0,0.0,0.0,0.0,0.0,0.0,0.0,0.0,0.0,0.0,0.0,0.0,0.0,0.0,0.0,0.0,0.0,0.0,0.0,0.0,0.0,0.0,0.0,0.0,0.0,0.0,0.0,0.0,-2.1069,-2.1363,-2.1617,-2.179,0.0,0.0,-2.1777,-2.179,-2.1577,0.0,0.0,0.0,0.0,0.0,0.0,0.0,0.0,0.0,0.0,0.0,0.0,0.0,0.0,0.0,0.0,0.0,0.0,0.0,0.0,0.0,0.0,0.0,0.0,0.0,0.0,0.0,0.0,0.0,0.0,0.0,0.0,0.0,0.0,0.0,0.0,0.0,0.0,0.0,0.0,0.0,0.0,0.0,0.0,0.0,0.0,0.0,0.0,0.0,0.0,0.0,0.0,0.0,0.0,0.0,-3.1348,-3.2871,-3.4355,-3.5723,-3.6973,-3.7207,-3.709,-3.6749,-3.5391,-3.394,0.0,0.0,0.0,0.0,0.0,0.0,0.0,0.0,0.0,0.0,0.0,0.0,0.0,0.0,0.0,0.0,0.0,0.0,0.0,0.0,0.0,0.0,0.0,0.0,0.0,0.0,0.0,0.0,0.0,0.0,0.0,0.0,0.0,0.0,0.0,0.0,0.0,0.0,0.0,0.0,0.0,0.0,-2.1951,-2.2151,0.0,0.0,0.0,-2.2432,-2.2258,0.0,0.0,0.0,0.0,0.0,0.0,0.0,0.0,0.0,0.0,0.0,0.0,0.0,0.0,0.0,0.0,0.0,0.0,0.0,0.0,0.0,0.0,0.0,0.0,0.0,0.0,0.0,0.0,0.0,0.0,0.0,0.0,0.0,0.0,0.0,0.0,0.0,0.0,0.0,0.0,0.0,0.0,0.0,0.0,0.0,0.0,0.0,0.0,0.0,0.0,0.0,0.0,0.0,0.0,0.0,0.0,0.0,-3.3574,-3.5098,-3.6445,-3.7559,-3.7715,-3.7578,-3.7148,-3.5879,0.0,0.0,0.0,0.0,0.0,0.0,0.0,0.0,0.0,0.0,0.0,0.0,0.0,0.0,0.0,0.0,0.0,0.0,0.0,0.0,0.0,0.0,0.0,0.0,0.0,0.0,0.0,-1.8923,0.0,0.0,0.0,0.0,0.0,0.0,0.0,0.0,0.0,0.0,0.0,0.0,0.0,0.0,-2.1697,-2.2432,-2.2659,-2.2832,0.0,0.0,-2.3006,-2.2792,-2.2752,-2.2632,0.0,0.0,0.0,0.0,0.0,0.0,0.0,0.0,0.0,0.0,0.0,0.0,0.0,0.0,0.0,0.0,0.0,0.0,0.0,0.0,0.0,0.0,0.0,0.0,0.0,0.0,0.0,0.0,0.0,0.0,0.0,0.0,0.0,0.0,0.0,0.0,0.0,0.0,0.0,0.0,0.0,0.0,0.0,0.0,0.0,0.0,0.0,0.0,0.0,0.0,0.0,0.0,0.0,0.0,-3.2715,-3.4043,-3.6094,-3.7578,-3.8457,-3.8867,-3.8887,-3.8437,-3.7207,-3.5918,0.0,0.0,0.0,0.0,0.0,0.0,0.0,0.0,0.0,0.0,0.0,0.0,0.0,0.0,0.0,0.0,0.0,0.0,0.0,0.0,0.0,0.0,0.0,0.0,0.0,0.0,0.0,0.0,0.0,0.0,0.0,0.0,0.0,0.0,0.0,0.0,0.0,0.0,0.0,0.0,0.0,-2.2445,-2.2792,-2.3327,-2.3688,0.0,0.0,-2.3701,-2.3688,-2.3674,-2.3474,-2.2899,0.0,0.0,0.0,0.0,0.0,0.0,0.0,0.0,0.0,0.0,0.0,0.0,0.0,0.0,0.0,0.0,0.0,0.0,0.0,0.0,0.0,0.0,0.0,0.0,0.0,0.0,0.0,0.0,0.0,0.0,0.0,0.0,0.0,0.0,0.0,0.0,0.0,0.0,0.0,0.0,0.0,0.0,0.0,0.0,0.0,0.0,0.0,0.0,0.0,0.0,0.0,0.0,0.0,-3.293,-3.4453,-3.6348,-3.7715,-3.8555,-3.9258,-3.9297,-3.8594,-3.7851,-3.6719,0.0,0.0,0.0,0.0,0.0,0.0,0.0,0.0,0.0,0.0,0.0,0.0,0.0,0.0,0.0,0.0,0.0,0.0,0.0,0.0,0.0,0.0,0.0,0.0,0.0,0.0,0.0,0.0,-2.1778,-2.1745,-2.1672,0.0,0.0,0.0,0.0,0.0,0.0,0.0,0.0,0.0,0.0,-2.3268,-2.3834,-2.4155,0.0,0.0,-2.485,-2.4716,-2.4356,-2.4302,-2.4102,-2.3514,-2.326,0.0,0.0,0.0,0.0,0.0,0.0,0.0,0.0,0.0,0.0,0.0,0.0,0.0,0.0,0.0,0.0,0.0,0.0,0.0,0.0,0.0,0.0,0.0,0.0,0.0,0.0,0.0,0.0,0.0,0.0,0.0,0.0,0.0,0.0,0.0,0.0,0.0,0.0,0.0,0.0,0.0,0.0,0.0,0.0,0.0,0.0,0.0,0.0,0.0,0.0,0.0,0.0,-3.3574,-3.5273,-3.6855,-3.8164,-3.9141,-3.9766,-3.9785,-3.918,-3.8594,-3.7617,0.0,0.0,0.0,0.0,0.0,0.0,0.0,0.0,0.0,0.0,0.0,0.0,0.0,0.0,0.0,0.0,0.0,0.0,0.0,0.0,0.0,0.0,0.0,0.0,0.0,0.0,0.0,0.0,-2.3452,-2.3426,-2.3037,0.0,0.0,0.0,0.0,0.0,0.0,0.0,0.0,0.0,0.0,-2.4229,-2.4869,-2.5154,-2.5425,-2.5832,-2.5886,-2.5737,-2.533,-2.5127,-2.4878,-2.4453,0.0,0.0,0.0,0.0,0.0,0.0,0.0,0.0,0.0,0.0,0.0,0.0,0.0,0.0,0.0,0.0,0.0,0.0,0.0,0.0,0.0,0.0,0.0,0.0,0.0,0.0,0.0,-3.6405,0.0,0.0,-3.6383,0.0,0.0,0.0,0.0,0.0,0.0,0.0,0.0,0.0,0.0,0.0,0.0,0.0,0.0,0.0,0.0,0.0,0.0,0.0,0.0,0.0,0.0,-3.4863,-3.6601,-3.7891,-3.918,-4.041,-4.0508,-4.0527,-4.0469,-3.9648,-3.8769,-3.7851,0.0,0.0,0.0,0.0,0.0,0.0,0.0,0.0,0.0,0.0,0.0,0.0,0.0,0.0,0.0,0.0,0.0,0.0,0.0,0.0,0.0,0.0,0.0,0.0,0.0,0.0,-2.5186,-2.5656,-2.5686,0.0,0.0,0.0,0.0,0.0,0.0,0.0,0.0,0.0,0.0,-2.5157,-2.5508,-2.5786,-2.6332,-2.6724,-2.6842,-2.6752,-2.6828,-2.6724,-2.6343,-2.6006,0.0,0.0,0.0,0.0,0.0,0.0,0.0,0.0,0.0,0.0,0.0,0.0,0.0,0.0,0.0,0.0,0.0,0.0,0.0,0.0,0.0,0.0,0.0,0.0,0.0,0.0,0.0,-3.8567,-3.8567,0.0,0.0,0.0,0.0,0.0,0.0,0.0,0.0,0.0,0.0,0.0,-3.7316,-3.6666,0.0,0.0,0.0,0.0,0.0,0.0,0.0,0.0,0.0,0.0,0.0,0.0,-3.5618,-3.707,-3.8652,-3.9941,-4.0918,-4.1504,-4.166,-4.1387,-4.082,-3.9707,-3.7969,0.0,0.0,0.0,0.0,0.0,0.0,0.0,0.0,0.0,0.0,0.0,0.0,0.0,0.0,0.0,0.0,0.0,0.0,0.0,0.0,0.0,0.0,0.0,0.0,0.0,-2.5978,0.0,0.0,0.0,0.0,0.0,0.0,0.0,0.0,0.0,0.0,0.0,-2.6193,-2.6707,-2.6813,-2.7086,-2.7806,-2.8139,-2.8336,0.0,0.0,0.0,0.0,0.0,0.0,0.0,0.0,0.0,0.0,0.0,0.0,0.0,0.0,-2.3915,-2.3033,-2.2886,-2.2886,-2.2873,0.0,0.0,0.0,0.0,0.0,0.0,0.0,0.0,0.0,0.0,0.0,0.0,0.0,0.0,-4.1128,0.0,-4.0927,0.0,0.0,0.0,0.0,0.0,0.0,0.0,0.0,-3.9696,-3.9975,-3.972,-3.9227,-3.9057,0.0,-3.8523,-3.7446,0.0,0.0,0.0,0.0,0.0,0.0,0.0,0.0,-3.6651,-3.8164,-3.9453,-4.0605,-4.1582,-4.2148,-4.2305,-4.2012,-4.1621,-4.0586,-3.8887,-3.7734,-3.6269,0.0,0.0,0.0,0.0,0.0,0.0,0.0,0.0,0.0,0.0,0.0,0.0,0.0,0.0,0.0,0.0,0.0,0.0,0.0,0.0,0.0,0.0,0.0,-2.794,0.0,0.0,0.0,0.0,0.0,0.0,0.0,0.0,0.0,-2.8252,-2.8096,-2.8397,-2.9012,-2.8966,-2.9183,-2.9942,0.0,0.0,0.0,0.0,0.0,0.0,0.0,-2.8925,-2.8645,-2.8141,-2.7661,-2.7499,-2.7095,-2.6653,-2.6453,0.0,0.0,-2.4636,-2.4382,-2.4382,-2.4369,-2.4382,-2.4409,-2.4516,-2.4676,-2.485,0.0,0.0,0.0,0.0,0.0,0.0,0.0,0.0,-4.3915,-4.3915,0.0,-4.3363,0.0,0.0,0.0,0.0,0.0,-4.215,0.0,0.0,-4.2608,-4.2786,-4.2188,-4.2293,-4.2384,-4.2343,-4.1493,-4.1016,-4.0737,-3.7839,0.0,0.0,0.0,0.0,0.0,0.0,-3.811,-3.9899,-4.0351,-4.1191,-4.2402,-4.2519,-4.2519,-4.25,-4.209,-4.1465,-4.0605,-3.9726,-3.8281,-3.6211,-3.4863,0.0,0.0,0.0,0.0,0.0,0.0,0.0,0.0,0.0,0.0,0.0,0.0,0.0,0.0,0.0,0.0,0.0,0.0,0.0,0.0,-3.0189,0.0,0.0,0.0,0.0,0.0,0.0,0.0,0.0,0.0,0.0,-3.0923,-3.0309,-3.0451,-3.1529,0.0,0.0,0.0,0.0,-3.1933,-3.1949,-3.1549,-3.1323,-3.1323,-3.0854,-3.049,-3.0475,0.0,0.0,-2.8345,-2.8261,-2.8248,-2.8274,-2.8248,-2.7738,-2.6012,-2.5678,-2.5625,-2.5625,-2.5638,-2.5705,-2.5945,-2.6117,-2.6119,-4.9038,0.0,0.0,0.0,0.0,-4.6652,-4.6728,-4.6728,-4.6728,-4.6728,-4.6702,-4.6175,0.0,0.0,0.0,0.0,0.0,0.0,-4.4573,-4.4301,-4.4457,-4.4713,-4.4976,-4.4784,-4.4702,-4.4712,-4.4461,-4.3828,-4.2807,-4.1917,-4.0241,-3.7902,0.0,0.0,0.0,0.0,-3.9201,-4.0729,-4.1504,-4.2344,-4.332,-4.3965,-4.4141,-4.3828,-4.3398,-4.2754,-4.1914,-4.1055,-3.9883,-3.834,-3.6777,0.0,0.0,0.0,0.0,0.0,0.0,0.0,0.0,0.0,0.0,0.0,0.0,0.0,0.0,0.0,0.0,0.0,0.0,0.0,-3.1142,-3.188,-3.2205,0.0,0.0,0.0,0.0,0.0,0.0,0.0,0.0,0.0,-3.4956,-3.35,-3.2736,0.0,0.0,-3.4127,-3.4445,-3.4699,-3.4703,-3.4288,-3.4154,0.0,-3.3255,-3.2998,-3.264,-3.1965,-3.1121,-3.0409,-3.0174,-2.9868,-2.9689,-2.9879,-2.967,-2.9219,-2.8751,-2.7949,-2.7511,-2.7388,-2.7388,-2.7497,-2.7578,-2.7591,-2.7618,-5.2804,-5.1272,-4.9841,-4.9238,-4.9264,-4.949,-4.9565,-4.9565,-4.9565,-4.9565,-4.954,-4.9012,-4.8786,-4.8698,-4.7905,0.0,0.0,0.0,-4.7191,-4.7261,-4.692,-4.7081,-4.7471,-4.714,-4.6902,-4.6758,-4.6568,-4.5974,-4.496,-4.4422,-4.3201,-4.1296,0.0,0.0,-3.9779,-3.9979,-4.0618,-4.1614,-4.2425,-4.3281,-4.3965,-4.4668,-4.4824,-4.4414,-4.4121,-4.3574,-4.2715,-4.2031,-4.1074,-3.9766,-3.8262,-3.6641,0.0,0.0,0.0,0.0,0.0,0.0,0.0,0.0,0.0,0.0,0.0,-2.7645,-2.8509,0.0,0.0,0.0,-3.1523,-3.256,-3.3405,-3.3927,0.0,0.0,0.0,0.0,0.0,0.0,0.0,-3.5139,-3.6513,-3.7451,-3.7571,-3.683,-3.6276,-3.6372,-3.6617,-3.6843,-3.7235,0.0,-3.7159,-3.6795,-3.6609,-3.6286,-3.552,-3.5376,-3.5004,-3.3755,-3.2807,-3.2088,-3.1816,-3.1324,-3.1035,-3.1021,-3.0714,-3.0442,-3.0261,-2.9659,-2.9112,-2.8898,-2.8845,-2.8845,-2.8845,-2.8845,-2.8845,-5.6043,-5.539,-5.2854,-5.1724,-5.1599,-5.2076,-5.2277,-5.2302,-5.2302,-5.2327,-5.2327,-5.18,-5.1548,-5.1548,-5.0857,0.0,-5.0213,-4.9985,-4.9943,-5.0152,-4.9862,-4.9769,-4.9796,-4.9442,-4.9124,-4.871,-4.8185,-4.7668,-4.7072,-4.5871,-4.5209,-4.5043,-4.2994,-4.175,-4.1343,-4.165,-4.2116,-4.2585,-4.333,-4.3945,-4.4433,-4.4863,-4.4863,-4.4453,-4.4375,-4.3965,-4.3164,-4.2676,-4.1875,-4.0664,-3.9375,-3.793,-3.6289,0.0,0.0,0.0,0.0,0.0,0.0,0.0,0.0,0.0,0.0,0.0,0.0,0.0,0.0,0.0,-3.3906,0.0,-3.6094,-3.6191,0.0,0.0,0.0,-3.6426,-3.6836,-3.7266,-3.7553,-3.7653,0.0,0.0,-3.909,-4.0116,-4.0584,-3.979,-3.9634,-3.9664,-3.995,-3.9728,-3.9497,-3.9449,-3.9038,-3.858,-3.8065,-3.7695,-3.7013,-3.5685,-3.4608,-3.3838,-3.3427,-3.2802,-3.2281,-3.1955,-3.1679,-3.1495,-3.1047,-3.0901,-3.0702,-3.014,-3.0007,-2.9967,-2.994,-2.994,-2.9927,-5.7424,-5.7248,-5.6595,-5.534,-5.3878,-5.3934,-5.3984,-5.3984,-5.3984,-5.421,-5.4561,-5.4034,-5.3783,-5.3808,-5.3456,-5.3201,-5.3203,-5.2615,-5.2311,-5.2055,-5.1767,-5.1651,-5.1678,-5.1322,-5.107,-5.0981,-5.0121,-4.9406,-4.8568,-4.7901,-4.7051,-4.6037,-4.5478,-4.4613,-4.3545,-4.3346,-4.3508,-4.39,-4.4134,-4.4415,-4.4863,-4.5293,-4.5312,-4.4883,-4.4219,-4.3769,-4.3555,-4.2832,-4.2148,-4.1504,-4.0273,-3.9082,-3.8008,-3.6035,0.0,0.0,0.0,0.0,0.0,0.0,0.0,0.0,0.0,-3.1133,-3.166,0.0,-3.3633,0.0,-3.5664,-3.6894,-3.7422,-3.7773,0.0,0.0,-3.8262,-3.8476,-3.8594,-3.9277,-3.9729,-3.9732,-4.088,-4.1658,-4.15,-4.2644,-4.3419,-4.322,-4.2245,-4.1571,-4.1434,-4.1814,-4.1984,-4.1536,-4.1197,-4.0749,-4.0158,-3.8879,-3.7953,-3.7468,-3.6337,-3.5423,-3.5593,-3.4525,-3.3784,-3.3815,-3.3313,-3.2672,-3.2109,-3.2015,-3.1786,-3.1343,-3.0902,-3.0581,-3.0581,-3.0581,-3.0581,-5.8478,-5.8278,-5.8278,-5.7399,-5.6043,-5.6043,-5.6043,-5.6043,-5.6043,-5.6219,-5.6495,-5.6168,-5.6043,-5.6068,-5.5682,-5.5584,-5.5534,-5.4627,-5.4271,-5.4304,-5.3283,-5.3005,-5.327,-5.2428,-5.2033,-5.2075,-5.1145,-5.0337,-4.9679,-4.9045,-4.8189,-4.7258,-4.7051,-4.6471,-4.554,-4.4731,-4.4317,-4.4402,-4.4548,-4.496,-4.5547,-4.5644,-4.5469,-4.5039,-4.4355,-4.3926,-4.3711,-4.2871,-4.2305,-4.207,-4.0859,-3.9863,-3.918,-3.75,-3.6328,0.0,0.0,0.0,0.0,0.0,0.0,0.0,0.0,0.0,0.0,0.0,-3.5644,-3.6621,-3.7773,-3.8633,-3.9043,-3.9473,-3.9726,-3.9726,-3.9941,-4.0234,-4.0586,-4.1074,-4.1523,-4.1894,-4.2754,-4.3301,-4.334,-4.4101,-4.4687,-4.4668,-4.4207,-4.3668,-4.3384,-4.3605,-4.3763,-4.3484,-4.3347,-4.3133,-4.2657,-4.1169,-4.0084,-3.9994,-3.8811,-3.7975,-3.8059,-3.6885,-3.5919,-3.5802,-3.501,-3.4155,-3.3569,-3.3105,-3.2722,-3.249,-3.1988,-3.1503,-3.1236,-3.1183,-3.1183,-5.9232,-5.883,-5.883,-5.8554,-5.8102,-5.8102,-5.8027,-5.7901,-5.7901,-5.7951,-5.8001,-5.8077,-5.8102,-5.8102,-5.7698,-5.7522,-5.7446,-5.6298,-5.5998,-5.6275,-5.4794,-5.4373,-5.4648,-5.3356,-5.2769,-5.281,-5.1809,-5.1123,-5.0713,-4.9734,-4.8999,-4.8543,-4.8003,-4.7548,-4.7113,-4.5921,-4.5129,-4.4663,-4.4956,-4.5476,-4.6113,-4.5781,-4.5391,-4.4941,-4.4492,-4.4043,-4.3633,-4.2851,-4.2422,-4.2383,-4.1269,-4.0449,-4.0059,-3.8809,-3.793,0.0,-3.6445,0.0,0.0,0.0,0.0,0.0,0.0,0.0,0.0,-3.6562,-3.7773,-3.9394,-3.9961,-4.0391,-4.0801,-4.123,-4.1504,-4.1504,-4.1562,-4.1875,-4.2578,-4.2734,-4.3047,-4.3789,-4.4277,-4.4551,-4.4551,-4.4922,-4.5195,-4.5332,-4.5605,-4.5617,-4.5383,-4.5232,-4.5164,-4.5126,-4.5445,-4.5314,-4.4708,-4.3646,-4.2724,-4.2574,-4.1501,-4.0591,-4.043,-3.9207,-3.8102,-3.7516,-3.6642,-3.5794,-3.5343,-3.4363,-3.3685,-3.3561,-3.3035,-3.2498,-3.2,-3.1784,-3.1784,-5.9433,-5.9357,-5.9357,-5.9282,-5.9207,-5.9207,-5.8704,-5.7901,-5.7901,-5.8152,-5.8579,-5.9006,-5.9182,-5.9207,-5.8796,-5.8564,-5.8564,-5.7966,-5.7624,-5.7303,-5.6669,-5.6453,-5.6523,-5.526,-5.4706,-5.4654,-5.34,-5.2542,-5.211,-5.0885,-5.0013,-4.9552,-4.8648,-4.8024,-4.7568,0.0,0.0,0.0,-4.5748,-4.5438,-4.5254,-4.5195,-4.4941,-4.4531,-4.375,0.0,-4.3183,-4.2695,-4.2422,-4.2402,-4.1543,0.0,0.0,0.0,0.0,0.0,0.0,0.0,0.0,0.0,0.0,0.0,-3.9297,-3.8769,-3.7617,-3.8574,-3.9844,-4.1172,-4.1699,-4.2129,-4.2558,-4.2969,-4.3223,-4.3223,-4.3555,-4.3848,-4.4023,-4.4316,-4.4609,-4.4746,-4.5156,-4.543,-4.5449,-4.5801,-4.6172,-4.6465,-4.6641,-4.6797,-4.7031,-4.6708,-4.6523,-4.6561,-4.6613,-4.649,-4.6023,-4.4985,-4.4287,-4.4104,-4.309,-4.2011,-4.1595,-4.0641,-3.976,-3.9209,-3.8197,-3.7387,-3.6894,-3.592,-3.5097,-3.4682,-3.381,-3.2992,-3.2495,-3.2469,-3.2372,-6.0337,-6.0337,-6.0337,-6.0161,0.0,-5.991,-5.9433,-5.8679,-5.8679,-5.883,-5.9106,-5.9382,-5.9508,-5.9483,-5.9251,-5.9173,-5.9198,-5.8731,-5.8644,-5.8551,-5.7781,-5.7565,-5.7826,-5.6266,-5.5626,-5.5598,-5.4229,-5.3278,-5.2844,-5.1757,-5.0875,-5.0414,-4.9752,-4.9162,-4.8707,-4.8479,-4.783,-4.6715,-4.6186,-4.5878,-4.5625,-4.5234,-4.4922,-4.4687,-4.3848,0.0,0.0,0.0,0.0,0.0,0.0,0.0,0.0,-4.0957,0.0,-4.0762,-4.0391,-4.0351,-4.0762,-4.0801,-4.0996,-4.1445,-4.1855,-4.1543,-4.0234,-4.1152,-4.2051,-4.2676,-4.3144,-4.3496,-4.3711,-4.4101,-4.4355,-4.4375,-4.457,-4.4785,-4.5,-4.5215,-4.543,-4.5625,-4.584,-4.6055,-4.6269,-4.6465,-4.6777,-4.7168,-4.7246,-4.7324,-4.75,-4.7402,-4.7305,-4.7519,-4.7354,-4.7151,-4.7068,-4.6573,-4.6002,-4.5778,-4.5085,-4.4423,-4.4032,-4.3192,-4.233,-4.1737,-4.0754,-3.9659,-3.8854,-3.7776,-3.6699,-3.5919,-3.5137,-3.4352,-3.3833,-3.3138,-3.2643,-6.119,-6.119,-6.119,-6.0914,-6.0462,-6.0462,-6.0211,-5.9784,0.0,0.0,0.0,-5.9784,-5.9809,-5.9809,-5.9809,-5.9809,-5.9784,-5.9498,-5.9566,-5.991,-5.882,-5.8524,-5.8844,-5.7384,-5.6491,-5.6268,-5.5062,-5.4106,-5.3625,-5.2461,-5.1698,-5.1341,-5.073,-5.0239,-4.9866,-4.9494,-4.8691,-4.7571,-4.6875,-4.6457,-4.6444,-4.5547,-4.5137,-4.5137,-4.4355,-4.3945,-4.3926,-4.3613,-4.3418,-4.3418,-4.3008,-4.2773,-4.2754,-4.2363,-4.2324,-4.2715,-4.2461,-4.248,-4.2949,-4.3008,-4.3183,-4.3613,-4.4043,-4.3848,-4.2871,-4.3418,-4.3867,-4.3926,-4.4355,-4.4629,-4.4629,-4.5,-4.5254,-4.5254,-4.5254,-4.543,-4.582,-4.5898,-4.6074,-4.6426,-4.6543,-4.6641,-4.6973,-4.7031,-4.7207,-4.7578,-4.7695,-4.7734,-4.7773,-4.7773,-4.7832,-4.8203,-4.8124,-4.8042,-4.8239,-4.8039,-4.7742,-4.761,-4.7097,-4.6709,-4.6404,-4.5718,-4.4937,-4.4211,-4.3194,-4.203,-4.1113,-3.9791,-3.8553,-3.7566,-3.6872,-3.6276,-3.5522,-3.4391,-3.3371,-6.119,-6.119,-6.119,-6.114,-6.1065,-6.1065,-6.1014,-6.0889,-6.0412,-6.0487,-6.0939,-6.0939,-6.0939,-6.0939,-6.0939,-6.0939,-6.0939,-6.0939,-6.091,-6.0985,-6.0402,-6.0217,-6.0351,-5.9447,-5.8519,-5.7778,-5.6769,-5.5924,-5.5027,-5.3249,-5.2397,-5.2203,-5.1052,-5.0404,-5.0322,-5.0259,-4.9934,-4.9304,-4.8157,-4.7295,-4.692,-4.6013,-4.5586,-4.5566,-4.5098,-4.4844,-4.4844,-4.4785,-4.4746,-4.4746,-4.4355,-4.4121,-4.4101,-4.3691,-4.3652,-4.4062,-4.4062,-4.4375,-4.5137,-4.5215,-4.5391,-4.582,-4.623,-4.582,-4.4297,-4.4219,-4.4453,-4.4824,-4.5273,-4.5488,-4.5527,-4.5879,-4.6133,-4.6113,-4.6113,-4.6289,-4.668,-4.6719,-4.6894,-4.7285,-4.7402,-4.7383,-4.7461,-4.748,-4.7656,-4.8008,-4.8164,-4.8262,-4.8535,-4.8359,-4.832,-4.8711,-4.9101,-4.9243,-4.9266,-4.9181,-4.907,-4.9091,-4.8251,-4.7598,-4.7149,-4.6604,-4.602,-4.5461,-4.4528,-4.3692,-4.3282,-4.2146,-4.0959,-4.0049,-3.9251,-3.8365,-3.7444,-3.6536,-3.5646,-6.2069,-6.2069,-6.2069,-6.1893,-6.1617,-6.1316,-6.1366,-6.1617,-6.1341,-6.119,-6.1165,-6.119,-6.119,-6.119,-6.119,-6.119,-6.119,-6.119,-6.1341,-6.1617,-6.111,-6.1166,-6.1359,-6.0393,-5.9511,-5.8771,-5.7682,-5.6645,-5.5664,-5.4302,-5.3333,-5.2801,-5.172,-5.117,-5.117,-5.117,-5.0957,-5.0422,-4.9101,-4.8142,-4.7701,-4.6846,-4.6348,-4.6348,-4.5937,-4.5703,-4.5723,-4.5723,-4.5723,-4.5723,-4.5527,-4.543,-4.543,-4.5215,-4.5312,-4.5742,-4.5781,-4.6055,-4.668,-4.6699,-4.6797,-4.6992,-4.7168,-4.6973,-4.6211,-4.6133,-4.6191,-4.6387,-4.6601,-4.6719,-4.6719,-4.6875,-4.6992,-4.6992,-4.6992,-4.707,-4.7226,-4.7285,-4.7363,-4.7539,-4.7578,-4.7676,-4.7891,-4.791,-4.8086,-4.8496,-4.873,-4.9082,-4.9492,-4.9414,-4.9238,-4.9277,-4.959,-4.9844,-4.9902,-4.985,-4.9778,-4.978,-4.9339,-4.8856,-4.8345,-4.7931,-4.7442,-4.6736,-4.6002,-4.527,-4.4562,-4.3583,-4.2592,-4.1383,-4.0669,-3.9768,-3.9064,-3.807,-3.6636,-6.2822,-6.2822,-6.2822,-6.2571,-6.2169,-6.1743,-6.1793,-6.2169,-6.2195,-6.1943,-6.1592,-6.1542,-6.1542,-6.1567,-6.1542,-6.1567,-6.1567,-6.1567,-6.1793,-6.2089,-6.1764,-6.1826,-6.2059,-6.1091,-6.0339,-5.9558,-5.8453,-5.7337,-5.6297,-5.5336,-5.4405,-5.3348,-5.2646,-5.2193,-5.2102,-5.2102,-5.1936,-5.1494,-5.0245,-4.9252,-4.8494,-4.7514,-4.707,-4.7051,-4.6777,-4.6582,-4.6582,-4.6582,-4.6582,-4.6582,-4.6582,-4.6582,-4.6601,-4.6582,-4.6777,-4.7168,-4.7226,-4.7402,-4.7812,-4.7871,-4.7871,-4.7871,-4.7871,-4.7871,-4.7871,-4.7871,-4.7773,-4.7617,-4.7519,-4.7539,-4.7519,-4.7539,-4.7578,-4.7578,-4.7578,-4.7598,-4.7695,-4.7715,-4.7773,-4.7832,-4.7871,-4.8047,-4.8379,-4.8496,-4.8711,-4.9121,-4.9473,-4.9805,-5.0117,-5.0234,-5.0156,-5.0,-5.0117,-5.0293,-5.0332,-5.043,-5.0414,-5.032,-5.0166,-4.9893,-4.9535,-4.9255,-4.878,-4.7915,-4.7338,-4.6583,-4.5538,-4.495,-4.4084,-4.2891,-4.2307,-4.1557,-4.0567,-3.9252,-3.7608,-6.2822,-6.2822,-6.2822,-6.2797,-6.2722,-6.2672,-6.2672,-6.2722,-6.2747,-6.2722,-6.2621,-6.2672,-6.2647,-6.2672,-6.2647,-6.2621,-6.2621,-6.2672,-6.2672,-6.2722,-6.2665,-6.2527,-6.2249,-6.2002,-6.134,-6.0255,-5.9497,-5.8586,-5.7233,-5.633,-5.5123,-5.3984,-5.3772,-5.3474,-5.3126,-5.3033,-5.3013,-5.2992,-5.2023,-5.0659,-4.904,-4.7987,-4.7519,-4.7519,-4.75,-4.7461,-4.7519,-4.7461,-4.748,-4.7461,-4.748,-4.748,-4.748,-4.7461,-4.7656,-4.8047,-4.8086,-4.8281,-4.8672,-4.875,-4.8711,-4.875,-4.8711,-4.873,-4.873,-4.875,-4.8398,-4.7871,-4.7637,-4.7656,-4.7578,-4.7617,-4.7676,-4.7695,-4.7676,-4.7715,-4.8066,-4.8144,-4.8301,-4.8711,-4.8711,-4.8906,-4.9258,-4.9355,-4.9551,-4.9922,-5.0039,-5.0176,-5.0312,-5.0566,-5.0742,-5.0664,-5.0742,-5.0742,-5.0781,-5.1074,-5.1114,-5.1134,-5.0862,-5.0608,-5.0334,-4.9667,-4.8996,-4.8682,-4.8168,-4.7401,-4.7121,-4.6804,-4.5953,-4.4813,-4.4228,-4.3909,-4.2115,-4.0738,-3.9103,-6.2822,-6.2822,-6.2822,-6.2822,-6.2822,-6.2822,-6.2822,-6.2822,-6.2822,-6.2822,-6.2822,-6.2822,-6.2822,-6.2822,-6.2822,-6.2822,-6.2822,-6.2822,-6.2822,-6.2822,-6.2822,-6.2741,-6.2577,-6.2331,-6.1754,-6.0973,-6.0568,-5.9693,-5.8236,-5.6799,-5.5604,-5.4775,-5.4174,-5.3805,-5.3621,-5.3364,-5.3178,-5.3178,-5.2247,-5.1323,-5.0607,-4.9677,-4.9121,-4.9121,-4.9121,-4.9121,-4.9121,-4.9121,-4.9121,-4.9101,-4.8867,-4.873,-4.873,-4.8476,-4.8398,-4.8574,-4.8594,-4.8672,-4.8848,-4.8848,-4.8965,-4.9219,-4.9258,-4.9355,-4.9609,-4.9648,-4.9473,-4.9141,-4.8652,-4.834,-4.834,-4.834,-4.834,-4.834,-4.834,-4.8418,-4.8555,-4.8828,-4.9082,-4.9238,-4.9473,-4.9687,-4.9863,-4.9922,-5.0098,-5.0449,-5.0547,-5.0625,-5.0859,-5.1074,-5.1152,-5.1172,-5.1172,-5.1172,-5.1172,-5.1289,-5.1426,-5.1348,-5.1231,-5.1037,-5.0685,-5.047,-4.9863,-4.9311,-4.8756,-4.8161,-4.7491,-4.741,-4.6911,-4.6228,-4.5289,-4.4565,-4.306,-4.2125,-4.0825,-6.3274,-6.3249,-6.3124,-6.2973,-6.2822,-6.2822,-6.2822,-6.2822,-6.2822,-6.2822,-6.2822,-6.2822,-6.2822,-6.2822,-6.2822,-6.2822,-6.2822,-6.2822,-6.2822,-6.2822,-6.2822,-6.2822,-6.2741,-6.2495,-6.2184,-6.186,-6.1533,-6.0682,-5.9319,-5.7693,-5.6607,-5.5895,-5.5017,-5.4368,-5.4297,-5.3831,-5.3551,-5.3457,-5.2519,-5.2027,-5.1932,-5.1079,-5.041,-5.0215,-5.0176,-5.0176,-5.0176,-5.0176,-5.0176,-5.0156,-4.9863,-4.9707,-4.9687,-4.9394,-4.9312,-4.9219,-4.9219,-4.9219,-4.9219,-4.9219,-4.9355,-4.9668,-4.9707,-4.9844,-5.0098,-5.0176,-5.0176,-5.0078,-4.959,-4.9219,-4.9219,-4.9219,-4.9219,-4.9219,-4.9219,-4.9219,-4.9258,-4.9531,-4.9687,-4.9746,-4.9922,-5.0234,-5.0332,-5.0469,-5.0683,-5.0918,-5.0976,-5.1055,-5.1348,-5.1406,-5.1445,-5.1582,-5.1621,-5.1543,-5.1484,-5.1582,-5.1582,-5.166,-5.1621,-5.1659,-5.1287,-5.1208,-5.1012,-5.045,-4.9884,-4.935,-4.8781,-4.8426,-4.7816,-4.7232,-4.6509,-4.5428,-4.4294,-4.3734,-4.2937,-6.4404,-6.4304,-6.3852,-6.335,-6.2847,-6.2873,-6.2873,-6.2948,-6.2898,-6.2873,-6.2923,-6.2898,-6.2847,-6.2873,-6.2898,-6.2847,-6.2822,-6.2822,-6.2822,-6.2822,-6.2822,-6.2822,-6.2822,-6.2766,-6.2852,-6.2779,-6.25,-6.1628,-6.0384,-5.9315,-5.8387,-5.7405,-5.6336,-5.565,-5.5251,-5.4663,-5.4461,-5.4284,-5.3406,-5.2892,-5.2796,-5.1832,-5.0957,-5.0332,-5.0195,-5.0234,-5.0215,-5.0195,-5.0195,-5.0195,-5.0176,-5.0156,-5.0156,-5.0117,-5.0058,-5.0058,-5.0078,-5.0078,-5.0058,-5.0039,-5.0078,-5.0156,-5.0156,-5.0176,-5.0293,-5.0293,-5.0293,-5.0215,-5.0195,-5.0117,-5.0117,-5.0,-5.0,-5.0019,-5.0058,-5.0058,-5.0058,-5.0058,-5.0137,-5.0156,-5.0234,-5.0449,-5.0742,-5.1133,-5.1269,-5.1348,-5.1387,-5.1426,-5.1484,-5.1484,-5.168,-5.1953,-5.2031,-5.1933,-5.1601,-5.1816,-5.2031,-5.209,-5.2266,-5.2558,-5.2438,-5.2277,-5.192,-5.1501,-5.0805,-5.0303,-5.0112,-4.9708,-4.9129,-4.8483,-4.7939,-4.7035,-4.5958,-4.5635,-4.4852,-6.4479,-6.4454,-6.4254,-6.4053,-6.3877,-6.3877,-6.3877,-6.3877,-6.3877,-6.3877,-6.3877,-6.3877,-6.3701,-6.3375,-6.3375,-6.3174,-6.2847,-6.2822,-6.2822,-6.2822,-6.2822,-6.2822,-6.2873,-6.3199,-6.3202,-6.3036,-6.3514,-6.3116,-6.1812,-6.054,-5.9636,-5.8856,-5.7607,-5.6883,-5.6508,-5.5567,-5.502,-5.4925,-5.4047,-5.3377,-5.2992,-5.2298,-5.156,-5.1016,-5.0976,-5.0976,-5.0996,-5.0976,-5.0976,-5.0976,-5.0723,-5.0566,-5.0547,-5.0332,-5.0176,-5.0176,-5.0176,-5.0176,-5.0176,-5.0176,-5.0312,-5.0547,-5.0586,-5.0703,-5.0918,-5.0976,-5.0976,-5.0976,-5.0976,-5.0976,-5.0879,-5.0508,-5.0176,-5.0176,-5.0176,-5.0215,-5.0234,-5.041,-5.0566,-5.0605,-5.0801,-5.1055,-5.1172,-5.1348,-5.1426,-5.1465,-5.168,-5.1816,-5.1894,-5.2051,-5.2285,-5.2422,-5.248,-5.2441,-5.2324,-5.2363,-5.248,-5.2519,-5.2617,-5.2676,-5.2654,-5.2613,-5.2374,-5.2132,-5.1567,-5.1063,-5.0677,-5.0068,-4.9643,-4.9319,-4.879,-4.8483,-4.7771,-4.7243,-4.6354,-6.4881,-6.4756,-6.4731,-6.463,-6.4479,-6.4479,-6.4479,-6.4479,-6.4479,-6.4479,-6.4479,-6.4454,-6.4254,-6.3977,-6.3952,-6.3751,-6.335,-6.3199,-6.3199,-6.335,-6.3375,-6.335,-6.3425,-6.3776,-6.3861,-6.3885,-6.4513,-6.4122,-6.2831,-6.1718,-6.0817,-5.9909,-5.8625,-5.7792,-5.7328,-5.632,-5.5682,-5.5188,-5.4428,-5.376,-5.2992,-5.2491,-5.1911,-5.1523,-5.1445,-5.1445,-5.1445,-5.1445,-5.1445,-5.1387,-5.1152,-5.1016,-5.0976,-5.0742,-5.0586,-5.0586,-5.0586,-5.0586,-5.0586,-5.0586,-5.0703,-5.0976,-5.1016,-5.1152,-5.1406,-5.1445,-5.1445,-5.1445,-5.1445,-5.1445,-5.1328,-5.0918,-5.0586,-5.0586,-5.0586,-5.0586,-5.0586,-5.084,-5.0996,-5.1035,-5.1211,-5.1445,-5.1621,-5.1641,-5.1719,-5.1797,-5.2109,-5.2266,-5.2324,-5.25,-5.2793,-5.2891,-5.293,-5.3008,-5.3066,-5.3183,-5.3027,-5.3008,-5.3125,-5.3086,-5.3027,-5.3047,-5.2966,-5.2603,-5.2219,-5.1714,-5.1105,-5.0494,-5.0067,-4.9863,-4.9768,-4.9447,-4.894,-4.8573,-4.7644,-6.576,-6.5333,-6.5308,-6.5007,-6.4655,-6.463,-6.453,-6.4605,-6.458,-6.4655,-6.4705,-6.458,-6.4605,-6.4479,-6.4479,-6.4454,-6.4329,-6.3952,-6.3952,-6.4279,-6.4329,-6.4329,-6.4329,-6.4429,-6.4756,-6.5123,-6.5296,-6.4702,-6.341,-6.279,-6.1808,-6.0636,-5.9612,-5.8717,-5.7607,-5.7163,-5.632,-5.5567,-5.4883,-5.4026,-5.3089,-5.2491,-5.2008,-5.1426,-5.1445,-5.1445,-5.1445,-5.1445,-5.1445,-5.1445,-5.1406,-5.1426,-5.1387,-5.1328,-5.1387,-5.1328,-5.1387,-5.1387,-5.1367,-5.1328,-5.1308,-5.1367,-5.1387,-5.1387,-5.1406,-5.1445,-5.1445,-5.1445,-5.1445,-5.1445,-5.1445,-5.1348,-5.1308,-5.1406,-5.1289,-5.1289,-5.1328,-5.1406,-5.1445,-5.1445,-5.1523,-5.166,-5.1953,-5.209,-5.2187,-5.2461,-5.2656,-5.2715,-5.2734,-5.2832,-5.2969,-5.3242,-5.3379,-5.3457,-5.375,-5.3984,-5.3711,-5.3516,-5.3691,-5.3769,-5.3672,-5.3672,-5.3613,-5.3328,-5.2903,-5.2393,-5.1761,-5.1145,-5.0808,-5.062,-5.0505,-5.0243,-4.9768,-4.9259,-4.8927,-6.6011,-6.586,-6.586,-6.576,-6.5609,-6.5609,-6.5609,-6.5584,-6.5609,-6.5609,-6.5584,-6.5609,-6.5383,-6.5082,-6.5032,-6.5032,-6.5007,-6.4856,-6.468,-6.453,-6.4505,-6.4505,-6.4555,-6.4856,-6.5308,-6.57,-6.552,-6.5161,-6.4639,-6.3586,-6.2814,-6.2255,-6.1088,-6.0273,-5.9452,-5.8418,-5.7399,-5.6767,-5.5661,-5.4524,-5.3548,-5.2972,-5.2317,-5.1542,-5.1445,-5.1445,-5.1445,-5.1445,-5.1445,-5.1445,-5.1445,-5.1445,-5.1445,-5.1445,-5.1445,-5.1445,-5.1445,-5.1445,-5.1445,-5.1445,-5.1445,-5.1445,-5.1445,-5.1445,-5.1445,-5.1465,-5.1465,-5.1465,-5.1445,-5.1445,-5.1445,-5.1445,-5.1484,-5.1445,-5.1445,-5.1465,-5.1543,-5.1719,-5.1855,-5.1914,-5.2129,-5.2363,-5.248,-5.2519,-5.2578,-5.2754,-5.2988,-5.3144,-5.3183,-5.3379,-5.3633,-5.3808,-5.3848,-5.3789,-5.3926,-5.4023,-5.3887,-5.375,-5.3906,-5.4023,-5.4023,-5.4023,-5.4023,-5.3921,-5.3512,-5.3083,-5.2363,-5.1744,-5.1433,-5.1018,-5.0633,-5.0474,-5.0334,-5.0017,-4.9543,-6.6112,-6.6112,-6.6112,-6.6112,-6.6112,-6.6112,-6.6112,-6.6112,-6.6112,-6.6112,-6.6112,-6.6112,-6.5936,-6.566,-6.5584,-6.5584,-6.5584,-6.5609,-6.5409,-6.5132,-6.5082,-6.5082,-6.5107,-6.5409,-6.5735,-6.595,-6.5767,-6.5594,-6.5335,-6.4552,-6.3851,-6.341,-6.2523,-6.1628,-6.0998,-5.9703,-5.8695,-5.7678,-5.6508,-5.5188,-5.3931,-5.3261,-5.2511,-5.1523,-5.1445,-5.1445,-5.1445,-5.1582,-5.1601,-5.1465,-5.1445,-5.1445,-5.1445,-5.1445,-5.1445,-5.1445,-5.1445,-5.1484,-5.1641,-5.1699,-5.1758,-5.1855,-5.1914,-5.1914,-5.1914,-5.1914,-5.1914,-5.1894,-5.1933,-5.1914,-5.1914,-5.1914,-5.1894,-5.1914,-5.1777,-5.1758,-5.1875,-5.2148,-5.2305,-5.2363,-5.2519,-5.2754,-5.291,-5.2949,-5.3047,-5.3183,-5.3437,-5.3613,-5.3652,-5.3828,-5.3965,-5.4023,-5.3984,-5.3965,-5.4004,-5.4023,-5.4023,-5.3984,-5.4004,-5.4023,-5.4023,-5.4023,-5.4023,-5.3921,-5.3717,-5.341,-5.2775,-5.226,-5.1847,-5.1348,-5.0847,-5.0688,-5.0529,-5.0548,-5.023,-6.6112,-6.6112,-6.6112,-6.6112,-6.6112,-6.6112,-6.6112,-6.6112,-6.6112,-6.6112,-6.6112,-6.6112,-6.6086,-6.6086,-6.6011,-6.6011,-6.6086,-6.6036,-6.6011,-6.5986,-6.5961,-6.5936,-6.5936,-6.5986,-6.6036,-6.6112,-6.6026,-6.5853,-6.5508,-6.5248,-6.4988,-6.4114,-6.3586,-6.2879,-6.1987,-6.1088,-5.9886,-5.851,-5.7421,-5.5923,-5.4122,-5.3438,-5.2667,-5.1621,-5.1679,-5.1621,-5.168,-5.1933,-5.1933,-5.1582,-5.1621,-5.1641,-5.1543,-5.1504,-5.1601,-5.1621,-5.1543,-5.1758,-5.2031,-5.2109,-5.2246,-5.2519,-5.2578,-5.2715,-5.2598,-5.2539,-5.2539,-5.2558,-5.2578,-5.2637,-5.2617,-5.2598,-5.2617,-5.2676,-5.2344,-5.2285,-5.2617,-5.2695,-5.2754,-5.2754,-5.2773,-5.293,-5.3359,-5.3398,-5.3574,-5.3789,-5.3926,-5.3926,-5.3945,-5.3984,-5.4004,-5.4023,-5.4023,-5.4023,-5.4023,-5.4023,-5.4023,-5.4023,-5.4023,-5.4023,-5.4023,-5.4023,-5.4023,-5.3921,-5.396,-5.3634,-5.3282,-5.2721,-5.2204,-5.1705,-5.127,-5.0866,-5.0725,-5.0725,-5.0743,-6.6112,-6.6112,-6.6112,-6.6112,-6.6112,-6.6112,-6.6112,-6.6112,-6.6112,-6.6112,-6.6112,-6.6112,-6.6112,-6.6112,-6.6112,-6.6112,-6.6112,-6.6112,-6.6112,-6.6112,-6.6112,-6.6112,-6.6112,-6.6112,-6.6112,-6.6112,-6.6112,-6.6026,-6.5853,-6.5594,-6.5248,-6.4988,-6.4527,-6.3851,-6.2967,-6.2345,-6.1359,-5.9886,-5.851,-5.7026,-5.5588,-5.4834,-5.396,-5.2639,-5.2778,-5.2719,-5.2363,-5.248,-5.25,-5.2402,-5.2383,-5.2383,-5.2324,-5.2305,-5.2285,-5.2305,-5.2344,-5.2402,-5.25,-5.2539,-5.2617,-5.2695,-5.2812,-5.2715,-5.2715,-5.2715,-5.2715,-5.2715,-5.2715,-5.2754,-5.2734,-5.2754,-5.2871,-5.3066,-5.2832,-5.2637,-5.2773,-5.2988,-5.3183,-5.3203,-5.3457,-5.3672,-5.375,-5.3828,-5.3867,-5.3984,-5.4023,-5.4023,-5.4023,-5.4023,-5.4023,-5.4023,-5.4023,-5.4023,-5.4023,-5.4023,-5.4023,-5.4023,-5.4023,-5.4023,-5.4023,-5.4023,-5.4023,-5.4023,-5.4141,-5.3955,-5.3635,-5.3167,-5.2714,-5.2174,-5.167,-5.1338,-5.0853,-5.0761,-5.0798,-6.6112,-6.6112,-6.6112,-6.6112,-6.6112,-6.6112,-6.6112,-6.6112,-6.6112,-6.6112,-6.6112,-6.6112,-6.6112,-6.6112,-6.6112,-6.6112,-6.6112,-6.6112,-6.6112,-6.6112,-6.6112,-6.6112,-6.6112,-6.6112,-6.6112,-6.6112,-6.6112,-6.6112,-6.6026,-6.5853,-6.5681,-6.5594,-6.5223,-6.4726,-6.4202,-6.3233,-6.2434,-6.1268,-5.9703,-5.8207,-5.6954,-5.5978,-5.4786,-5.3702,-5.3489,-5.3351,-5.303,-5.2988,-5.291,-5.2754,-5.2715,-5.2715,-5.2715,-5.2715,-5.2715,-5.2715,-5.2715,-5.2773,-5.2949,-5.2988,-5.3086,-5.3223,-5.3262,-5.3262,-5.3281,-5.3262,-5.3281,-5.3301,-5.3262,-5.3262,-5.3262,-5.3262,-5.3379,-5.3555,-5.3418,-5.3262,-5.3262,-5.3496,-5.3633,-5.3711,-5.3848,-5.4023,-5.4023,-5.4023,-5.4023,-5.4023,-5.4023,-5.4023,-5.4023,-5.4023,-5.4023,-5.4023,-5.4023,-5.4023,-5.4023,-5.4023,-5.4023,-5.4023,-5.4023,-5.4023,-5.4023,-5.4023,-5.4023,-5.4062,-5.4199,-5.4233,-5.4015,-5.3812,-5.3444,-5.3025,-5.2307,-5.1812,-5.1362,-5.1055,-5.1055,-6.6112,-6.6112,-6.6112,-6.6112,-6.6112,-6.6112,-6.6112,-6.6112,-6.6112,-6.6112,-6.6112,-6.6112,-6.6112,-6.6112,-6.6112,-6.6112,-6.6112,-6.6112,-6.6112,-6.6112,-6.6112,-6.6112,-6.6112,-6.6112,-6.6112,-6.6112,-6.6112,-6.6112,-6.6112,-6.6026,-6.6112,-6.594,-6.5594,-6.5421,-6.4988,-6.4026,-6.3233,-6.2345,-6.0909,-5.9469,-5.8313,-5.7037,-5.5932,-5.4714,-5.4026,-5.3726,-5.3541,-5.3418,-5.3281,-5.2891,-5.2851,-5.293,-5.291,-5.2891,-5.291,-5.2949,-5.3008,-5.3125,-5.3359,-5.3437,-5.3574,-5.3848,-5.3926,-5.4023,-5.3926,-5.3887,-5.3867,-5.3867,-5.4004,-5.3906,-5.3906,-5.3965,-5.3926,-5.3945,-5.3965,-5.4004,-5.4023,-5.4023,-5.4023,-5.4023,-5.4023,-5.4023,-5.4023,-5.4023,-5.4023,-5.4023,-5.4023,-5.4023,-5.4023,-5.4023,-5.4023,-5.4023,-5.4023,-5.4023,-5.4023,-5.4023,-5.4023,-5.4023,-5.4023,-5.4023,-5.4023,-5.4023,-5.4023,-5.4062,-5.4141,-5.4336,-5.4506,-5.4344,-5.4034,-5.3537,-5.281,-5.2356,-5.2056,-5.1642,-5.1568,-6.6112,-6.6112,-6.6112,-6.6112,-6.6112,-6.6112,-6.6112,-6.6112,-6.6112,-6.6112,-6.6112,-6.6112,-6.6112,-6.6112,-6.6112,-6.6112,-6.6112,-6.6112,-6.6112,-6.6112,-6.6112,-6.6112,-6.6112,-6.6112,-6.6112,-6.6112,-6.6112,-6.6112,-6.6112,-6.6112,-6.6112,-6.6112,-6.594,-6.5767,-6.5335,-6.4726,-6.3939,-6.3128,-6.1979,-6.0776,-5.9725,-5.8669,-5.7491,-5.6013,-5.5005,-5.4338,-5.3949,-5.3887,-5.3848,-5.3769,-5.3711,-5.3633,-5.3652,-5.3672,-5.3652,-5.3652,-5.3691,-5.375,-5.3848,-5.3848,-5.3906,-5.3984,-5.4023,-5.4023,-5.4023,-5.4023,-5.4023,-5.4023,-5.4023,-5.4023,-5.4023,-5.4023,-5.4023,-5.4023,-5.4023,-5.4023,-5.4023,-5.4023,-5.4023,-5.4023,-5.4023,-5.4023,-5.4023,-5.4023,-5.4023,-5.4023,-5.4023,-5.4023,-5.4023,-5.4023,-5.4023,-5.4023,-5.4023,-5.4023,-5.4023,-5.4023,-5.4023,-5.4023,-5.4023,-5.4023,-5.4023,-5.4023,-5.4023,-5.4043,-5.4062,-5.4316,-5.4648,-5.437,-5.4043,-5.3567,-5.319,-5.2717,-5.231,-5.2078,-5.2009,-6.6112,-6.6112,-6.6112,-6.6112,-6.6112,-6.6112,-6.6112,-6.6112,-6.6112,-6.6112,-6.6112,-6.6112,-6.6112,-6.6112,-6.6112,-6.6112,-6.6112,-6.6112,-6.6112,-6.6112,-6.6112,-6.6112,-6.6112,-6.6112,-6.6112,-6.6112,-6.6112,-6.6112,-6.6112,-6.6112,-6.6112,-6.6112,-6.6112,-6.594,-6.5681,-6.5273,-6.4961,-6.4592,-6.3523,-6.2497,-6.1854,-6.059,-5.8642,-5.6722,-5.5406,-5.4533,-5.4023,-5.4023,-5.4023,-5.4023,-5.4023,-5.4023,-5.4023,-5.4023,-5.4023,-5.4023,-5.4023,-5.4023,-5.4023,-5.4023,-5.4023,-5.4023,-5.4023,-5.4023,-5.4023,-5.4023,-5.4023,-5.4023,-5.4023,-5.4023,-5.4023,-5.4023,-5.4023,-5.4023,-5.4023,-5.4023,-5.4023,-5.4023,-5.4023,-5.4023,-5.4023,-5.4023,-5.4023,-5.4023,-5.4023,-5.4023,-5.4023,-5.4023,-5.4023,-5.4023,-5.4023,-5.4023,-5.4023,-5.4023,-5.4023,-5.4023,-5.4023,-5.4023,-5.4023,-5.4023,-5.4023,-5.4023,-5.4023,-5.4043,-5.4101,-5.4375,-5.4565,-5.437,-5.407,-5.3672,-5.3209,-5.2772,-5.2439,-5.2299,-5.2247,-6.6112,-6.6112,-6.6112,-6.6112,-6.6112,-6.6112,-6.6112,-6.6112,-6.6112,-6.6112,-6.6112,-6.6112,-6.6112,-6.6112,-6.6112,-6.6112,-6.6112,-6.6112,-6.6112,-6.6112,-6.6112,-6.6112,-6.6112,-6.6112,-6.6112,-6.6112,-6.6112,-6.6112,-6.6112,-6.6112,-6.6112,-6.6112,-6.6112,-6.6026,-6.594,-6.5831,-6.5707,-6.5728,-6.5007,-6.4244,-6.3804,-6.2279,-5.9982,-5.7169,-5.5789,-5.4838,-5.4329,-5.4125,-5.4023,-5.4023,-5.4023,-5.4023,-5.4023,-5.4023,-5.4023,-5.4023,-5.4023,-5.4023,-5.4023,-5.4023,-5.4023,-5.4023,-5.4023,-5.4023,-5.4023,-5.4023,-5.4023,-5.4023,-5.4023,-5.4023,-5.4023,-5.4023,-5.4023,-5.4023,-5.4023,-5.4023,-5.4023,-5.4023,-5.4023,-5.4023,-5.4023,-5.4023,-5.4023,-5.4023,-5.4023,-5.4023,-5.4023,-5.4023,-5.4023,-5.4023,-5.4023,-5.4023,-5.4023,-5.4023,-5.4023,-5.4023,-5.4023,-5.4023,-5.4023,-5.4023,-5.4023,-5.4023,-5.4043,-5.4101,-5.4219,-5.4414,-5.4531,-5.4364,-5.4143,-5.3739,-5.3308,-5.2885,-5.2578,-5.2483,-5.2375,-6.6112,-6.6112,-6.6112,-6.6112,-6.6112,-6.6112,-6.6112,-6.6112,-6.6112,-6.6112,-6.6112,-6.6112,-6.6112,-6.6112,-6.6112,-6.6112,-6.6112,-6.6112,-6.6112,-6.6112,-6.6112,-6.6112,-6.6112,-6.6112,-6.6112,-6.6112,-6.6112,-6.6112,-6.6112,-6.6112,-6.6112,-6.6112,-6.6112,-6.6112,-6.6226,-6.613,-6.6254,-6.6564,-6.608,-6.562,-6.4805,-6.3333,-6.1126,-5.799,-5.6614,-5.5628,-5.4736,-5.4227,-5.4023,-5.4023,-5.4023,-5.4023,-5.4023,-5.4023,-5.4023,-5.4023,-5.4023,-5.4023,-5.4023,-5.4023,-5.4023,-5.4023,-5.4023,-5.4023,-5.4023,-5.4023,-5.4023,-5.4023,-5.4023,-5.4023,-5.4023,-5.4023,-5.4023,-5.4023,-5.4023,-5.4023,-5.4023,-5.4023,-5.4023,-5.4023,-5.4023,-5.4023,-5.4023,-5.4023,-5.4023,-5.4023,-5.4023,-5.4023,-5.4023,-5.4023,-5.4023,-5.4023,-5.4023,-5.4023,-5.4023,-5.4023,-5.4023,-5.4023,-5.4023,-5.4023,-5.4023,-5.4023,-5.4043,-5.4082,-5.4082,-5.416,-5.4258,-5.4336,-5.3854,-5.3339,-5.3035,-5.292,-5.2425,-5.2027,-5.2082,-6.6112,-6.6112,-6.6112,-6.6112,-6.6112,-6.6112,-6.6112,-6.6112,-6.6112,-6.6112,-6.6112,-6.6112,-6.6112,-6.6112,-6.6112,-6.6112,-6.6112,-6.6112,-6.6112,-6.6112,-6.6112,-6.6112,-6.6112,-6.6112,-6.6112,-6.6112,-6.6112,-6.6112,-6.6112,-6.6112,-6.6112,-6.6112,-6.6112,-6.6237,-6.6538,-6.6641,-6.6966,-6.7239,-6.7249,-6.6853,-6.5855,-6.3988,-6.1088,-5.8959,-5.7314,-5.6132,-5.5021,-5.4635,-5.4227,-5.4023,-5.4023,-5.4023,-5.4023,-5.4023,-5.4023,-5.4023,-5.4023,-5.4023,-5.4023,-5.4023,-5.4023,-5.4023,-5.4023,-5.4023,-5.4023,-5.4023,-5.4023,-5.4023,-5.4023,-5.4023,-5.4023,-5.4023,-5.4023,-5.4023,-5.4023,-5.4023,-5.4023,-5.4023,-5.4023,-5.4023,-5.4023,-5.4023,-5.4023,-5.4023,-5.4023,-5.4023,-5.4023,-5.4023,-5.4023,-5.4023,-5.4023,-5.4023,-5.4023,-5.4023,-5.4023,-5.4023,-5.4023,-5.4023,-5.4023,-5.4023,-5.4023,-5.4023,-5.4023,-5.4043,-5.4023,-5.4023,-5.4062,-5.4077,-5.3519,-5.2939,-5.2723,-5.2458,-5.1967,-5.1623,-5.1678,-6.6112,-6.6112,-6.6112,-6.6112,-6.6112,-6.6112,-6.6112,-6.6112,-6.6112,-6.6112,-6.6112,-6.6112,-6.6112,-6.6112,-6.6112,-6.6112,-6.6112,-6.6112,-6.6112,-6.6112,-6.6112,-6.6112,-6.6112,-6.6112,-6.6112,-6.6112,-6.6112,-6.6112,-6.6112,-6.6112,-6.6112,-6.6187,-6.6187,-6.6463,-6.689,-6.7292,-6.7869,-6.8232,-6.8415,-6.7942,-6.6537,-6.4081,-6.14,-5.9451,-5.8189,-5.6815,-5.5628,-5.5142,-5.4736,-5.4329,-5.4227,-5.4125,-5.4023,-5.4023,-5.4023,-5.4023,-5.4023,-5.4023,-5.4023,-5.4023,-5.4023,-5.4023,-5.4023,-5.4023,-5.4023,-5.4023,-5.4023,-5.4023,-5.4023,-5.4023,-5.4023,-5.4023,-5.4023,-5.4023,-5.4023,-5.4023,-5.4023,-5.4023,-5.4023,-5.4023,-5.4023,-5.4023,-5.4023,-5.4023,-5.4023,-5.4023,-5.4023,-5.4023,-5.4023,-5.4023,-5.4023,-5.4023,-5.4023,-5.4023,-5.4023,-5.4023,-5.4023,-5.4023,-5.4023,-5.4023,-5.4023,-5.4023,-5.4023,-5.4023,-5.4023,-5.4023,-5.4023,-5.3921,-5.3384,-5.2992,-5.2626,-5.2082,-5.151,-5.122,-5.1257,-6.6112,-6.6112,-6.6112,-6.6112,-6.6112,-6.6112,-6.6112,-6.6112,-6.6112,-6.6112,-6.6112,-6.6112,-6.6112,-6.6112,-6.6112,-6.6112,-6.6112,-6.6112,-6.6112,-6.6112,-6.6112,-6.6112,-6.6112,-6.6112,-6.6112,-6.6112,-6.6112,-6.6112,-6.6112,-6.6112,-6.6162,-6.6237,-6.6589,-6.6965,-6.7241,-6.7844,-6.8472,-6.8698,-6.901,-6.8536,-6.7095,-6.4954,-6.3058,-6.14,-5.9668,-5.799,-5.6815,-5.6031,-5.5325,-5.4736,-5.4736,-5.4431,-5.4125,-5.4023,-5.4023,-5.4023,-5.4023,-5.4023,-5.4023,-5.4023,-5.4023,-5.4023,-5.4023,-5.4023,-5.4023,-5.4023,-5.4023,-5.4023,-5.4023,-5.4023,-5.4023,-5.4023,-5.4023,-5.4023,-5.4023,-5.4023,-5.4023,-5.4023,-5.4023,-5.4023,-5.4023,-5.4023,-5.4023,-5.4023,-5.4023,-5.4023,-5.4023,-5.4023,-5.4023,-5.4023,-5.4023,-5.4023,-5.4023,-5.4023,-5.4023,-5.4023,-5.4023,-5.4023,-5.4023,-5.4023,-5.4023,-5.4023,-5.4023,-5.4023,-5.4023,-5.4023,-5.4023,-5.3819,-5.341,-5.2999,-5.2485,-5.1762,-5.097,-5.0817,-5.0927,-6.6112,-6.6112,-6.6112,-6.6112,-6.6112,-6.6112,-6.6112,-6.6112,-6.6112,-6.6112,-6.6112,-6.6112,-6.6112,-6.6112,-6.6112,-6.6112,-6.6112,-6.6112,-6.6112,-6.6112,-6.6112,-6.6112,-6.6112,-6.6112,-6.6112,-6.6112,-6.6112,-6.6112,-6.6112,-6.6162,-6.6237,-6.6614,-6.689,-6.7367,-6.7719,-6.8346,-6.8773,-6.8985,-6.8964,-6.8337,-6.712,-6.5516,-6.3915,-6.2387,-6.0646,-5.9177,-5.7792,-5.6915,-5.6011,-5.5426,-5.5041,-5.4736,-5.4431,-5.4227,-5.4023,-5.4023,-5.4023,-5.4023,-5.4023,-5.4023,-5.4023,-5.4023,-5.4023,-5.4023,-5.4023,-5.4023,-5.4023,-5.4023,-5.4023,-5.4023,-5.4023,-5.4023,-5.4023,-5.4023,-5.4023,-5.4023,-5.4023,-5.4023,-5.4023,-5.4023,-5.4023,-5.4023,-5.4023,-5.4023,-5.4023,-5.4023,-5.4023,-5.4023,-5.4023,-5.4023,-5.4023,-5.4023,-5.4023,-5.4023,-5.4023,-5.4023,-5.4023,-5.4023,-5.4023,-5.4023,-5.4023,-5.4023,-5.4023,-5.4023,-5.4023,-5.4023,-5.4023,-5.3819,-5.3512,-5.2999,-5.2382,-5.1659,-5.1037,-5.0725,-5.0798,-6.6112,-6.6112,-6.6112,-6.6112,-6.6112,-6.6112,-6.6112,-6.6112,-6.6112,-6.6112,-6.6112,-6.6112,-6.6112,-6.6112,-6.6112,-6.6112,-6.6112,-6.6112,-6.6112,-6.6112,-6.6112,-6.6112,-6.6112,-6.6112,-6.6112,-6.6112,-6.6112,-6.6237,-6.6338,-6.6388,-6.6614,-6.699,-6.7392,-6.7819,-6.8422,-6.8798,-6.9074,-6.926,-6.8974,-6.8337,-6.7304,-6.61,-6.4695,-6.3176,-6.1735,-6.0278,-5.8783,-5.7912,-5.7115,-5.6132,-5.5325,-5.5021,-5.4716,-5.4227,-5.4023,-5.4023,-5.4023,-5.4023,-5.4023,-5.4023,-5.4023,-5.4023,-5.4023,-5.4023,-5.4023,-5.4023,-5.4023,-5.4023,-5.4023,-5.4023,-5.4023,-5.4023,-5.4023,-5.4023,-5.4023,-5.4023,-5.4023,-5.4023,-5.4023,-5.4023,-5.4023,-5.4023,-5.4023,-5.4023,-5.4023,-5.4023,-5.4023,-5.4023,-5.4023,-5.4023,-5.4023,-5.4023,-5.4023,-5.4023,-5.4023,-5.4023,-5.4023,-5.4023,-5.4023,-5.4023,-5.4023,-5.4023,-5.4023,-5.4023,-5.4023,-5.4023,-5.4023,-5.3921,-5.3717,-5.2999,-5.2279,-5.1762,-5.1244,-5.0933,-5.0725,-6.6112,-6.6112,-6.6112,-6.6112,-6.6112,-6.6112,-6.6112,-6.6112,-6.6112,-6.6112,-6.6112,-6.6112,-6.6112,-6.6112,-6.6112,-6.6112,-6.6112,-6.6112,-6.6112,-6.6112,-6.6112,-6.6112,-6.6112,-6.6112,-6.6112,-6.6112,-6.6212,-6.6513,-6.6815,-6.699,-6.699,-6.7066,-6.7869,-6.8371,-6.8773,-6.91,-6.925,-6.9361,-6.8999,-6.8544,-6.7788,-6.6843,-6.5634,-6.4317,-6.3081,-6.1832,-6.0278,-5.9297,-5.8231,-5.7135,-5.6132,-5.5325,-5.4919,-5.4431,-5.4125,-5.4023,-5.4023,-5.4023,-5.4023,-5.4023,-5.4023,-5.4023,-5.4023,-5.4023,-5.4023,-5.4023,-5.4023,-5.4023,-5.4023,-5.4023,-5.4023,-5.4023,-5.4023,-5.4023,-5.4023,-5.4023,-5.4023,-5.4023,-5.4023,-5.4023,-5.4023,-5.4023,-5.4023,-5.4023,-5.4023,-5.4023,-5.4023,-5.4023,-5.4023,-5.4023,-5.4023,-5.4023,-5.4023,-5.4023,-5.4023,-5.4023,-5.4023,-5.4023,-5.4023,-5.4023,-5.4023,-5.4023,-5.4023,-5.4023,-5.4023,-5.4023,-5.4023,-5.3921,-5.3615,-5.2794,-5.2176,-5.1762,-5.1244,-5.0829,-5.0725,-6.6112,-6.6112,-6.6112,-6.6112,-6.6112,-6.6112,-6.6112,-6.6112,-6.6112,-6.6112,-6.6112,-6.6112,-6.6112,-6.6112,-6.6112,-6.6112,-6.6112,-6.6112,-6.6112,-6.6112,-6.6112,-6.6112,-6.6112,-6.6112,-6.6112,-6.6212,-6.6438,-6.6689,-6.6965,-6.7543,-6.7919,-6.8196,-6.8472,-6.8798,-6.9125,-6.93,-6.9401,-6.9361,-6.918,-6.8908,-6.8362,-6.7513,-6.6472,-6.5634,-6.4222,-6.3081,-6.1832,-6.0765,-5.9592,-5.8309,-5.7115,-5.6132,-5.5325,-5.4736,-5.4329,-5.4023,-5.4023,-5.4023,-5.4023,-5.4023,-5.4023,-5.4023,-5.4023,-5.4023,-5.4023,-5.4023,-5.4023,-5.4023,-5.4023,-5.4023,-5.4023,-5.4023,-5.4023,-5.4023,-5.4023,-5.4023,-5.4023,-5.4023,-5.4023,-5.4023,-5.4023,-5.4023,-5.4023,-5.4023,-5.4023,-5.4023,-5.4023,-5.4023,-5.4023,-5.4023,-5.4023,-5.4023,-5.4023,-5.4023,-5.4023,-5.4023,-5.4023,-5.4023,-5.4023,-5.4023,-5.4023,-5.4023,-5.4023,-5.4023,-5.4023,-5.4023,-5.4023,-5.4023,-5.3615,-5.2897,-5.2382,-5.1866,-5.1348,-5.0725,-5.0725,-6.6112,-6.6112,-6.6112,-6.6112,-6.6112,-6.6112,-6.6112,-6.6112,-6.6112,-6.6112,-6.6112,-6.6112,-6.6112,-6.6112,-6.6112,-6.6112,-6.6112,-6.6112,-6.6112,-6.6112,-6.6112,-6.6112,-6.6112,-6.6137,-6.6212,-6.6388,-6.6714,-6.7041,-6.7618,-6.8296,-6.8597,-6.8748,-6.8899,-6.915,-6.93,-6.9451,-6.9451,-6.9451,-6.9361,-6.918,-6.8635,-6.8063,-6.712,-6.6496,-6.5353,-6.4222,-6.2985,-6.1735,-6.0451,-5.91,-5.7834,-5.6735,-5.583,-5.5122,-5.4533,-5.4227,-5.4023,-5.4023,-5.4023,-5.4023,-5.4023,-5.4023,-5.4023,-5.4023,-5.4023,-5.4023,-5.4023,-5.4023,-5.4023,-5.4023,-5.4023,-5.4023,-5.4023,-5.4023,-5.4023,-5.4023,-5.4023,-5.4023,-5.4023,-5.4023,-5.4023,-5.4023,-5.4023,-5.4023,-5.4023,-5.4023,-5.4023,-5.4023,-5.4023,-5.4023,-5.4023,-5.4023,-5.4023,-5.4023,-5.4023,-5.4023,-5.4023,-5.4023,-5.4023,-5.4023,-5.4023,-5.4023,-5.4023,-5.4023,-5.4023,-5.4023,-5.4023,-5.3921,-5.3615,-5.2999,-5.2382,-5.1555,-5.1244,-5.0725,-5.0725,-6.6112,-6.6112,-6.6112,-6.6112,-6.6112,-6.6112,-6.6112,-6.6112,-6.6112,-6.6112,-6.6112,-6.6112,-6.6112,-6.6112,-6.6112,-6.6112,-6.6112,-6.6112,-6.6112,-6.6112,-6.6112,-6.6112,-6.6162,-6.6212,-6.6463,-6.6865,-6.7216,-6.7719,-6.8422,-6.8648,-6.8974,-6.9225,-6.9275,-6.9351,-6.9426,-6.9451,-6.9451,-6.9451,-6.9451,-6.918,-6.8817,-6.8544,-6.7788,-6.7052,-6.6403,-6.5353,-6.4127,-6.2771,-6.1519,-5.9962,-5.8408,-5.7115,-5.5931,-5.5224,-5.4635,-5.4023,-5.4023,-5.4023,-5.4023,-5.4023,-5.4023,-5.4023,-5.4023,-5.4023,-5.4023,-5.4023,-5.4023,-5.4023,-5.4023,-5.4023,-5.4023,-5.4023,-5.4023,-5.4023,-5.4023,-5.4023,-5.4023,-5.4023,-5.4023,-5.4023,-5.4023,-5.4023,-5.4023,-5.4023,-5.4023,-5.4023,-5.4023,-5.4023,-5.4043,-5.4023,-5.4023,-5.4023,-5.4023,-5.4023,-5.4023,-5.4023,-5.4023,-5.4023,-5.4023,-5.4023,-5.4023,-5.4023,-5.4023,-5.4023,-5.4023,-5.4023,-5.3921,-5.3921,-5.3307,-5.2466,-5.164,-5.1018,-5.0829,-5.0725,-5.0725,-6.6112,-6.6112,-6.6112,-6.6112,-6.6112,-6.6112,-6.6112,-6.6112,-6.6112,-6.6112,-6.6112,-6.6112,-6.6112,-6.6112,-6.6112,-6.6112,-6.6112,-6.6112,-6.6112,-6.6112,-6.6137,-6.6112,-6.6212,-6.6538,-6.6815,-6.7141,-6.7568,-6.8095,-6.8597,-6.8899,-6.9175,-6.9336,-6.9451,-6.9451,-6.9451,-6.9451,-6.9451,-6.9451,-6.9361,-6.927,-6.918,-6.8817,-6.8453,-6.788,-6.7328,-6.6379,-6.5259,-6.3915,-6.2483,-6.1035,-5.9374,-5.7912,-5.6434,-5.5628,-5.4919,-5.4227,-5.4023,-5.4023,-5.4023,-5.4023,-5.4023,-5.4023,-5.4023,-5.4023,-5.4023,-5.4023,-5.4023,-5.4023,-5.4023,-5.4023,-5.4023,-5.4023,-5.4023,-5.4023,-5.4023,-5.4023,-5.4023,-5.4023,-5.4023,-5.4023,-5.4023,-5.4023,-5.4023,-5.4141,-5.418,-5.4199,-5.4219,-5.4141,-5.4121,-5.4062,-5.4043,-5.4023,-5.4023,-5.4023,-5.4023,-5.4062,-5.4043,-5.4023,-5.4023,-5.4023,-5.4023,-5.4023,-5.4023,-5.4023,-5.4023,-5.4023,-5.3819,-5.3512,-5.2672,-5.1847,-5.133,-5.0914,-5.0725,-5.0725,-5.0725,-6.6112,-6.6112,-6.6112,-6.6112,-6.6112,-6.6112,-6.6112,-6.6112,-6.6112,-6.6112,-6.6112,-6.6112,-6.6112,-6.6112,-6.6112,-6.6112,-6.6112,-6.6112,-6.6112,-6.6137,-6.6363,-6.6438,-6.6639,-6.699,-6.7392,-6.7668,-6.8145,-6.8698,-6.8974,-6.9275,-6.9426,-6.9336,-6.9451,-6.9451,-6.9451,-6.9451,-6.9451,-6.9451,-6.9361,-6.9361,-6.927,-6.9089,-6.8908,-6.8453,-6.788,-6.712,-6.6193,-6.5071,-6.3535,-6.2002,-6.0353,-5.8705,-5.7135,-5.5931,-5.5224,-5.4533,-5.4023,-5.4023,-5.4023,-5.4023,-5.4023,-5.4023,-5.4023,-5.4023,-5.4023,-5.4023,-5.4023,-5.4023,-5.4023,-5.4023,-5.4023,-5.4023,-5.4023,-5.4023,-5.4023,-5.4023,-5.4023,-5.4023,-5.4062,-5.4043,-5.4101,-5.4082,-5.4121,-5.4238,-5.4355,-5.4375,-5.4414,-5.4355,-5.4316,-5.4336,-5.4336,-5.4355,-5.4297,-5.4297,-5.4238,-5.4101,-5.4082,-5.4043,-5.4023,-5.4023,-5.4023,-5.4023,-5.4023,-5.4023,-5.4023,-5.3921,-5.3512,-5.3102,-5.2363,-5.1744,-5.133,-5.0914,-5.0725,-5.0725,-5.0725,-6.6112,-6.6112,-6.6112,-6.6112,-6.6112,-6.6112,-6.6112,-6.6112,-6.6112,-6.6112,-6.6112,-6.6112,-6.6112,-6.6112,-6.6112,-6.6112,-6.6187,-6.6162,-6.6237,-6.6388,-6.6764,-6.6915,-6.7191,-6.7568,-6.7945,-6.8371,-6.8748,-6.9024,-6.9376,-6.9426,-6.9426,-6.9451,-6.9451,-6.9451,-6.9451,-6.9451,-6.9451,-6.9451,-6.9451,-6.9451,-6.9361,-6.9361,-6.9089,-6.8792,-6.8246,-6.758,-6.6565,-6.5259,-6.3725,-6.2195,-6.057,-5.9001,-5.7535,-5.6233,-5.5527,-5.4838,-5.4329,-5.4023,-5.4023,-5.4023,-5.4023,-5.4023,-5.4023,-5.4023,-5.4023,-5.4023,-5.4023,-5.4023,-5.4023,-5.4023,-5.4023,-5.4023,-5.4023,-5.4023,-5.4023,-5.4023,-5.4023,-5.4043,-5.4082,-5.4141,-5.4238,-5.4297,-5.4394,-5.4492,-5.4707,-5.4785,-5.4883,-5.5,-5.4961,-5.4941,-5.4941,-5.4941,-5.4844,-5.4668,-5.4531,-5.4336,-5.4141,-5.4082,-5.4043,-5.4023,-5.4023,-5.4023,-5.4023,-5.4023,-5.4023,-5.3717,-5.3205,-5.2691,-5.2176,-5.164,-5.1122,-5.0914,-5.0725,-5.0725,-5.0725,-6.6112,-6.6112,-6.6112,-6.6112,-6.6112,-6.6112,-6.6112,-6.6112,-6.6112,-6.6112,-6.6112,-6.6112,-6.6112,-6.6112,-6.6112,-6.6137,-6.6287,-6.6488,-6.6689,-6.694,-6.7292,-6.7493,-6.7769,-6.8095,-6.8447,-6.8723,-6.8999,-6.925,-6.9376,-6.9451,-6.9451,-6.9451,-6.9451,-6.9451,-6.9451,-6.9451,-6.9451,-6.9451,-6.9451,-6.9451,-6.9451,-6.9451,-6.9245,-6.9089,-6.8726,-6.8063,-6.7212,-6.6007,-6.4577,-6.3439,-6.1638,-5.9984,-5.8507,-5.7314,-5.6333,-5.4919,-5.4329,-5.4023,-5.4023,-5.4023,-5.4023,-5.4023,-5.4023,-5.4023,-5.4023,-5.4023,-5.4023,-5.4023,-5.4023,-5.4023,-5.4023,-5.4023,-5.4023,-5.4023,-5.4043,-5.4062,-5.4082,-5.416,-5.4219,-5.4492,-5.459,-5.4707,-5.4785,-5.4941,-5.5156,-5.5254,-5.5371,-5.5527,-5.5586,-5.5547,-5.5508,-5.5508,-5.5312,-5.5117,-5.4805,-5.459,-5.4336,-5.4141,-5.4082,-5.4043,-5.4023,-5.4023,-5.4023,-5.4023,-5.4023,-5.341,-5.2691,-5.2382,-5.2176,-5.133,-5.081,-5.0725,-5.0725,-5.0725,-5.0725,-6.6112,-6.6112,-6.6112,-6.6112,-6.6112,-6.6112,-6.6112,-6.6112,-6.6112,-6.6112,-6.6112,-6.6112,-6.6112,-6.6162,-6.6363,-6.6488,-6.6538,-6.7041,-6.7292,-6.7442,-6.7869,-6.8045,-6.8321,-6.8622,-6.8899,-6.91,-6.92,-6.9401,-6.9451,-6.9451,-6.9451,-6.9451,-6.9451,-6.9451,-6.9451,-6.9451,-6.9451,-6.9451,-6.9451,-6.9451,-6.9451,-6.9451,-6.9451,-6.927,-6.8908,-6.8519,-6.7971,-6.6658,-6.554,-6.4317,-6.2506,-6.1057,-5.9472,-5.8111,-5.6434,-5.5122,-5.4635,-5.4227,-5.4023,-5.4023,-5.4023,-5.4023,-5.4023,-5.4023,-5.4023,-5.4023,-5.4023,-5.4023,-5.4023,-5.4023,-5.4023,-5.4023,-5.4023,-5.4023,-5.4062,-5.4121,-5.4199,-5.4297,-5.4551,-5.4883,-5.5058,-5.5176,-5.5312,-5.5469,-5.5586,-5.5664,-5.584,-5.6074,-5.6113,-5.6074,-5.6055,-5.6035,-5.5762,-5.5488,-5.5195,-5.4863,-5.457,-5.4316,-5.4121,-5.4082,-5.4043,-5.4023,-5.4023,-5.4023,-5.4023,-5.3307,-5.2691,-5.2382,-5.2176,-5.1348,-5.0725,-5.0725,-5.0725,-5.0725,-5.0725,-6.6112,-6.6112,-6.6112,-6.6112,-6.6112,-6.6112,-6.6112,-6.6112,-6.6112,-6.6112,-6.6112,-6.6112,-6.6162,-6.6363,-6.6664,-6.694,-6.7166,-6.7593,-6.7869,-6.7894,-6.8422,-6.8673,-6.8823,-6.915,-6.925,-6.9376,-6.9451,-6.9451,-6.9451,-6.9451,-6.9451,-6.9451,-6.9451,-6.9451,-6.9451,-6.9451,-6.9451,-6.9451,-6.9451,-6.9451,-6.9451,-6.9451,-6.9361,-6.9361,-6.8999,-6.8544,-6.788,-6.6935,-6.582,-6.4506,-6.3272,-6.2025,-6.018,-5.8309,-5.6514,-5.5426,-5.4939,-5.4431,-5.4125,-5.4023,-5.4023,-5.4023,-5.4023,-5.4023,-5.4023,-5.4023,-5.4023,-5.4023,-5.4023,-5.4023,-5.4023,-5.4023,-5.4023,-5.4101,-5.418,-5.4297,-5.4433,-5.4668,-5.5078,-5.5371,-5.5586,-5.5703,-5.5762,-5.5898,-5.5996,-5.6074,-5.6191,-5.6445,-5.6484,-5.6445,-5.6426,-5.6406,-5.6191,-5.5879,-5.5586,-5.5254,-5.4844,-5.4551,-5.4277,-5.4082,-5.4043,-5.4023,-5.4023,-5.4023,-5.3921,-5.3307,-5.2794,-5.2485,-5.2073,-5.1141,-5.0725,-5.0725,-5.0725,-5.0725,-5.0725,-6.6112,-6.6112,-6.6112,-6.6112,-6.6112,-6.6112,-6.6112,-6.6112,-6.6112,-6.6137,-6.6112,-6.6162,-6.6388,-6.6789,-6.699,-6.7267,-6.7693,-6.8145,-6.8371,-6.8572,-6.8974,-6.91,-6.92,-6.9325,-6.9451,-6.9451,-6.9451,-6.9451,-6.9451,-6.9451,-6.9451,-6.9451,-6.9451,-6.9451,-6.9451,-6.9451,-6.9451,-6.9451,-6.9451,-6.9451,-6.9451,-6.9451,-6.9361,-6.9361,-6.918,-6.8726,-6.8154,-6.7396,-6.6496,-6.547,-6.4056,-6.241,-6.0473,-5.8408,-5.7015,-5.6031,-5.5325,-5.4736,-5.4227,-5.4023,-5.4023,-5.4023,-5.4023,-5.4023,-5.4023,-5.4023,-5.4023,-5.4023,-5.4023,-5.4023,-5.4043,-5.4043,-5.4082,-5.4199,-5.4336,-5.4531,-5.4726,-5.5176,-5.5625,-5.584,-5.6074,-5.6152,-5.6211,-5.6289,-5.6387,-5.6445,-5.6465,-5.6562,-5.6562,-5.6523,-5.6523,-5.6504,-5.6523,-5.6269,-5.5976,-5.5547,-5.5078,-5.4668,-5.4336,-5.418,-5.4043,-5.4023,-5.4023,-5.4023,-5.3819,-5.3307,-5.2897,-5.2485,-5.1969,-5.1037,-5.0725,-5.0725,-5.0725,-5.0725,-5.0725,-6.6112,-6.6112,-6.6112,-6.6112,-6.6112,-6.6112,-6.6262,-6.6463,-6.6488,-6.6639,-6.6789,-6.6664,-6.6815,-6.7367,-6.7568,-6.7769,-6.8246,-6.8723,-6.8924,-6.9125,-6.9225,-6.9351,-6.9451,-6.9451,-6.9451,-6.9451,-6.9451,-6.9451,-6.9451,-6.9451,-6.9451,-6.9451,-6.9451,-6.9451,-6.9451,-6.9451,-6.9451,-6.9451,-6.9451,-6.9451,-6.9451,-6.9451,-6.9451,-6.9451,-6.927,-6.8817,-6.8246,-6.758,-6.6867,-6.5751,-6.4245,-6.2912,-6.1251,-5.969,-5.8111,-5.6915,-5.6031,-5.5122,-5.4533,-5.4125,-5.4023,-5.4023,-5.4023,-5.4023,-5.4023,-5.4023,-5.4023,-5.4023,-5.4023,-5.4023,-5.4141,-5.416,-5.4336,-5.4473,-5.4765,-5.5039,-5.5371,-5.5801,-5.6074,-5.623,-5.6367,-5.6406,-5.6426,-5.6426,-5.6523,-5.6523,-5.6582,-5.6582,-5.6582,-5.6582,-5.6582,-5.6582,-5.6582,-5.6562,-5.6328,-5.5801,-5.5234,-5.4824,-5.4433,-5.4199,-5.4023,-5.4023,-5.4023,-5.4023,-5.3819,-5.341,-5.2999,-5.2485,-5.1866,-5.0914,-5.0725,-5.0725,-5.0725,-5.0725,-5.0725,-6.6112,-6.6112,-6.6112,-6.6112,-6.6137,-6.6212,-6.6513,-6.6915,-6.7066,-6.7392,-6.7769,-6.7392,-6.7518,-6.7945,-6.8346,-6.8572,-6.8823,-6.9125,-6.9351,-6.9376,-6.9401,-6.9451,-6.9451,-6.9451,-6.9451,-6.9451,-6.9451,-6.9451,-6.9451,-6.9451,-6.9451,-6.9451,-6.9451,-6.9451,-6.9451,-6.9451,-6.9451,-6.9451,-6.9451,-6.9451,-6.9451,-6.9451,-6.9451,-6.9451,-6.9361,-6.8908,-6.8337,-6.7788,-6.7144,-6.5938,-6.4529,-6.3294,-6.2025,-6.0765,-5.9198,-5.7813,-5.6835,-5.583,-5.5021,-5.4431,-5.4227,-5.4023,-5.4023,-5.4023,-5.4023,-5.4023,-5.4023,-5.4023,-5.4023,-5.4121,-5.4238,-5.4375,-5.4551,-5.4844,-5.5195,-5.5527,-5.5957,-5.6308,-5.6426,-5.6543,-5.6562,-5.6582,-5.6582,-5.6582,-5.6582,-5.6582,-5.6582,-5.6582,-5.6582,-5.6582,-5.6582,-5.6582,-5.6582,-5.6543,-5.6504,-5.5937,-5.5273,-5.5,-5.4609,-5.4277,-5.4023,-5.4023,-5.4023,-5.3921,-5.3717,-5.3307,-5.2794,-5.2279,-5.1537,-5.081,-5.0725,-5.0725,-5.0725,-5.0725,-5.0725,-6.6112,-6.6112,-6.6112,-6.6112,-6.6187,-6.6614,-6.689,-6.7041,-6.7467,-6.7945,-6.8321,-6.8396,-6.8422,-6.8472,-6.8522,-6.8773,-6.9175,-6.9426,-6.9426,-6.9426,-6.9451,-6.9451,-6.9451,-6.9451,-6.9451,-6.9451,-6.9451,-6.9451,-6.9451,-6.9451,-6.9451,-6.9451,-6.9451,-6.9451,-6.9451,-6.9451,-6.9451,-6.9451,-6.9451,-6.9451,-6.9451,-6.9451,-6.9451,-6.9451,-6.9361,-6.8792,-6.8246,-6.8063,-6.7328,-6.631,-6.4977,-6.3961,-6.2816,-6.1542,-6.0082,-5.8804,-5.7713,-5.6534,-5.5628,-5.4838,-5.4533,-5.4125,-5.4125,-5.4023,-5.4023,-5.4023,-5.4023,-5.4043,-5.4101,-5.4297,-5.4433,-5.459,-5.4785,-5.5234,-5.5625,-5.5957,-5.6348,-5.6445,-5.6543,-5.6582,-5.6582,-5.6582,-5.6582,-5.6582,-5.6582,-5.6582,-5.6582,-5.6582,-5.6582,-5.6582,-5.6582,-5.6582,-5.6582,-5.6582,-5.6543,-5.584,-5.5254,-5.5019,-5.4707,-5.4277,-5.4023,-5.4023,-5.4023,-5.3921,-5.3615,-5.3083,-5.2569,-5.2176,-5.1433,-5.0914,-5.0706,-5.0725,-5.0725,-5.0725,-5.0725]},{"header":{"parameterUnit":"m.s-1","parameterCategory":1,"la1":31.0,"la2":29.5877,"lo1":-88.7671,"lo2":-86.6584,"dy":0.0162,"dx":0.0185,"nx":115,"ny":88,"refTime":"2024-03-20T00:00:00:Z","depth":0,"parameterNumber":3,"parameterNumberName":"V-component_of_WINDS"},"data":[0.0,0.0,0.0,0.0,0.0,0.0,0.0,0.0,0.0,0.0,0.0,0.0,0.0,0.0,0.0,0.0,0.0,0.0,0.0,0.0,0.0,0.0,0.0,0.0,0.0,0.0,0.0,0.0,0.0,0.0,0.0,0.0,0.0,0.0,0.0,0.0,0.0,0.0,0.0,0.0,0.0,0.0,0.0,0.0,0.0,0.0,0.0,0.0,0.0,0.0,0.0,0.0,0.0,0.0,0.0,0.0,0.0,0.0,0.0,0.0,0.0,0.0,0.0,0.0,0.0,0.0,0.0,0.0,0.0,0.0,0.0,0.0,0.0,0.0,0.0,0.0,0.0,0.0,0.0,0.0,0.0,0.0,0.0,0.0,0.0,0.0,0.0,0.0,0.0,0.0,0.0,0.0,0.0,0.0,0.0,0.0,0.0,0.0,0.0,0.0,0.0,0.0,0.0,0.0,0.0,0.0,0.0,0.0,0.0,0.0,0.0,0.0,0.0,0.0,0.0,0.0,0.0,0.0,0.0,0.0,0.0,0.0,0.0,0.0,0.0,0.0,0.0,0.0,0.0,0.0,0.0,0.0,0.0,0.0,0.0,0.0,0.0,0.0,0.0,0.0,0.0,0.0,0.0,0.0,0.0,0.0,0.0,0.0,0.0,0.0,0.0,0.0,0.0,0.0,0.0,0.0,0.0,0.0,0.0,0.0,0.0,0.0,0.0,0.0,0.0,0.0,0.0,0.0,0.0,0.0,0.0,0.0,0.0,0.0,0.0,0.0,0.0,0.0,0.0,0.0,0.0,0.0,0.0,0.0,0.0,0.0,0.0,0.0,0.0,0.0,0.0,0.0,0.0,0.0,0.0,0.0,0.0,0.0,0.0,0.0,0.0,0.0,0.0,0.0,0.0,0.0,0.0,0.0,0.0,0.0,0.0,0.0,0.0,0.0,0.0,0.0,0.0,0.0,0.0,0.0,0.0,0.0,0.0,0.0,0.0,0.0,0.0,0.0,0.0,0.0,0.0,0.0,0.0,0.0,0.0,0.0,0.0,0.0,0.0,0.0,0.0,0.0,0.0,0.0,0.0,0.0,0.0,0.0,0.0,0.0,0.0,0.0,0.0,0.0,0.0,0.0,0.0,0.0,0.0,0.0,0.0,0.0,0.0,0.0,0.0,0.0,0.0,0.0,0.0,0.0,0.0,0.0,0.0,0.0,0.0,0.0,0.0,0.0,0.0,0.0,0.0,0.0,0.0,0.0,0.0,0.0,0.0,0.0,0.0,0.0,0.0,0.0,0.0,0.0,0.0,0.0,0.0,0.0,0.0,0.0,0.0,0.0,0.0,0.0,0.0,0.0,0.0,0.0,0.0,0.0,0.0,0.0,0.0,0.0,0.0,0.0,0.0,0.0,0.0,0.0,0.0,0.0,0.0,0.0,0.0,0.0,0.0,0.0,0.0,0.0,0.0,0.0,0.0,0.0,0.0,0.0,0.0,0.0,0.0,0.0,0.0,0.0,0.0,0.0,0.0,0.0,0.0,0.0,0.0,0.0,0.0,0.0,0.0,0.0,0.0,0.0,0.0,0.0,0.0,0.0,0.0,0.0,0.0,0.0,0.0,0.0,0.0,0.0,0.0,0.0,0.0,0.0,0.0,0.0,0.0,0.0,0.0,0.0,0.0,0.0,0.0,0.0,0.0,0.0,0.0,0.0,0.0,0.0,0.0,0.0,0.0,0.0,0.0,0.0,0.0,0.0,0.0,0.0,0.0,0.0,0.0,0.0,0.0,0.0,0.0,0.0,0.0,0.0,0.0,0.0,0.0,0.0,0.0,0.0,0.0,0.0,0.0,0.0,0.0,0.0,0.0,0.0,0.0,0.0,0.0,0.0,0.0,0.0,0.0,0.0,0.0,0.0,0.0,0.0,0.0,0.0,0.0,0.0,0.0,0.0,0.0,0.0,0.0,0.0,0.0,0.0,0.0,0.0,0.0,0.0,0.0,0.0,0.0,0.0,0.0,0.0,0.0,0.0,0.0,0.0,0.0,0.0,0.0,0.0,0.0,0.0,0.0,0.0,0.0,0.0,0.0,0.0,0.0,0.0,0.0,0.0,0.0,0.0,0.0,0.0,0.0,0.0,0.0,0.0,0.0,0.0,0.0,0.0,0.0,0.0,0.0,0.0,0.0,0.0,0.0,0.0,0.0,0.0,0.0,0.0,0.0,0.0,0.0,0.0,0.0,0.0,0.0,0.0,0.0,0.0,0.0,0.0,0.0,0.0,0.0,0.0,0.0,0.0,0.0,0.0,0.0,0.0,0.0,0.0,0.0,0.0,0.0,0.0,0.0,0.0,0.0,0.0,0.0,0.0,0.0,0.0,0.0,0.0,0.0,0.0,0.0,0.0,0.0,0.0,0.0,0.0,0.0,0.0,0.0,0.0,0.0,0.0,0.0,0.0,0.0,0.0,0.0,0.0,0.0,0.0,0.0,0.0,0.0,0.0,0.0,0.0,0.0,0.0,0.0,0.0,0.0,0.0,0.0,0.0,0.0,0.0,0.0,0.0,0.0,0.0,0.0,0.0,0.0,0.0,0.0,0.0,0.0,0.0,0.0,0.0,0.0,0.0,0.0,0.0,0.0,0.0,0.0,0.0,0.0,0.0,0.0,0.0,0.0,0.0,0.0,0.0,0.0,0.0,0.0,0.0,0.0,0.0,0.0,0.0,0.0,0.0,0.0,0.0,0.0,0.0,0.0,0.0,0.0,0.0,0.0,0.0,0.0,0.0,0.0,0.0,0.0,0.0,0.0,0.0,0.0,0.0,0.0,0.0,0.0,0.0,0.0,0.0,0.0,0.0,0.0,0.0,0.0,0.0,0.0,0.0,0.0,0.0,0.0,0.0,0.0,0.0,0.0,0.0,0.0,0.0,0.0,0.0,0.0,0.0,0.0,0.0,0.0,0.0,0.0,0.0,0.0,0.0,0.0,0.0,0.0,0.0,0.0,0.0,0.0,0.0,0.0,0.0,0.0,0.0,0.0,0.0,0.0,0.0,0.0,0.0,0.0,0.0,0.0,0.0,0.0,0.0,0.0,0.0,0.0,0.0,0.0,0.0,0.0,0.0,0.0,0.0,0.0,0.0,0.0,0.0,0.0,0.0,0.0,0.0,0.0,0.0,0.0,0.0,0.0,0.0,0.0,0.0,0.0,0.0,0.0,0.0,0.0,0.0,0.0,0.0,0.0,0.0,0.0,0.0,0.0,0.0,0.0,0.0,0.0,0.0,0.0,0.0,0.0,0.0,0.0,0.0,0.0,0.0,0.0,0.0,0.0,0.0,0.0,0.0,0.0,0.0,0.0,0.0,0.0,0.0,0.0,0.0,0.0,0.0,0.0,0.0,0.0,0.0,0.0,0.0,0.0,0.0,0.0,0.0,0.0,0.0,0.0,0.0,0.0,0.0,0.0,0.0,0.0,0.0,0.0,0.0,0.0,0.0,0.0,0.0,0.0,0.0,0.0,0.0,0.0,0.0,0.0,0.0,0.0,0.0,0.0,0.0,0.0,0.0,0.0,0.0,0.0,0.0,0.0,0.0,0.0,0.0,0.0,0.0,0.0,0.0,0.0,0.0,0.0,0.0,0.0,0.0,0.0,0.0,0.0,0.0,0.0,0.0,0.0,0.0,0.0,0.0,0.0,0.0,0.0,0.0,0.0,0.0,0.0,0.0,0.0,0.0,0.0,0.0,0.0,0.0,0.0,0.0,0.0,0.0,0.0,0.0,0.0,0.0,0.0,0.0,0.0,0.0,0.0,0.0,0.0,0.0,0.0,0.0,0.0,0.0,0.0,0.0,0.0,0.0,0.0,0.0,0.0,0.0,0.0,0.0,0.0,0.0,0.0,0.0,0.0,0.0,0.0,0.0,0.0,0.0,0.0,0.0,0.0,0.0,0.0,0.0,0.0,0.0,0.0,0.0,0.0,0.0,0.0,0.0,0.0,0.0,0.0,0.0,0.0,0.0,0.0,0.0,0.0,0.0,0.0,0.0,0.0,0.0,0.0,0.0,0.0,0.0,0.0,0.0,0.0,0.0,0.0,0.0,0.0,0.0,0.0,0.0,0.0,0.0,0.0,0.0,0.0,0.0,0.0,0.0,0.0,0.0,0.0,0.0,0.0,0.0,0.0,0.0,0.0,0.0,0.0,0.0,0.0,0.0,0.0,0.0,0.0,0.0,0.0,0.0,0.0,0.0,0.0,0.0,0.0,0.0,0.0,0.0,0.0,0.0,4.1209,0.0,0.0,0.0,0.0,0.0,0.0,0.0,0.0,0.0,0.0,0.0,0.0,0.0,0.0,0.0,0.0,0.0,0.0,0.0,0.0,0.0,0.0,0.0,0.0,0.0,0.0,0.0,0.0,0.0,0.0,0.0,0.0,0.0,0.0,0.0,0.0,0.0,0.0,0.0,0.0,0.0,0.0,0.0,0.0,0.0,0.0,0.0,0.0,0.0,0.0,0.0,0.0,0.0,0.0,0.0,0.0,0.0,0.0,0.0,0.0,0.0,0.0,0.0,0.0,0.0,0.0,0.0,0.0,0.0,0.0,0.0,0.0,0.0,0.0,0.0,0.0,0.0,0.0,0.0,0.0,0.0,0.0,0.0,0.0,0.0,0.0,0.0,0.0,0.0,0.0,0.0,0.0,0.0,0.0,0.0,0.0,0.0,0.0,0.0,0.0,0.0,0.0,0.0,0.0,0.0,0.0,0.0,0.0,0.0,0.0,4.0583,4.081,4.0894,4.1012,4.1152,0.0,0.0,0.0,0.0,0.0,0.0,0.0,0.0,0.0,0.0,0.0,0.0,0.0,0.0,0.0,0.0,0.0,0.0,0.0,0.0,0.0,0.0,0.0,0.0,0.0,0.0,0.0,0.0,0.0,0.0,0.0,0.0,0.0,0.0,0.0,0.0,0.0,0.0,0.0,0.0,0.0,0.0,0.0,0.0,0.0,0.0,0.0,0.0,0.0,0.0,0.0,0.0,0.0,0.0,0.0,0.0,0.0,0.0,0.0,0.0,0.0,0.0,0.0,0.0,0.0,0.0,0.0,0.0,0.0,0.0,0.0,0.0,0.0,0.0,0.0,0.0,0.0,0.0,0.0,0.0,0.0,0.0,0.0,0.0,0.0,0.0,0.0,0.0,0.0,0.0,0.0,0.0,0.0,0.0,0.0,0.0,0.0,0.0,0.0,0.0,0.0,0.0,0.0,0.0,0.0,0.0,0.0,0.0,0.0,0.0,0.0,0.0,4.0823,4.0965,4.114,0.0,0.0,0.0,0.0,0.0,0.0,0.0,0.0,0.0,0.0,0.0,0.0,0.0,0.0,0.0,0.0,0.0,0.0,0.0,0.0,0.0,0.0,0.0,0.0,0.0,0.0,0.0,0.0,0.0,0.0,0.0,0.0,0.0,0.0,0.0,0.0,0.0,0.0,0.0,0.0,0.0,0.0,0.0,0.0,0.0,0.0,0.0,0.0,0.0,0.0,0.0,0.0,0.0,0.0,0.0,0.0,0.0,0.0,0.0,0.0,0.0,0.0,0.0,0.0,0.0,0.0,0.0,0.0,0.0,0.0,0.0,0.0,0.0,0.0,0.0,0.0,0.0,0.0,0.0,0.0,0.0,0.0,0.0,0.0,0.0,0.0,0.0,0.0,0.0,0.0,0.0,0.0,0.0,0.0,0.0,0.0,0.0,0.0,0.0,0.0,0.0,0.0,0.0,0.0,0.0,0.0,0.0,0.0,0.0,0.0,4.0631,4.0881,4.0871,0.0,4.1163,0.0,0.0,0.0,0.0,0.0,0.0,0.0,0.0,0.0,0.0,0.0,0.0,0.0,0.0,0.0,0.0,0.0,0.0,0.0,0.0,0.0,0.0,0.0,0.0,0.0,0.0,0.0,0.0,0.0,0.0,0.0,0.0,0.0,0.0,0.0,0.0,0.0,0.0,0.0,0.0,0.0,0.0,0.0,0.0,0.0,0.0,0.0,0.0,0.0,0.0,0.0,0.0,0.0,0.0,0.0,0.0,0.0,0.0,0.0,0.0,0.0,0.0,0.0,0.0,0.0,0.0,0.0,0.0,0.0,0.0,0.0,0.0,0.0,0.0,0.0,0.0,0.0,0.0,0.0,0.0,0.0,0.0,0.0,0.0,0.0,0.0,0.0,0.0,0.0,0.0,0.0,0.0,0.0,0.0,0.0,0.0,0.0,0.0,0.0,0.0,0.0,0.0,0.0,0.0,0.0,0.0,0.0,0.0,0.0,0.0,4.0583,4.0786,4.0847,4.0989,0.0,0.0,0.0,0.0,0.0,0.0,0.0,0.0,0.0,0.0,0.0,0.0,0.0,0.0,0.0,0.0,0.0,0.0,0.0,0.0,0.0,0.0,0.0,0.0,0.0,0.0,0.0,0.0,0.0,0.0,0.0,0.0,0.0,0.0,0.0,0.0,0.0,0.0,0.0,0.0,0.0,0.0,0.0,0.0,0.0,0.0,0.0,0.0,0.0,0.0,0.0,0.0,0.0,0.0,0.0,0.0,0.0,0.0,0.0,0.0,0.0,0.0,0.0,0.0,0.0,0.0,0.0,0.0,0.0,0.0,0.0,0.0,0.0,0.0,0.0,0.0,0.0,0.0,0.0,0.0,0.0,0.0,0.0,0.0,0.0,0.0,0.0,0.0,0.0,0.0,0.0,0.0,0.0,0.0,0.0,0.0,0.0,0.0,0.0,0.0,0.0,0.0,0.0,0.0,0.0,0.0,0.0,0.0,0.0,0.0,4.0768,4.0994,4.1346,4.1261,4.13,4.1522,0.0,0.0,0.0,0.0,0.0,0.0,0.0,0.0,0.0,0.0,0.0,0.0,0.0,0.0,0.0,0.0,0.0,0.0,0.0,0.0,0.0,0.0,0.0,0.0,0.0,0.0,0.0,0.0,0.0,0.0,0.0,0.0,0.0,0.0,0.0,0.0,0.0,0.0,0.0,0.0,0.0,0.0,0.0,0.0,0.0,0.0,0.0,0.0,0.0,0.0,0.0,0.0,0.0,0.0,0.0,0.0,0.0,0.0,0.0,0.0,0.0,0.0,0.0,0.0,0.0,0.0,0.0,0.0,0.0,0.0,0.0,0.0,0.0,0.0,0.0,0.0,0.0,0.0,0.0,0.0,0.0,0.0,0.0,0.0,0.0,0.0,0.0,0.0,0.0,0.0,0.0,0.0,0.0,0.0,0.0,0.0,0.0,0.0,0.0,0.0,0.0,0.0,0.0,0.0,0.0,0.0,0.0,0.0,4.1476,4.1569,4.2037,4.3009,4.2344,4.2085,0.0,0.0,0.0,0.0,0.0,0.0,0.0,0.0,0.0,0.0,0.0,0.0,0.0,0.0,0.0,0.0,0.0,0.0,0.0,0.0,0.0,0.0,0.0,0.0,0.0,0.0,0.0,0.0,0.0,0.0,0.0,0.0,0.0,0.0,0.0,0.0,0.0,0.0,0.0,0.0,0.0,0.0,0.0,0.0,0.0,0.0,0.0,0.0,0.0,0.0,0.0,0.0,0.0,0.0,0.0,0.0,0.0,0.0,0.0,0.0,0.0,0.0,0.0,0.0,0.0,0.0,0.0,0.0,0.0,0.0,0.0,0.0,0.0,0.0,0.0,0.0,0.0,0.0,0.0,0.0,0.0,0.0,0.0,0.0,0.0,0.0,0.0,0.0,0.0,0.0,0.0,0.0,0.0,0.0,0.0,0.0,0.0,0.0,0.0,0.0,0.0,0.0,0.0,0.0,0.0,0.0,0.0,0.0,0.0,4.1604,4.2259,4.2796,4.3172,4.293,4.2649,0.0,0.0,0.0,0.0,0.0,0.0,0.0,0.0,0.0,0.0,0.0,0.0,0.0,0.0,0.0,0.0,0.0,0.0,0.0,0.0,0.0,0.0,0.0,0.0,0.0,0.0,0.0,0.0,0.0,0.0,0.0,0.0,0.0,0.0,0.0,0.0,0.0,0.0,0.0,0.0,0.0,0.0,0.0,0.0,0.0,0.0,0.0,0.0,0.0,0.0,0.0,0.0,0.0,0.0,0.0,0.0,0.0,0.0,0.0,0.0,0.0,0.0,0.0,0.0,0.0,0.0,0.0,0.0,0.0,0.0,0.0,0.0,0.0,0.0,0.0,0.0,0.0,0.0,0.0,0.0,0.0,0.0,0.0,0.0,0.0,0.0,0.0,0.0,0.0,0.0,0.0,0.0,0.0,0.0,0.0,0.0,0.0,0.0,0.0,0.0,0.0,0.0,0.0,0.0,0.0,0.0,0.0,0.0,0.0,4.2356,0.0,4.3931,4.3871,4.369,4.3435,0.0,0.0,0.0,0.0,0.0,0.0,0.0,0.0,0.0,0.0,0.0,0.0,0.0,0.0,0.0,0.0,0.0,0.0,0.0,0.0,0.0,0.0,0.0,0.0,0.0,0.0,0.0,0.0,0.0,0.0,0.0,0.0,0.0,0.0,0.0,0.0,0.0,0.0,0.0,0.0,0.0,0.0,0.0,0.0,0.0,0.0,0.0,0.0,0.0,0.0,0.0,0.0,0.0,0.0,0.0,0.0,0.0,0.0,0.0,0.0,0.0,0.0,0.0,0.0,0.0,0.0,0.0,0.0,0.0,0.0,0.0,0.0,0.0,0.0,0.0,0.0,0.0,0.0,0.0,0.0,0.0,0.0,0.0,0.0,0.0,0.0,0.0,0.0,0.0,0.0,0.0,0.0,0.0,0.0,0.0,0.0,0.0,0.0,0.0,0.0,0.0,0.0,0.0,0.0,0.0,0.0,0.0,0.0,4.2174,4.3868,4.4921,4.5432,4.5397,4.4734,4.4448,0.0,0.0,0.0,0.0,0.0,0.0,0.0,0.0,0.0,0.0,0.0,0.0,0.0,0.0,0.0,0.0,0.0,0.0,0.0,0.0,0.0,0.0,0.0,0.0,0.0,0.0,0.0,0.0,0.0,0.0,0.0,0.0,0.0,0.0,0.0,0.0,0.0,0.0,0.0,0.0,0.0,0.0,0.0,0.0,0.0,0.0,0.0,0.0,0.0,0.0,0.0,0.0,0.0,0.0,0.0,0.0,0.0,0.0,0.0,0.0,0.0,0.0,0.0,0.0,0.0,0.0,0.0,0.0,0.0,0.0,0.0,0.0,0.0,0.0,0.0,0.0,0.0,0.0,0.0,0.0,0.0,0.0,0.0,0.0,0.0,0.0,0.0,0.0,0.0,0.0,0.0,0.0,0.0,0.0,0.0,0.0,0.0,0.0,0.0,0.0,0.0,0.0,0.0,0.0,0.0,0.0,0.0,0.0,0.0,4.5432,4.6433,4.6983,4.6948,4.6286,4.5762,0.0,0.0,0.0,0.0,0.0,0.0,0.0,0.0,0.0,0.0,0.0,0.0,0.0,0.0,0.0,0.0,0.0,0.0,0.0,0.0,0.0,0.0,0.0,0.0,0.0,0.0,0.0,0.0,0.0,0.0,0.0,0.0,0.0,0.0,0.0,0.0,0.0,0.0,0.0,0.0,0.0,0.0,0.0,0.0,0.0,0.0,0.0,0.0,0.0,0.0,0.0,0.0,0.0,0.0,0.0,0.0,0.0,0.0,0.0,0.0,0.0,0.0,0.0,0.0,0.0,0.0,0.0,0.0,0.0,0.0,0.0,0.0,0.0,0.0,0.0,0.0,0.0,0.0,0.0,0.0,0.0,0.0,0.0,0.0,0.0,0.0,0.0,0.0,0.0,0.0,0.0,0.0,0.0,0.0,0.0,0.0,0.0,0.0,0.0,0.0,0.0,0.0,0.0,0.0,0.0,0.0,0.0,0.0,0.0,4.7757,4.798,4.8086,4.812,4.7665,4.7049,4.6239,0.0,0.0,0.0,0.0,0.0,0.0,0.0,0.0,0.0,0.0,0.0,0.0,0.0,0.0,0.0,0.0,0.0,0.0,0.0,0.0,0.0,0.0,0.0,0.0,0.0,0.0,0.0,0.0,0.0,0.0,0.0,0.0,0.0,0.0,0.0,0.0,0.0,0.0,0.0,0.0,0.0,0.0,0.0,0.0,0.0,0.0,0.0,0.0,0.0,0.0,0.0,0.0,0.0,0.0,0.0,0.0,0.0,0.0,0.0,0.0,0.0,0.0,0.0,0.0,0.0,0.0,0.0,0.0,0.0,0.0,0.0,0.0,0.0,0.0,0.0,0.0,0.0,0.0,0.0,0.0,0.0,0.0,0.0,0.0,0.0,0.0,0.0,0.0,0.0,0.0,0.0,0.0,0.0,0.0,0.0,0.0,0.0,0.0,0.0,0.0,0.0,0.0,0.0,0.0,0.0,0.0,0.0,0.0,5.0735,4.9703,4.9189,4.9085,4.8982,4.8398,0.0,0.0,0.0,0.0,0.0,0.0,0.0,0.0,0.0,0.0,0.0,0.0,0.0,0.0,0.0,0.0,0.0,0.0,0.0,0.0,0.0,0.0,0.0,0.0,0.0,0.0,0.0,0.0,0.0,0.0,0.0,0.0,0.0,0.0,0.0,0.0,0.0,0.0,0.0,0.0,0.0,0.0,0.0,0.0,0.0,0.0,0.0,0.0,0.0,0.0,0.0,0.0,0.0,0.0,0.0,0.0,0.0,0.0,0.0,0.0,0.0,0.0,0.0,0.0,0.0,0.0,0.0,0.0,0.0,0.0,0.0,0.0,0.0,0.0,0.0,0.0,0.0,0.0,0.0,0.0,0.0,0.0,0.0,0.0,0.0,0.0,0.0,0.0,0.0,0.0,0.0,0.0,0.0,0.0,0.0,0.0,0.0,0.0,0.0,0.0,0.0,0.0,0.0,0.0,0.0,0.0,0.0,0.0,0.0,5.2796,5.3391,5.3201,5.2218,5.1114,5.0138,0.0,0.0,0.0,0.0,0.0,0.0,0.0,0.0,0.0,0.0,0.0,0.0,0.0,0.0,0.0,0.0,0.0,0.0,0.0,0.0,0.0,0.0,0.0,0.0,0.0,0.0,0.0,0.0,0.0,0.0,0.0,0.0,0.0,0.0,0.0,0.0,0.0,0.0,0.0,0.0,0.0,0.0,0.0,0.0,0.0,0.0,0.0,0.0,0.0,0.0,0.0,0.0,0.0,0.0,0.0,0.0,0.0,0.0,0.0,0.0,0.0,0.0,0.0,0.0,0.0,0.0,0.0,0.0,0.0,0.0,0.0,0.0,0.0,0.0,0.0,0.0,0.0,0.0,0.0,0.0,0.0,0.0,0.0,0.0,0.0,0.0,0.0,0.0,0.0,0.0,0.0,0.0,0.0,0.0,0.0,0.0,0.0,0.0,0.0,0.0,0.0,0.0,0.0,0.0,0.0,0.0,0.0,0.0,5.2326,5.4601,5.5996,5.6369,5.5641,5.3604,5.1933,0.0,0.0,0.0,0.0,0.0,0.0,0.0,0.0,0.0,0.0,0.0,0.0,0.0,0.0,0.0,0.0,0.0,0.0,0.0,0.0,0.0,0.0,0.0,0.0,0.0,0.0,0.0,0.0,0.0,0.0,0.0,0.0,0.0,0.0,0.0,0.0,0.0,0.0,0.0,0.0,0.0,0.0,0.0,0.0,0.0,0.0,0.0,0.0,0.0,0.0,0.0,0.0,0.0,0.0,0.0,0.0,0.0,0.0,0.0,0.0,0.0,0.0,0.0,0.0,0.0,0.0,0.0,0.0,0.0,0.0,0.0,0.0,0.0,0.0,0.0,0.0,0.0,0.0,0.0,0.0,0.0,0.0,0.0,0.0,0.0,0.0,0.0,0.0,0.0,0.0,0.0,0.0,0.0,0.0,0.0,0.0,0.0,0.0,0.0,0.0,0.0,0.0,0.0,0.0,0.0,0.0,0.0,0.0,5.3754,5.6165,5.777,5.8663,5.8736,5.6122,5.3729,0.0,0.0,0.0,0.0,0.0,0.0,0.0,0.0,0.0,0.0,0.0,0.0,0.0,0.0,0.0,0.0,0.0,0.0,0.0,0.0,0.0,0.0,0.0,0.0,0.0,0.0,0.0,0.0,0.0,0.0,0.0,0.0,0.0,0.0,0.0,0.0,0.0,0.0,0.0,0.0,0.0,0.0,0.0,0.0,0.0,0.0,0.0,0.0,0.0,0.0,0.0,0.0,0.0,0.0,0.0,0.0,0.0,0.0,0.0,0.0,0.0,0.0,0.0,0.0,0.0,0.0,0.0,0.0,0.0,0.0,0.0,0.0,0.0,0.0,0.0,0.0,0.0,0.0,0.0,0.0,0.0,0.0,0.0,0.0,0.0,0.0,0.0,0.0,0.0,0.0,0.0,0.0,0.0,0.0,0.0,0.0,0.0,0.0,0.0,0.0,0.0,0.0,0.0,0.0,0.0,0.0,0.0,0.0,5.521,5.7446,5.8577,5.9234,5.938,5.7362,5.5219,0.0,0.0,0.0,0.0,0.0,0.0,0.0,0.0,0.0,0.0,0.0,0.0,0.0,0.0,0.0,0.0,0.0,0.0,0.0,0.0,0.0,0.0,0.0,0.0,0.0,0.0,0.0,0.0,0.0,0.0,0.0,0.0,0.0,0.0,0.0,0.0,0.0,0.0,0.0,0.0,0.0,0.0,0.0,0.0,0.0,0.0,0.0,0.0,5.0251,0.0,0.0,0.0,0.0,0.0,0.0,0.0,0.0,0.0,0.0,0.0,0.0,0.0,0.0,0.0,0.0,0.0,0.0,0.0,0.0,0.0,0.0,0.0,0.0,0.0,0.0,0.0,0.0,0.0,0.0,0.0,0.0,0.0,0.0,0.0,0.0,0.0,0.0,0.0,0.0,0.0,0.0,0.0,0.0,0.0,0.0,0.0,0.0,0.0,0.0,0.0,0.0,0.0,0.0,0.0,0.0,0.0,0.0,0.0,5.619,5.8355,5.9692,6.0248,5.995,5.8495,5.6499,0.0,0.0,0.0,0.0,0.0,0.0,0.0,0.0,0.0,0.0,0.0,0.0,0.0,0.0,0.0,0.0,0.0,0.0,0.0,0.0,0.0,0.0,0.0,0.0,0.0,0.0,0.0,0.0,0.0,0.0,0.0,0.0,0.0,0.0,0.0,0.0,0.0,0.0,0.0,0.0,0.0,0.0,0.0,0.0,0.0,0.0,0.0,0.0,0.0,0.0,0.0,0.0,0.0,0.0,0.0,0.0,0.0,0.0,0.0,0.0,0.0,0.0,0.0,0.0,0.0,0.0,0.0,0.0,0.0,0.0,0.0,0.0,0.0,0.0,0.0,0.0,0.0,0.0,0.0,0.0,0.0,0.0,0.0,0.0,0.0,0.0,0.0,0.0,0.0,0.0,0.0,0.0,0.0,0.0,0.0,0.0,0.0,0.0,0.0,0.0,0.0,0.0,0.0,0.0,0.0,0.0,0.0,5.4735,5.7036,5.9302,6.0812,6.1227,6.0585,5.931,5.7329,5.4534,0.0,0.0,0.0,0.0,0.0,0.0,0.0,0.0,0.0,0.0,0.0,0.0,0.0,0.0,0.0,0.0,0.0,0.0,0.0,0.0,0.0,0.0,0.0,0.0,0.0,0.0,0.0,0.0,0.0,0.0,0.0,0.0,0.0,0.0,0.0,0.0,0.0,0.0,4.9921,5.0729,0.0,0.0,0.0,0.0,0.0,0.0,0.0,0.0,5.1426,0.0,0.0,0.0,0.0,0.0,0.0,0.0,0.0,0.0,0.0,0.0,0.0,0.0,0.0,0.0,0.0,0.0,0.0,0.0,0.0,0.0,0.0,0.0,0.0,0.0,0.0,0.0,0.0,0.0,0.0,0.0,0.0,0.0,0.0,0.0,0.0,0.0,0.0,0.0,0.0,0.0,0.0,0.0,0.0,0.0,0.0,0.0,0.0,0.0,0.0,0.0,0.0,0.0,0.0,0.0,0.0,5.3281,5.5513,5.8017,6.0825,6.1201,6.1346,6.1261,5.9363,5.702,5.4377,0.0,0.0,0.0,0.0,0.0,0.0,0.0,0.0,0.0,0.0,0.0,0.0,0.0,0.0,0.0,0.0,0.0,0.0,0.0,0.0,0.0,0.0,0.0,0.0,0.0,0.0,0.0,0.0,0.0,0.0,0.0,0.0,0.0,0.0,0.0,0.0,0.0,0.0,0.0,5.2711,5.3298,0.0,0.0,0.0,0.0,0.0,0.0,0.0,0.0,5.3812,0.0,0.0,0.0,0.0,0.0,0.0,0.0,0.0,0.0,0.0,0.0,0.0,0.0,0.0,0.0,0.0,0.0,0.0,0.0,0.0,0.0,0.0,0.0,0.0,0.0,0.0,0.0,0.0,0.0,0.0,0.0,0.0,0.0,0.0,0.0,0.0,0.0,0.0,0.0,0.0,0.0,0.0,0.0,0.0,0.0,0.0,0.0,0.0,0.0,0.0,0.0,0.0,0.0,0.0,0.0,5.46,5.6833,5.9235,6.1772,6.1873,6.1709,6.1346,5.9321,5.7016,0.0,0.0,0.0,0.0,0.0,0.0,0.0,0.0,0.0,0.0,0.0,0.0,0.0,0.0,0.0,0.0,0.0,0.0,0.0,0.0,0.0,0.0,0.0,0.0,0.0,0.0,0.0,0.0,0.0,0.0,0.0,0.0,0.0,0.0,0.0,0.0,0.0,0.0,0.0,0.0,5.3592,5.4252,5.5427,0.0,0.0,0.0,0.0,0.0,0.0,5.5302,5.5023,0.0,0.0,0.0,0.0,0.0,0.0,0.0,0.0,0.0,0.0,0.0,0.0,0.0,0.0,0.0,0.0,0.0,0.0,0.0,0.0,0.0,0.0,0.0,0.0,0.0,0.0,0.0,0.0,0.0,0.0,0.0,0.0,0.0,0.0,0.0,0.0,0.0,0.0,0.0,0.0,0.0,0.0,0.0,0.0,0.0,0.0,0.0,0.0,0.0,0.0,0.0,0.0,0.0,0.0,0.0,5.5683,5.8051,6.0351,6.2482,6.2753,6.2482,6.1738,5.9685,5.7454,0.0,0.0,0.0,0.0,0.0,0.0,0.0,0.0,0.0,0.0,0.0,0.0,0.0,0.0,0.0,0.0,0.0,0.0,0.0,0.0,0.0,0.0,0.0,0.0,0.0,0.0,0.0,0.0,0.0,0.0,0.0,0.0,0.0,0.0,0.0,0.0,0.0,0.0,0.0,0.0,0.0,5.5427,5.6198,5.6455,0.0,0.0,0.0,0.0,5.6565,5.6418,0.0,0.0,0.0,0.0,0.0,0.0,0.0,0.0,0.0,0.0,0.0,0.0,0.0,0.0,0.0,0.0,0.0,0.0,0.0,0.0,0.0,0.0,0.0,0.0,0.0,0.0,0.0,0.0,0.0,0.0,0.0,0.0,0.0,0.0,0.0,0.0,0.0,0.0,0.0,0.0,0.0,0.0,0.0,0.0,0.0,0.0,0.0,0.0,0.0,0.0,0.0,0.0,0.0,0.0,0.0,0.0,5.5681,5.8524,6.1061,6.326,6.4005,6.4005,6.326,6.1028,5.8601,0.0,0.0,0.0,0.0,0.0,0.0,0.0,0.0,0.0,0.0,0.0,0.0,0.0,0.0,0.0,0.0,0.0,0.0,0.0,0.0,0.0,0.0,0.0,0.0,0.0,0.0,0.0,0.0,0.0,0.0,0.0,0.0,0.0,0.0,0.0,0.0,0.0,0.0,0.0,0.0,0.0,5.7886,5.8694,5.9391,5.9869,0.0,0.0,5.9832,5.9869,5.9281,0.0,0.0,0.0,0.0,0.0,0.0,0.0,0.0,0.0,0.0,0.0,0.0,0.0,0.0,0.0,0.0,0.0,0.0,0.0,0.0,0.0,0.0,0.0,0.0,0.0,0.0,0.0,0.0,0.0,0.0,0.0,0.0,0.0,0.0,0.0,0.0,0.0,0.0,0.0,0.0,0.0,0.0,0.0,0.0,0.0,0.0,0.0,0.0,0.0,0.0,0.0,0.0,0.0,0.0,0.0,5.4296,5.6934,5.9505,6.1873,6.4038,6.4444,6.4241,6.3491,6.1298,5.8933,0.0,0.0,0.0,0.0,0.0,0.0,0.0,0.0,0.0,0.0,0.0,0.0,0.0,0.0,0.0,0.0,0.0,0.0,0.0,0.0,0.0,0.0,0.0,0.0,0.0,0.0,0.0,0.0,0.0,0.0,0.0,0.0,0.0,0.0,0.0,0.0,0.0,0.0,0.0,0.0,0.0,0.0,6.0309,6.086,0.0,0.0,0.0,6.163,6.1153,0.0,0.0,0.0,0.0,0.0,0.0,0.0,0.0,0.0,0.0,0.0,0.0,0.0,0.0,0.0,0.0,0.0,0.0,0.0,0.0,0.0,0.0,0.0,0.0,0.0,0.0,0.0,0.0,0.0,0.0,0.0,0.0,0.0,0.0,0.0,0.0,0.0,0.0,0.0,0.0,0.0,0.0,0.0,0.0,0.0,0.0,0.0,0.0,0.0,0.0,0.0,0.0,0.0,0.0,0.0,0.0,0.0,5.8152,6.0791,6.3125,6.5053,6.5324,6.5087,6.4343,6.2144,0.0,0.0,0.0,0.0,0.0,0.0,0.0,0.0,0.0,0.0,0.0,0.0,0.0,0.0,0.0,0.0,0.0,0.0,0.0,0.0,0.0,0.0,0.0,0.0,0.0,0.0,0.0,4.4715,0.0,0.0,0.0,0.0,0.0,0.0,0.0,0.0,0.0,0.0,0.0,0.0,0.0,0.0,5.9612,6.163,6.2254,6.2732,0.0,0.0,6.3209,6.2622,6.2511,6.2181,0.0,0.0,0.0,0.0,0.0,0.0,0.0,0.0,0.0,0.0,0.0,0.0,0.0,0.0,0.0,0.0,0.0,0.0,0.0,0.0,0.0,0.0,0.0,0.0,0.0,0.0,0.0,0.0,0.0,0.0,0.0,0.0,0.0,0.0,0.0,0.0,0.0,0.0,0.0,0.0,0.0,0.0,0.0,0.0,0.0,0.0,0.0,0.0,0.0,0.0,0.0,0.0,0.0,0.0,5.6664,5.8964,6.2516,6.5087,6.6609,6.732,6.7354,6.6576,6.4444,6.2212,0.0,0.0,0.0,0.0,0.0,0.0,0.0,0.0,0.0,0.0,0.0,0.0,0.0,0.0,0.0,0.0,0.0,0.0,0.0,0.0,0.0,0.0,0.0,0.0,0.0,0.0,0.0,0.0,0.0,0.0,0.0,0.0,0.0,0.0,0.0,0.0,0.0,0.0,0.0,0.0,0.0,6.1667,6.2622,6.409,6.5081,0.0,0.0,6.5118,6.5081,6.5044,6.4494,6.2915,0.0,0.0,0.0,0.0,0.0,0.0,0.0,0.0,0.0,0.0,0.0,0.0,0.0,0.0,0.0,0.0,0.0,0.0,0.0,0.0,0.0,0.0,0.0,0.0,0.0,0.0,0.0,0.0,0.0,0.0,0.0,0.0,0.0,0.0,0.0,0.0,0.0,0.0,0.0,0.0,0.0,0.0,0.0,0.0,0.0,0.0,0.0,0.0,0.0,0.0,0.0,0.0,0.0,5.7036,5.9674,6.2956,6.5324,6.6779,6.7996,6.8064,6.6846,6.5561,6.3599,0.0,0.0,0.0,0.0,0.0,0.0,0.0,0.0,0.0,0.0,0.0,0.0,0.0,0.0,0.0,0.0,0.0,0.0,0.0,0.0,0.0,0.0,0.0,0.0,0.0,0.0,0.0,0.0,4.8627,4.8984,4.94,0.0,0.0,0.0,0.0,0.0,0.0,0.0,0.0,0.0,0.0,6.3071,6.5485,6.6366,0.0,0.0,6.8274,6.7907,6.6916,6.6769,6.6219,6.4604,6.3906,0.0,0.0,0.0,0.0,0.0,0.0,0.0,0.0,0.0,0.0,0.0,0.0,0.0,0.0,0.0,0.0,0.0,0.0,0.0,0.0,0.0,0.0,0.0,0.0,0.0,0.0,0.0,0.0,0.0,0.0,0.0,0.0,0.0,0.0,0.0,0.0,0.0,0.0,0.0,0.0,0.0,0.0,0.0,0.0,0.0,0.0,0.0,0.0,0.0,0.0,0.0,0.0,5.8152,6.1095,6.3835,6.6102,6.7793,6.8876,6.891,6.7861,6.6846,6.5155,0.0,0.0,0.0,0.0,0.0,0.0,0.0,0.0,0.0,0.0,0.0,0.0,0.0,0.0,0.0,0.0,0.0,0.0,0.0,0.0,0.0,0.0,0.0,0.0,0.0,0.0,0.0,0.0,5.0008,5.0236,5.0115,0.0,0.0,0.0,0.0,0.0,0.0,0.0,0.0,0.0,0.0,6.4589,6.7185,6.7955,6.8687,6.9786,6.9933,6.953,6.8431,6.8339,6.789,6.6506,0.0,0.0,0.0,0.0,0.0,0.0,0.0,0.0,0.0,0.0,0.0,0.0,0.0,0.0,0.0,0.0,0.0,0.0,0.0,0.0,0.0,0.0,0.0,0.0,0.0,0.0,0.0,4.329,0.0,0.0,4.3359,0.0,0.0,0.0,0.0,0.0,0.0,0.0,0.0,0.0,0.0,0.0,0.0,0.0,0.0,0.0,0.0,0.0,0.0,0.0,0.0,0.0,0.0,6.0385,6.3396,6.5628,6.7861,6.9992,7.0161,7.0195,7.0094,6.8673,6.7151,6.5561,0.0,0.0,0.0,0.0,0.0,0.0,0.0,0.0,0.0,0.0,0.0,0.0,0.0,0.0,0.0,0.0,0.0,0.0,0.0,0.0,0.0,0.0,0.0,0.0,0.0,0.0,5.0515,5.2026,5.2664,0.0,0.0,0.0,0.0,0.0,0.0,0.0,0.0,0.0,0.0,6.4276,6.6234,6.7174,6.8596,6.9617,6.9697,6.969,6.9661,6.9617,6.9762,6.9555,0.0,0.0,0.0,0.0,0.0,0.0,0.0,0.0,0.0,0.0,0.0,0.0,0.0,0.0,0.0,0.0,0.0,0.0,0.0,0.0,0.0,0.0,0.0,0.0,0.0,0.0,0.0,4.5963,4.5963,0.0,0.0,0.0,0.0,0.0,0.0,0.0,0.0,0.0,0.0,0.0,5.7462,5.7277,0.0,0.0,0.0,0.0,0.0,0.0,0.0,0.0,0.0,0.0,0.0,0.0,6.1076,6.4208,6.6948,6.918,7.0872,7.1887,7.2157,7.1684,7.0703,6.8774,6.5764,0.0,0.0,0.0,0.0,0.0,0.0,0.0,0.0,0.0,0.0,0.0,0.0,0.0,0.0,0.0,0.0,0.0,0.0,0.0,0.0,0.0,0.0,0.0,0.0,0.0,5.1122,0.0,0.0,0.0,0.0,0.0,0.0,0.0,0.0,0.0,0.0,0.0,6.115,6.3689,6.5337,6.725,6.9697,7.0531,7.1252,0.0,0.0,0.0,0.0,0.0,0.0,0.0,0.0,0.0,0.0,0.0,0.0,0.0,0.0,6.5705,6.3282,6.2879,6.2879,6.2842,0.0,0.0,0.0,0.0,0.0,0.0,0.0,0.0,0.0,0.0,0.0,0.0,0.0,0.0,4.9015,0.0,4.8775,0.0,0.0,0.0,0.0,0.0,0.0,0.0,0.0,5.7893,5.9686,6.1164,6.1574,6.2052,0.0,6.1649,5.9926,0.0,0.0,0.0,0.0,0.0,0.0,0.0,0.0,6.2689,6.6102,6.8335,7.0331,7.2022,7.3003,7.3274,7.2766,7.209,7.0297,6.7354,6.5358,6.2821,0.0,0.0,0.0,0.0,0.0,0.0,0.0,0.0,0.0,0.0,0.0,0.0,0.0,0.0,0.0,0.0,0.0,0.0,0.0,0.0,0.0,0.0,0.0,5.2965,0.0,0.0,0.0,0.0,0.0,0.0,0.0,0.0,0.0,5.9232,6.0945,6.304,6.5546,6.7016,6.875,7.1186,0.0,0.0,0.0,0.0,0.0,0.0,0.0,7.3665,7.3188,7.355,7.3982,7.4042,7.3692,7.323,7.2679,0.0,0.0,6.7687,6.699,6.699,6.6953,6.699,6.7063,6.7357,6.7797,6.8274,0.0,0.0,0.0,0.0,0.0,0.0,0.0,0.0,5.2336,5.2336,0.0,5.1678,0.0,0.0,0.0,0.0,0.0,5.5936,0.0,0.0,6.2432,6.4337,6.4964,6.6707,6.7665,6.7599,6.6242,6.548,6.5194,6.0556,0.0,0.0,0.0,0.0,0.0,0.0,6.5185,6.8934,6.9891,7.1345,7.3443,7.3646,7.3646,7.3612,7.2902,7.1819,7.0331,6.8808,6.6305,6.2719,6.0385,0.0,0.0,0.0,0.0,0.0,0.0,0.0,0.0,0.0,0.0,0.0,0.0,0.0,0.0,0.0,0.0,0.0,0.0,0.0,0.0,5.4323,0.0,0.0,0.0,0.0,0.0,0.0,0.0,0.0,0.0,0.0,6.1184,6.2838,6.4933,6.7232,0.0,0.0,0.0,0.0,7.3222,7.3258,7.3431,7.357,7.357,7.4488,7.5228,7.5192,0.0,0.0,7.7353,7.7384,7.7347,7.742,7.7347,7.5953,7.1468,7.055,7.0403,7.0403,7.044,7.0624,7.1284,7.1513,7.1762,5.8441,0.0,0.0,0.0,0.0,5.5598,5.5688,5.5688,5.5688,5.5688,5.5658,5.5029,0.0,0.0,0.0,0.0,0.0,0.0,6.0512,6.2539,6.4384,6.629,6.8275,6.8961,6.9664,7.0353,6.9958,6.9295,6.8506,6.7082,6.4399,6.0655,0.0,0.0,0.0,0.0,6.622,6.949,7.1526,7.3341,7.5033,7.6149,7.6454,7.5912,7.5168,7.4052,7.2597,7.1109,6.9079,6.6406,6.37,0.0,0.0,0.0,0.0,0.0,0.0,0.0,0.0,0.0,0.0,0.0,0.0,0.0,0.0,0.0,0.0,0.0,0.0,0.0,5.5894,5.678,5.7359,0.0,0.0,0.0,0.0,0.0,0.0,0.0,0.0,0.0,6.4717,6.5395,6.6565,0.0,0.0,7.175,7.3242,7.4201,7.5061,7.5895,7.6041,0.0,7.6481,7.6805,7.7128,7.741,7.8005,7.8705,7.938,7.9621,7.9938,8.0451,8.0695,8.0277,7.8993,7.679,7.5329,7.5249,7.5249,7.5292,7.5512,7.5549,7.5622,6.2929,6.1104,5.9398,5.868,5.871,5.8979,5.9069,5.9069,5.9069,5.9069,5.9039,5.8411,5.8141,5.8165,5.8113,0.0,0.0,0.0,6.3775,6.5802,6.7478,6.931,7.1214,7.1901,7.2569,7.3219,7.2922,7.2513,7.1951,7.109,6.9136,6.6088,0.0,0.0,6.4914,6.6209,6.8104,7.0647,7.3114,7.4965,7.6149,7.7367,7.7638,7.6927,7.642,7.5473,7.3984,7.28,7.1142,6.8876,6.6271,6.3463,0.0,0.0,0.0,0.0,0.0,0.0,0.0,0.0,0.0,0.0,0.0,4.8988,5.0518,0.0,0.0,0.0,5.5859,5.7696,5.9193,5.9661,0.0,0.0,0.0,0.0,0.0,0.0,0.0,6.2745,6.5198,6.7046,6.7605,6.8544,6.9501,7.0243,7.1479,7.2898,7.4275,0.0,7.6187,7.6926,7.7404,7.7815,7.8167,7.8532,7.9084,8.0007,8.0442,8.0942,8.1552,8.1868,8.2187,8.2693,8.2974,8.3074,8.3141,8.1489,7.9984,7.9396,7.925,7.925,7.925,7.925,7.925,6.6789,6.6011,6.2989,6.1642,6.1493,6.2061,6.2301,6.2331,6.2331,6.2361,6.2361,6.1732,6.1433,6.1433,6.2108,0.0,6.4125,6.5437,6.7034,6.887,7.1045,7.2584,7.3652,7.4876,7.5644,7.5911,7.5273,7.5186,7.533,7.3409,7.2349,7.2084,6.8804,6.714,6.73,6.8806,7.044,7.2115,7.4485,7.6115,7.6961,7.7705,7.7705,7.6995,7.686,7.6149,7.4762,7.3916,7.2529,7.0432,6.8199,6.5696,6.2854,0.0,0.0,0.0,0.0,0.0,0.0,0.0,0.0,0.0,0.0,0.0,0.0,0.0,0.0,0.0,5.8727,0.0,6.2516,6.2685,0.0,0.0,0.0,6.3091,6.3802,6.4546,6.5372,6.6214,0.0,0.0,6.9979,7.2,7.3215,7.2716,7.3378,7.4205,7.4938,7.6115,7.6894,7.7007,7.7872,7.8666,7.8916,7.9699,8.0749,8.207,8.3038,8.3228,8.352,8.3809,8.4095,8.4345,8.4449,8.4518,8.4725,8.4612,8.4352,8.281,8.2443,8.2333,8.226,8.226,8.2223,6.8435,6.8226,6.7448,6.5951,6.4067,6.4276,6.4336,6.4336,6.4336,6.4605,6.5024,6.4395,6.4096,6.4126,6.5281,6.5991,6.629,6.78,6.9262,7.0671,7.1414,7.2747,7.4494,7.5024,7.5714,7.6479,7.6812,7.681,7.6604,7.6286,7.5297,7.3674,7.278,7.1569,7.0026,7.0562,7.1699,7.3424,7.4738,7.6159,7.7705,7.845,7.8483,7.7739,7.6589,7.5811,7.5439,7.4187,7.3003,7.1887,6.9755,6.7692,6.5831,6.2415,0.0,0.0,0.0,0.0,0.0,0.0,0.0,0.0,0.0,5.3923,5.4837,0.0,5.8254,0.0,6.1772,6.3903,6.4816,6.5425,0.0,0.0,6.6271,6.6643,6.6846,6.803,6.8987,6.9166,7.1164,7.2519,7.261,7.4611,7.5967,7.5811,7.5822,7.5971,7.6313,7.7617,7.8546,7.8739,7.9138,7.9545,7.9889,8.0605,8.1391,8.1744,8.2338,8.2948,8.3598,8.4129,8.4681,8.5299,8.5664,8.5953,8.6165,8.62,8.6159,8.5823,8.4903,8.4022,8.4022,8.4022,8.4022,6.9692,6.9453,6.9453,6.8405,6.6789,6.6789,6.6789,6.6789,6.6789,6.6999,6.7328,6.6939,6.6789,6.6819,6.7698,6.8031,6.8122,6.945,7.0568,7.1575,7.2338,7.3459,7.4855,7.5399,7.6241,7.7204,7.7823,7.807,7.7981,7.792,7.7119,7.5628,7.5297,7.437,7.2879,7.2461,7.2853,7.3897,7.5628,7.7288,7.8889,7.9058,7.8754,7.801,7.6826,7.6082,7.5709,7.4255,7.3274,7.2868,7.077,6.9045,6.7861,6.4952,6.2922,0.0,0.0,0.0,0.0,0.0,0.0,0.0,0.0,0.0,0.0,0.0,6.1738,6.3429,6.5425,6.6914,6.7624,6.8368,6.8808,6.8808,6.918,6.9688,7.0297,7.1142,7.1921,7.2563,7.4052,7.4999,7.5067,7.6386,7.7401,7.7367,7.7542,7.7577,7.7468,7.8463,7.9358,7.9466,8.0252,8.1121,8.1725,8.2571,8.3103,8.3147,8.3706,8.4302,8.4736,8.5338,8.5919,8.6433,8.6925,8.7265,8.745,8.7668,8.7812,8.7773,8.7292,8.6554,8.582,8.5673,8.5673,7.059,7.0111,7.0111,6.9782,6.9243,6.9243,6.9153,6.9004,6.9004,6.9064,6.9123,6.9213,6.9243,6.9243,6.9529,6.9624,6.9687,7.0618,7.1353,7.2029,7.3211,7.4155,7.4873,7.5847,7.6779,7.7744,7.8461,7.891,7.9221,7.8824,7.8225,7.7497,7.6821,7.6092,7.5397,7.4389,7.4005,7.4332,7.6702,7.8569,7.987,7.9295,7.8619,7.7841,7.7063,7.6284,7.5574,7.4221,7.3477,7.3409,7.1481,7.006,6.9383,6.7218,6.5696,0.0,6.3125,0.0,0.0,0.0,0.0,0.0,0.0,0.0,0.0,6.3328,6.5425,6.8233,6.9214,6.9958,7.0669,7.1413,7.1887,7.1887,7.1988,7.2529,7.3747,7.4018,7.4559,7.5845,7.669,7.7164,7.7164,7.7807,7.828,7.8517,7.8991,7.921,7.8804,7.934,7.9828,7.976,8.1149,8.2383,8.3424,8.4292,8.4763,8.4926,8.5325,8.6064,8.5967,8.6532,8.7109,8.7321,8.7649,8.8041,8.8307,8.8651,8.8911,8.8874,8.8946,8.8686,8.7621,8.7325,8.7325,7.0829,7.0739,7.0739,7.0649,7.056,7.056,6.9961,6.9004,6.9004,6.9303,6.9812,7.032,7.053,7.056,7.0852,7.1044,7.1044,7.1582,7.1958,7.2363,7.2861,7.3571,7.45,7.5538,7.6518,7.7513,7.8429,7.9007,7.9292,7.911,7.8694,7.7969,7.7477,7.6854,7.6125,0.0,0.0,0.0,7.7279,7.7914,7.8382,7.828,7.7841,7.713,7.5777,0.0,7.4796,7.395,7.3477,7.3443,7.1954,0.0,0.0,0.0,0.0,0.0,0.0,0.0,0.0,0.0,0.0,0.0,6.8064,6.7151,6.5155,6.6812,6.9011,7.1312,7.2225,7.2969,7.3713,7.4424,7.4864,7.4864,7.5439,7.5946,7.6251,7.6758,7.7266,7.7502,7.8213,7.8686,7.872,7.9329,7.9972,8.0479,8.0784,8.1054,8.146,8.1105,8.0987,8.1055,8.197,8.2802,8.3241,8.394,8.4399,8.4274,8.4797,8.5424,8.5757,8.617,8.6494,8.6788,8.7068,8.7546,8.7713,8.8074,8.8531,8.8611,8.8947,8.9129,8.8978,8.8905,8.894,7.1906,7.1906,7.1906,7.1697,0.0,7.1398,7.0829,6.9931,6.9931,7.0111,7.044,7.0769,7.0919,7.0889,7.1083,7.1148,7.1178,7.1564,7.1937,7.2466,7.3131,7.3846,7.4683,7.5865,7.6915,7.7945,7.8903,7.9548,7.9838,8.0081,7.9858,7.9134,7.9044,7.8676,7.7947,7.7583,7.7481,7.7748,7.8018,7.8471,7.9025,7.8348,7.7807,7.7401,7.5946,0.0,0.0,0.0,0.0,0.0,0.0,0.0,0.0,7.0939,0.0,7.0601,6.9958,6.9891,7.0601,7.0669,7.1007,7.1785,7.2496,7.1954,6.9688,7.1278,7.2834,7.3916,7.4728,7.5337,7.5709,7.6386,7.6826,7.686,7.7198,7.757,7.7942,7.8314,7.8686,7.9025,7.9397,7.9769,8.0141,8.0479,8.1021,8.1697,8.1832,8.1968,8.2272,8.2103,8.1934,8.2306,8.2852,8.3551,8.4046,8.4455,8.4945,8.542,8.592,8.6484,8.7122,8.7585,8.8005,8.8245,8.8402,8.8556,8.8827,8.8994,8.9148,8.9465,8.9775,9.0078,9.0191,8.9824,8.9382,7.2924,7.2924,7.2924,7.2595,7.2056,7.2056,7.1757,7.1248,0.0,0.0,0.0,7.1248,7.1278,7.1278,7.1278,7.1278,7.1248,7.1538,7.1939,7.2515,7.3452,7.4237,7.4979,7.6151,7.7397,7.8522,7.9372,8.0027,8.0445,8.0976,8.0955,8.0395,8.0598,8.0399,7.9802,7.9206,7.8877,7.8782,7.879,7.9264,8.004,7.8889,7.8179,7.8179,7.6826,7.6115,7.6082,7.554,7.5202,7.5202,7.4492,7.4086,7.4052,7.3375,7.3308,7.3984,7.3544,7.3578,7.439,7.4492,7.4796,7.554,7.6284,7.5946,7.4255,7.5202,7.598,7.6082,7.6826,7.7299,7.7299,7.7942,7.8382,7.8382,7.8382,7.8686,7.9363,7.9498,7.9803,8.0412,8.0615,8.0784,8.1359,8.146,8.1765,8.2408,8.2611,8.2678,8.2746,8.2746,8.2847,8.349,8.3986,8.4483,8.5045,8.5561,8.6129,8.6782,8.7195,8.7846,8.8669,8.9245,8.964,8.9652,8.98,8.9877,9.0214,9.0165,9.0276,9.0692,9.0976,9.1215,9.1344,9.0774,9.0154,7.2924,7.2924,7.2924,7.2864,7.2774,7.2774,7.2714,7.2565,7.1996,7.2086,7.2624,7.2624,7.2624,7.2624,7.2624,7.2624,7.2624,7.2624,7.2751,7.2841,7.3274,7.4031,7.5028,7.5747,7.6957,7.8439,7.9221,7.9867,8.044,8.0834,8.0877,8.077,8.0718,8.0664,8.0531,8.0432,8.0496,8.0655,7.9752,7.9495,7.9853,7.9297,7.8957,7.8923,7.8111,7.7671,7.7671,7.757,7.7502,7.7502,7.6826,7.642,7.6386,7.5676,7.5608,7.6318,7.6318,7.686,7.8179,7.8314,7.8619,7.9363,8.0073,7.9363,7.6724,7.6589,7.6995,7.7638,7.8416,7.8788,7.8855,7.9464,7.9904,7.987,7.987,8.0175,8.0851,8.0919,8.1224,8.19,8.2103,8.2069,8.2205,8.2238,8.2543,8.3152,8.3422,8.3592,8.4065,8.3761,8.3693,8.437,8.5046,8.5506,8.5763,8.6486,8.6953,8.7211,8.7723,8.8123,8.8674,8.905,8.9353,8.9463,8.98,9.008,9.0235,9.0641,9.0927,9.1289,9.1635,9.2052,9.2388,9.2457,9.2259,7.3971,7.3971,7.3971,7.3762,7.3432,7.3073,7.3133,7.3432,7.3103,7.2924,7.2894,7.2924,7.2924,7.2924,7.2924,7.2924,7.2924,7.2924,7.3103,7.3432,7.3804,7.4366,7.5268,7.6095,7.7033,7.7992,7.8849,7.9597,8.0239,8.0696,8.1153,8.15,8.1774,8.1889,8.1889,8.1889,8.1746,8.1481,8.0916,8.0718,8.0979,8.0529,8.0276,8.0276,7.9566,7.916,7.9194,7.9194,7.9194,7.9194,7.8855,7.8686,7.8686,7.8314,7.8483,7.9228,7.9295,7.9769,8.0851,8.0885,8.1054,8.1393,8.1697,8.1359,8.004,7.9904,8.0006,8.0344,8.0716,8.0919,8.0919,8.119,8.1393,8.1393,8.1393,8.1528,8.1799,8.19,8.2035,8.234,8.2408,8.2577,8.2949,8.2983,8.3287,8.3998,8.4403,8.5012,8.5723,8.5587,8.5283,8.5351,8.5892,8.6332,8.6433,8.6779,8.7315,8.7763,8.8101,8.8594,8.9273,8.9673,8.9933,9.0258,9.0284,9.0304,9.0612,9.061,9.0821,9.1335,9.1613,9.2008,9.2309,9.2765,9.3005,7.4869,7.4869,7.4869,7.4569,7.4091,7.3582,7.3642,7.4091,7.4121,7.3821,7.3402,7.3343,7.3343,7.3373,7.3343,7.3373,7.3373,7.3373,7.3642,7.4158,7.4429,7.4834,7.5452,7.6288,7.6884,7.7442,7.8279,7.91,7.9843,8.0702,8.1615,8.2542,8.3037,8.3323,8.338,8.338,8.3115,8.2608,8.2598,8.2375,8.1917,8.1677,8.1528,8.1494,8.1021,8.0682,8.0682,8.0682,8.0682,8.0682,8.0682,8.0682,8.0716,8.0682,8.1021,8.1697,8.1799,8.2103,8.2813,8.2915,8.2915,8.2915,8.2915,8.2915,8.2915,8.2915,8.2746,8.2475,8.2306,8.234,8.2306,8.234,8.2408,8.2408,8.2408,8.2441,8.2611,8.2644,8.2746,8.2847,8.2915,8.3219,8.3795,8.3998,8.437,8.508,8.5689,8.6264,8.6805,8.7008,8.6873,8.6602,8.6805,8.711,8.7177,8.7347,8.7761,8.849,8.8667,8.909,8.9825,9.0246,9.0548,9.0832,9.0694,9.0689,9.1087,9.0899,9.0888,9.1458,9.1772,9.1985,9.2469,9.3035,9.3375,7.4869,7.4869,7.4869,7.4839,7.4749,7.4689,7.4689,7.4749,7.4779,7.4749,7.4629,7.4689,7.4659,7.4689,7.4659,7.4629,7.4629,7.4689,7.4689,7.4749,7.4847,7.5014,7.5346,7.555,7.6088,7.695,7.7538,7.8277,7.932,8.0822,8.2497,8.413,8.4405,8.4547,8.4813,8.4871,8.4838,8.4805,8.5311,8.431,8.1819,8.2079,8.2306,8.2306,8.2272,8.2205,8.2306,8.2205,8.2238,8.2205,8.2238,8.2238,8.2238,8.2205,8.2543,8.3219,8.3287,8.3625,8.4302,8.4437,8.437,8.4437,8.437,8.4403,8.4403,8.4437,8.3828,8.2915,8.2509,8.2543,8.2408,8.2475,8.2577,8.2611,8.2577,8.2644,8.3253,8.3389,8.3659,8.437,8.437,8.4708,8.5317,8.5486,8.5824,8.6467,8.667,8.6907,8.7144,8.7583,8.7888,8.7753,8.7888,8.7888,8.7955,8.8463,8.8756,8.9014,8.9215,8.9449,8.9648,9.0064,9.0475,9.0601,9.083,9.1057,9.1246,9.1365,9.1665,9.188,9.2207,9.2576,9.3491,9.3971,9.4113,7.4869,7.4869,7.4869,7.4869,7.4869,7.4869,7.4869,7.4869,7.4869,7.4869,7.4869,7.4869,7.4869,7.4869,7.4869,7.4869,7.4869,7.4869,7.4869,7.4869,7.4869,7.4937,7.5074,7.5278,7.5752,7.6482,7.735,7.8322,7.9605,8.1495,8.3021,8.3944,8.4426,8.4661,8.4778,8.4987,8.5103,8.5103,8.5678,8.5415,8.4432,8.4757,8.508,8.508,8.508,8.508,8.508,8.508,8.508,8.5046,8.464,8.4403,8.4403,8.3964,8.3828,8.4133,8.4167,8.4302,8.4606,8.4606,8.4809,8.5249,8.5317,8.5486,8.5926,8.5993,8.5689,8.5114,8.4268,8.3727,8.3727,8.3727,8.3727,8.3727,8.3727,8.3862,8.4099,8.4573,8.5012,8.5283,8.5689,8.6061,8.6366,8.6467,8.6771,8.738,8.755,8.7685,8.8091,8.8463,8.8598,8.8632,8.8632,8.8632,8.8632,8.8835,8.9072,8.9162,8.9184,8.9295,8.9585,8.9662,8.9956,9.0349,9.0738,9.1056,9.123,9.1317,9.1574,9.1964,9.2344,9.2651,9.3404,9.3786,9.3891,7.5407,7.5377,7.5228,7.5048,7.4869,7.4869,7.4869,7.4869,7.4869,7.4869,7.4869,7.4869,7.4869,7.4869,7.4869,7.4869,7.4869,7.4869,7.4869,7.4869,7.4869,7.4869,7.4937,7.5142,7.5603,7.622,7.7185,7.8548,8.0166,8.2013,8.3334,8.4048,8.4719,8.5136,8.5228,8.5523,8.5699,8.5757,8.6335,8.6587,8.6644,8.7149,8.7313,8.6974,8.6907,8.6907,8.6907,8.6907,8.6907,8.6873,8.6366,8.6095,8.6061,8.5554,8.5195,8.5249,8.5249,8.5249,8.5249,8.5249,8.5486,8.6027,8.6095,8.6332,8.6771,8.6907,8.6907,8.6738,8.5892,8.5249,8.5249,8.5249,8.5249,8.5249,8.5249,8.5249,8.5317,8.579,8.6061,8.6163,8.6467,8.7008,8.7177,8.7414,8.7786,8.8192,8.8294,8.8429,8.8937,8.9038,8.9106,8.9342,8.941,8.9275,8.9173,8.9342,8.9342,8.9478,8.9636,8.9929,8.9962,9.0052,9.0163,9.1015,9.0926,9.1128,9.1744,9.1799,9.1854,9.22,9.2523,9.2884,9.3387,9.3521,9.3675,7.6754,7.6634,7.6096,7.5497,7.4899,7.4929,7.4929,7.5018,7.4958,7.4929,7.4988,7.4958,7.4899,7.4929,7.4958,7.4899,7.4869,7.4869,7.4869,7.4869,7.4869,7.4869,7.4869,7.4967,7.5404,7.6327,7.7009,7.8703,8.1419,8.2394,8.3579,8.5106,8.5723,8.631,8.6519,8.6846,8.7157,8.7083,8.7579,8.8027,8.8085,8.8655,8.826,8.7177,8.6941,8.7008,8.6974,8.6941,8.6941,8.6941,8.6907,8.6873,8.6873,8.6805,8.6704,8.6704,8.6738,8.6738,8.6704,8.667,8.6738,8.6873,8.6873,8.6907,8.711,8.711,8.711,8.6974,8.6941,8.6805,8.6805,8.6602,8.6602,8.6636,8.6704,8.6704,8.6704,8.6704,8.6839,8.6873,8.7008,8.738,8.7888,8.8564,8.8801,8.8937,8.9004,8.9072,8.9173,8.9173,8.9512,8.9985,9.0121,8.9951,8.9376,8.9748,9.0121,9.0222,9.0527,9.1034,9.1284,9.1466,9.1535,9.1726,9.189,9.2166,9.2536,9.2754,9.2886,9.3136,9.3329,9.357,9.3451,9.3566,9.377,7.6844,7.6814,7.6574,7.6335,7.6125,7.6125,7.6125,7.6125,7.6125,7.6125,7.6125,7.6125,7.5916,7.5527,7.5527,7.5288,7.4899,7.4869,7.4869,7.4869,7.4869,7.4869,7.4929,7.5318,7.5824,7.6469,7.7391,7.917,8.1471,8.2566,8.3413,8.4251,8.5205,8.5737,8.5984,8.6595,8.699,8.705,8.7552,8.7962,8.8194,8.8563,8.8633,8.8361,8.8294,8.8294,8.8328,8.8294,8.8294,8.8294,8.7854,8.7583,8.755,8.7177,8.6907,8.6907,8.6907,8.6907,8.6907,8.6907,8.7144,8.755,8.7617,8.782,8.8192,8.8294,8.8294,8.8294,8.8294,8.8294,8.8125,8.7482,8.6907,8.6907,8.6907,8.6974,8.7008,8.7313,8.7583,8.7651,8.7989,8.8429,8.8632,8.8937,8.9072,8.914,8.9512,8.9748,8.9884,9.0154,9.056,9.0797,9.0899,9.0831,9.0628,9.0696,9.0899,9.0966,9.1135,9.1237,9.143,9.1589,9.1635,9.1908,9.2316,9.2596,9.2852,9.3182,9.3365,9.3492,9.3725,9.3884,9.3503,9.3728,9.3996,7.7322,7.7173,7.7143,7.7023,7.6844,7.6844,7.6844,7.6844,7.6844,7.6844,7.6844,7.6814,7.6574,7.6245,7.6215,7.5976,7.5497,7.5318,7.5318,7.5497,7.5527,7.5497,7.5587,7.6006,7.6445,7.6984,7.8087,7.9716,8.133,8.2276,8.2944,8.3602,8.4507,8.5079,8.5393,8.6107,8.6568,8.6837,8.7315,8.7728,8.8194,8.8448,8.879,8.9016,8.9106,8.9106,8.9106,8.9106,8.9106,8.9004,8.8598,8.8361,8.8294,8.7888,8.7617,8.7617,8.7617,8.7617,8.7617,8.7617,8.782,8.8294,8.8361,8.8598,8.9038,8.9106,8.9106,8.9106,8.9106,8.9106,8.8903,8.8192,8.7617,8.7617,8.7617,8.7617,8.7617,8.8057,8.8328,8.8395,8.87,8.9106,8.941,8.9444,8.9579,8.9715,9.0256,9.0527,9.0628,9.0932,9.144,9.1609,9.1677,9.1812,9.1913,9.2116,9.1846,9.1812,9.2015,9.1947,9.1846,9.188,9.1971,9.2269,9.2532,9.2816,9.3152,9.3484,9.3669,9.3778,9.4094,9.4484,9.4263,9.4058,9.4269,7.837,7.7861,7.7831,7.7472,7.7053,7.7023,7.6904,7.6993,7.6963,7.7053,7.7113,7.6963,7.6993,7.6844,7.6844,7.6814,7.6664,7.6215,7.6215,7.6604,7.6664,7.6664,7.6664,7.6784,7.7173,7.7783,7.8859,7.99,8.0979,8.1461,8.2208,8.3076,8.3766,8.4443,8.5205,8.555,8.6107,8.6595,8.6984,8.7519,8.8136,8.8448,8.8733,8.9072,8.9106,8.9106,8.9106,8.9106,8.9106,8.9106,8.9038,8.9072,8.9004,8.8903,8.9004,8.8903,8.9004,8.9004,8.897,8.8903,8.8869,8.897,8.9004,8.9004,8.9038,8.9106,8.9106,8.9106,8.9106,8.9106,8.9106,8.8937,8.8869,8.9038,8.8835,8.8835,8.8903,8.9038,8.9106,8.9106,8.9241,8.9478,8.9985,9.0222,9.0391,9.0865,9.1203,9.1305,9.1338,9.1508,9.1744,9.2218,9.2455,9.259,9.3098,9.3503,9.303,9.2692,9.2996,9.3131,9.2962,9.2962,9.2861,9.307,9.3267,9.3555,9.3861,9.4198,9.4558,9.4703,9.4986,9.4992,9.4845,9.4626,9.449,7.8669,7.8489,7.8489,7.837,7.819,7.819,7.819,7.816,7.819,7.819,7.816,7.819,7.7921,7.7562,7.7502,7.7502,7.7472,7.7293,7.7083,7.6904,7.6874,7.6874,7.6933,7.7293,7.7831,7.8471,7.9129,7.9576,8.0001,8.084,8.1492,8.187,8.2744,8.334,8.3928,8.4603,8.5298,8.5766,8.6535,8.7256,8.7812,8.8161,8.8596,8.905,8.9106,8.9106,8.9106,8.9106,8.9106,8.9106,8.9106,8.9106,8.9106,8.9106,8.9106,8.9106,8.9106,8.9106,8.9106,8.9106,8.9106,8.9106,8.9106,8.9106,8.9106,8.914,8.914,8.914,8.9106,8.9106,8.9106,8.9106,8.9173,8.9106,8.9106,8.914,8.9275,8.9579,8.9816,8.9918,9.029,9.0696,9.0899,9.0966,9.1068,9.1372,9.1778,9.2049,9.2116,9.2455,9.2895,9.3199,9.3267,9.3165,9.3402,9.3571,9.3334,9.3098,9.3368,9.3571,9.3571,9.3571,9.3571,9.363,9.3864,9.4063,9.4466,9.4806,9.4975,9.5199,9.5227,9.5179,9.5165,9.5067,9.4918,7.8789,7.8789,7.8789,7.8789,7.8789,7.8789,7.8789,7.8789,7.8789,7.8789,7.8789,7.8789,7.8579,7.825,7.816,7.816,7.816,7.819,7.7951,7.7622,7.7562,7.7562,7.7592,7.7951,7.834,7.8771,7.9076,7.922,7.9434,8.0072,8.0632,8.0979,8.1666,8.2343,8.2811,8.3701,8.4411,8.511,8.5984,8.6837,8.7578,8.7987,8.8482,8.9016,8.9106,8.9106,8.9106,8.9342,8.9376,8.914,8.9106,8.9106,8.9106,8.9106,8.9106,8.9106,8.9106,8.9173,8.9444,8.9545,8.9647,8.9816,8.9918,8.9918,8.9918,8.9918,8.9918,8.9884,8.9951,8.9918,8.9918,8.9918,8.9884,8.9918,8.9681,8.9647,8.985,9.0324,9.0594,9.0696,9.0966,9.1372,9.1643,9.1711,9.188,9.2116,9.2556,9.2861,9.2928,9.3233,9.347,9.3571,9.3503,9.347,9.3537,9.3571,9.3571,9.3503,9.3537,9.3571,9.3571,9.3571,9.3571,9.363,9.3747,9.3923,9.4236,9.4523,9.475,9.5065,9.5379,9.5331,9.5282,9.5317,9.5219,7.8789,7.8789,7.8789,7.8789,7.8789,7.8789,7.8789,7.8789,7.8789,7.8789,7.8789,7.8789,7.8759,7.8759,7.8669,7.8669,7.8759,7.8699,7.8669,7.8639,7.8609,7.8579,7.8579,7.8639,7.8699,7.8789,7.8861,7.9005,7.9291,7.9505,7.9718,8.0422,8.084,8.1392,8.2073,8.2744,8.3571,8.4539,8.533,8.6319,8.746,8.8062,8.8525,8.9185,8.9286,8.941,8.9512,8.9951,8.9951,8.9342,8.941,8.9444,8.9275,8.9207,8.9376,8.941,8.9275,8.9647,9.0121,9.0256,9.0493,9.0966,9.1068,9.1305,9.1102,9.1,9.1,9.1034,9.1068,9.1169,9.1135,9.1102,9.1135,9.1237,9.0662,9.056,9.1135,9.1271,9.1372,9.1372,9.1406,9.1677,9.2421,9.2489,9.2793,9.3165,9.3402,9.3402,9.3436,9.3503,9.3537,9.3571,9.3571,9.3571,9.3571,9.3571,9.3571,9.3571,9.3571,9.3571,9.3571,9.3571,9.3571,9.363,9.3698,9.384,9.4175,9.4624,9.491,9.5228,9.5418,9.5413,9.54,9.54,9.5434,7.8789,7.8789,7.8789,7.8789,7.8789,7.8789,7.8789,7.8789,7.8789,7.8789,7.8789,7.8789,7.8789,7.8789,7.8789,7.8789,7.8789,7.8789,7.8789,7.8789,7.8789,7.8789,7.8789,7.8789,7.8789,7.8789,7.8789,7.8861,7.9005,7.922,7.9505,7.9718,8.0041,8.0632,8.1323,8.1802,8.2544,8.3571,8.4539,8.5548,8.6628,8.7753,8.8705,8.9586,9.0048,9.0399,9.0696,9.0899,9.0932,9.0763,9.0729,9.0729,9.0628,9.0594,9.056,9.0594,9.0662,9.0763,9.0932,9.1,9.1135,9.1271,9.1474,9.1305,9.1305,9.1305,9.1305,9.1305,9.1305,9.1372,9.1338,9.1372,9.1575,9.1913,9.1508,9.1169,9.1406,9.1778,9.2116,9.215,9.259,9.2962,9.3098,9.3233,9.33,9.3503,9.3571,9.3571,9.3571,9.3571,9.3571,9.3571,9.3571,9.3571,9.3571,9.3571,9.3571,9.3571,9.3571,9.3571,9.3571,9.3571,9.3571,9.3571,9.3774,9.3926,9.4559,9.518,9.5343,9.5595,9.5912,9.6047,9.5641,9.5468,9.5537,7.8789,7.8789,7.8789,7.8789,7.8789,7.8789,7.8789,7.8789,7.8789,7.8789,7.8789,7.8789,7.8789,7.8789,7.8789,7.8789,7.8789,7.8789,7.8789,7.8789,7.8789,7.8789,7.8789,7.8789,7.8789,7.8789,7.8789,7.8789,7.8861,7.9005,7.9148,7.922,7.9475,7.993,8.0352,8.1117,8.1734,8.2611,8.3701,8.489,8.6252,8.7446,8.8749,8.9818,9.0581,9.1025,9.1619,9.1778,9.1643,9.1372,9.1305,9.1305,9.1305,9.1305,9.1305,9.1305,9.1305,9.1406,9.1711,9.1778,9.1947,9.2184,9.2252,9.2252,9.2286,9.2252,9.2286,9.2319,9.2252,9.2252,9.2252,9.2252,9.2455,9.2759,9.2522,9.2252,9.2252,9.2658,9.2895,9.303,9.3267,9.3571,9.3571,9.3571,9.3571,9.3571,9.3571,9.3571,9.3571,9.3571,9.3571,9.3571,9.3571,9.3571,9.3571,9.3571,9.3571,9.3571,9.3571,9.3571,9.3571,9.3571,9.3571,9.3639,9.3876,9.4172,9.4747,9.5356,9.5921,9.6153,9.6589,9.6679,9.6344,9.602,9.602,7.8789,7.8789,7.8789,7.8789,7.8789,7.8789,7.8789,7.8789,7.8789,7.8789,7.8789,7.8789,7.8789,7.8789,7.8789,7.8789,7.8789,7.8789,7.8789,7.8789,7.8789,7.8789,7.8789,7.8789,7.8789,7.8789,7.8789,7.8789,7.8789,7.8861,7.8789,7.8933,7.922,7.9363,7.9718,8.0492,8.1117,8.1802,8.307,8.4537,8.6047,8.7412,8.8862,9.0166,9.1035,9.1665,9.2271,9.2522,9.2286,9.1609,9.1541,9.1677,9.1643,9.1609,9.1643,9.1711,9.1812,9.2015,9.2421,9.2556,9.2793,9.3267,9.3402,9.3571,9.3402,9.3334,9.33,9.33,9.3537,9.3368,9.3368,9.347,9.3402,9.3436,9.347,9.3537,9.3571,9.3571,9.3571,9.3571,9.3571,9.3571,9.3571,9.3571,9.3571,9.3571,9.3571,9.3571,9.3571,9.3571,9.3571,9.3571,9.3571,9.3571,9.3571,9.3571,9.3571,9.3571,9.3571,9.3571,9.3571,9.3571,9.3571,9.3639,9.3774,9.4112,9.4645,9.5324,9.5993,9.6584,9.6761,9.7185,9.739,9.7124,9.6986,7.8789,7.8789,7.8789,7.8789,7.8789,7.8789,7.8789,7.8789,7.8789,7.8789,7.8789,7.8789,7.8789,7.8789,7.8789,7.8789,7.8789,7.8789,7.8789,7.8789,7.8789,7.8789,7.8789,7.8789,7.8789,7.8789,7.8789,7.8789,7.8789,7.8789,7.8789,7.8789,7.8933,7.9076,7.9434,7.993,8.0562,8.1347,8.2812,8.4229,8.5693,8.7597,8.9166,9.0516,9.177,9.271,9.3208,9.3334,9.3267,9.3131,9.303,9.2895,9.2928,9.2962,9.2928,9.2928,9.2996,9.3098,9.3267,9.3267,9.3368,9.3503,9.3571,9.3571,9.3571,9.3571,9.3571,9.3571,9.3571,9.3571,9.3571,9.3571,9.3571,9.3571,9.3571,9.3571,9.3571,9.3571,9.3571,9.3571,9.3571,9.3571,9.3571,9.3571,9.3571,9.3571,9.3571,9.3571,9.3571,9.3571,9.3571,9.3571,9.3571,9.3571,9.3571,9.3571,9.3571,9.3571,9.3571,9.3571,9.3571,9.3571,9.3571,9.3605,9.3639,9.4079,9.4654,9.5129,9.5764,9.6389,9.6953,9.7345,9.7609,9.7688,9.7814,7.8789,7.8789,7.8789,7.8789,7.8789,7.8789,7.8789,7.8789,7.8789,7.8789,7.8789,7.8789,7.8789,7.8789,7.8789,7.8789,7.8789,7.8789,7.8789,7.8789,7.8789,7.8789,7.8789,7.8789,7.8789,7.8789,7.8789,7.8789,7.8789,7.8789,7.8789,7.8789,7.8789,7.8933,7.9148,7.9535,8.0042,8.0841,8.2227,8.3693,8.533,8.7137,8.9443,9.0995,9.244,9.3275,9.3571,9.3571,9.3571,9.3571,9.3571,9.3571,9.3571,9.3571,9.3571,9.3571,9.3571,9.3571,9.3571,9.3571,9.3571,9.3571,9.3571,9.3571,9.3571,9.3571,9.3571,9.3571,9.3571,9.3571,9.3571,9.3571,9.3571,9.3571,9.3571,9.3571,9.3571,9.3571,9.3571,9.3571,9.3571,9.3571,9.3571,9.3571,9.3571,9.3571,9.3571,9.3571,9.3571,9.3571,9.3571,9.3571,9.3571,9.3571,9.3571,9.3571,9.3571,9.3571,9.3571,9.3571,9.3571,9.3571,9.3571,9.3605,9.3706,9.418,9.4747,9.5129,9.5569,9.633,9.6988,9.7448,9.785,9.8102,9.8262,7.8789,7.8789,7.8789,7.8789,7.8789,7.8789,7.8789,7.8789,7.8789,7.8789,7.8789,7.8789,7.8789,7.8789,7.8789,7.8789,7.8789,7.8789,7.8789,7.8789,7.8789,7.8789,7.8789,7.8789,7.8789,7.8789,7.8789,7.8789,7.8789,7.8789,7.8789,7.8789,7.8789,7.8861,7.8933,7.9328,7.9886,8.0627,8.1908,8.3348,8.5057,8.671,8.8927,9.1268,9.2392,9.3096,9.3394,9.3512,9.3571,9.3571,9.3571,9.3571,9.3571,9.3571,9.3571,9.3571,9.3571,9.3571,9.3571,9.3571,9.3571,9.3571,9.3571,9.3571,9.3571,9.3571,9.3571,9.3571,9.3571,9.3571,9.3571,9.3571,9.3571,9.3571,9.3571,9.3571,9.3571,9.3571,9.3571,9.3571,9.3571,9.3571,9.3571,9.3571,9.3571,9.3571,9.3571,9.3571,9.3571,9.3571,9.3571,9.3571,9.3571,9.3571,9.3571,9.3571,9.3571,9.3571,9.3571,9.3571,9.3571,9.3571,9.3605,9.3706,9.3909,9.4248,9.4451,9.4637,9.5213,9.6203,9.6666,9.6898,9.7597,9.8446,9.8504,7.8789,7.8789,7.8789,7.8789,7.8789,7.8789,7.8789,7.8789,7.8789,7.8789,7.8789,7.8789,7.8789,7.8789,7.8789,7.8789,7.8789,7.8789,7.8789,7.8789,7.8789,7.8789,7.8789,7.8789,7.8789,7.8789,7.8789,7.8789,7.8789,7.8789,7.8789,7.8789,7.8789,7.8789,7.91,7.9689,8.0195,8.0749,8.2151,8.3614,8.4838,8.6573,8.8525,9.1027,9.1935,9.2581,9.3156,9.3453,9.3571,9.3571,9.3571,9.3571,9.3571,9.3571,9.3571,9.3571,9.3571,9.3571,9.3571,9.3571,9.3571,9.3571,9.3571,9.3571,9.3571,9.3571,9.3571,9.3571,9.3571,9.3571,9.3571,9.3571,9.3571,9.3571,9.3571,9.3571,9.3571,9.3571,9.3571,9.3571,9.3571,9.3571,9.3571,9.3571,9.3571,9.3571,9.3571,9.3571,9.3571,9.3571,9.3571,9.3571,9.3571,9.3571,9.3571,9.3571,9.3571,9.3571,9.3571,9.3571,9.3571,9.3571,9.3605,9.3673,9.3673,9.3808,9.3977,9.4112,9.4704,9.5487,9.5924,9.6211,9.7059,9.7848,9.7952,7.8789,7.8789,7.8789,7.8789,7.8789,7.8789,7.8789,7.8789,7.8789,7.8789,7.8789,7.8789,7.8789,7.8789,7.8789,7.8789,7.8789,7.8789,7.8789,7.8789,7.8789,7.8789,7.8789,7.8789,7.8789,7.8789,7.8789,7.8789,7.8789,7.8789,7.8789,7.8789,7.8789,7.8938,7.9297,7.9772,8.0518,8.1205,8.2309,8.3484,8.467,8.6673,8.8883,9.0356,9.15,9.2276,9.2943,9.3216,9.3453,9.3571,9.3571,9.3571,9.3571,9.3571,9.3571,9.3571,9.3571,9.3571,9.3571,9.3571,9.3571,9.3571,9.3571,9.3571,9.3571,9.3571,9.3571,9.3571,9.3571,9.3571,9.3571,9.3571,9.3571,9.3571,9.3571,9.3571,9.3571,9.3571,9.3571,9.3571,9.3571,9.3571,9.3571,9.3571,9.3571,9.3571,9.3571,9.3571,9.3571,9.3571,9.3571,9.3571,9.3571,9.3571,9.3571,9.3571,9.3571,9.3571,9.3571,9.3571,9.3571,9.3571,9.3571,9.3605,9.3571,9.3571,9.3639,9.3901,9.4355,9.4771,9.5115,9.5618,9.6463,9.709,9.7193,7.8789,7.8789,7.8789,7.8789,7.8789,7.8789,7.8789,7.8789,7.8789,7.8789,7.8789,7.8789,7.8789,7.8789,7.8789,7.8789,7.8789,7.8789,7.8789,7.8789,7.8789,7.8789,7.8789,7.8789,7.8789,7.8789,7.8789,7.8789,7.8789,7.8789,7.8789,7.8878,7.8878,7.9208,7.9716,8.0195,8.0883,8.1496,8.226,8.3156,8.4781,8.6798,8.8715,9.0033,9.09,9.1811,9.2581,9.2916,9.3156,9.3394,9.3453,9.3512,9.3571,9.3571,9.3571,9.3571,9.3571,9.3571,9.3571,9.3571,9.3571,9.3571,9.3571,9.3571,9.3571,9.3571,9.3571,9.3571,9.3571,9.3571,9.3571,9.3571,9.3571,9.3571,9.3571,9.3571,9.3571,9.3571,9.3571,9.3571,9.3571,9.3571,9.3571,9.3571,9.3571,9.3571,9.3571,9.3571,9.3571,9.3571,9.3571,9.3571,9.3571,9.3571,9.3571,9.3571,9.3571,9.3571,9.3571,9.3571,9.3571,9.3571,9.3571,9.3571,9.3571,9.3571,9.3571,9.363,9.4117,9.4383,9.4453,9.4933,9.5865,9.6331,9.64,7.8789,7.8789,7.8789,7.8789,7.8789,7.8789,7.8789,7.8789,7.8789,7.8789,7.8789,7.8789,7.8789,7.8789,7.8789,7.8789,7.8789,7.8789,7.8789,7.8789,7.8789,7.8789,7.8789,7.8789,7.8789,7.8789,7.8789,7.8789,7.8789,7.8789,7.8849,7.8938,7.9357,7.9806,8.0135,8.0853,8.1601,8.1871,8.2425,8.3326,8.454,8.6196,8.7593,8.8715,8.9936,9.1027,9.1811,9.2337,9.2762,9.3156,9.3156,9.3335,9.3512,9.3571,9.3571,9.3571,9.3571,9.3571,9.3571,9.3571,9.3571,9.3571,9.3571,9.3571,9.3571,9.3571,9.3571,9.3571,9.3571,9.3571,9.3571,9.3571,9.3571,9.3571,9.3571,9.3571,9.3571,9.3571,9.3571,9.3571,9.3571,9.3571,9.3571,9.3571,9.3571,9.3571,9.3571,9.3571,9.3571,9.3571,9.3571,9.3571,9.3571,9.3571,9.3571,9.3571,9.3571,9.3571,9.3571,9.3571,9.3571,9.3571,9.3571,9.3571,9.3571,9.3571,9.3571,9.3689,9.3923,9.4155,9.4443,9.4841,9.5358,9.5572,9.5779,7.8789,7.8789,7.8789,7.8789,7.8789,7.8789,7.8789,7.8789,7.8789,7.8789,7.8789,7.8789,7.8789,7.8789,7.8789,7.8789,7.8789,7.8789,7.8789,7.8789,7.8789,7.8789,7.8789,7.8789,7.8789,7.8789,7.8789,7.8789,7.8789,7.8849,7.8938,7.9387,7.9716,8.0285,8.0704,8.1452,8.1961,8.2395,8.2921,8.364,8.457,8.5769,8.6969,8.8072,8.928,9.026,9.1153,9.1749,9.2304,9.2702,9.2976,9.3156,9.3335,9.3453,9.3571,9.3571,9.3571,9.3571,9.3571,9.3571,9.3571,9.3571,9.3571,9.3571,9.3571,9.3571,9.3571,9.3571,9.3571,9.3571,9.3571,9.3571,9.3571,9.3571,9.3571,9.3571,9.3571,9.3571,9.3571,9.3571,9.3571,9.3571,9.3571,9.3571,9.3571,9.3571,9.3571,9.3571,9.3571,9.3571,9.3571,9.3571,9.3571,9.3571,9.3571,9.3571,9.3571,9.3571,9.3571,9.3571,9.3571,9.3571,9.3571,9.3571,9.3571,9.3571,9.3571,9.3689,9.3864,9.4155,9.45,9.4897,9.5233,9.54,9.5537,7.8789,7.8789,7.8789,7.8789,7.8789,7.8789,7.8789,7.8789,7.8789,7.8789,7.8789,7.8789,7.8789,7.8789,7.8789,7.8789,7.8789,7.8789,7.8789,7.8789,7.8789,7.8789,7.8789,7.8789,7.8789,7.8789,7.8789,7.8938,7.9058,7.9118,7.9387,7.9836,8.0315,8.0823,8.1542,8.1991,8.232,8.2724,8.3116,8.364,8.4424,8.537,8.644,8.7556,8.8578,8.9576,9.0517,9.1123,9.1625,9.2276,9.2762,9.2943,9.3122,9.3453,9.3571,9.3571,9.3571,9.3571,9.3571,9.3571,9.3571,9.3571,9.3571,9.3571,9.3571,9.3571,9.3571,9.3571,9.3571,9.3571,9.3571,9.3571,9.3571,9.3571,9.3571,9.3571,9.3571,9.3571,9.3571,9.3571,9.3571,9.3571,9.3571,9.3571,9.3571,9.3571,9.3571,9.3571,9.3571,9.3571,9.3571,9.3571,9.3571,9.3571,9.3571,9.3571,9.3571,9.3571,9.3571,9.3571,9.3571,9.3571,9.3571,9.3571,9.3571,9.3571,9.3571,9.363,9.3747,9.4155,9.4557,9.4841,9.5121,9.5289,9.54,7.8789,7.8789,7.8789,7.8789,7.8789,7.8789,7.8789,7.8789,7.8789,7.8789,7.8789,7.8789,7.8789,7.8789,7.8789,7.8789,7.8789,7.8789,7.8789,7.8789,7.8789,7.8789,7.8789,7.8789,7.8789,7.8789,7.8908,7.9267,7.9627,7.9836,7.9836,7.9926,8.0883,8.1482,8.1961,8.235,8.2529,8.2844,8.3146,8.3521,8.4086,8.4789,8.5729,8.6721,8.7624,8.851,8.9576,9.0228,9.0966,9.1658,9.2276,9.2762,9.3003,9.3335,9.3512,9.3571,9.3571,9.3571,9.3571,9.3571,9.3571,9.3571,9.3571,9.3571,9.3571,9.3571,9.3571,9.3571,9.3571,9.3571,9.3571,9.3571,9.3571,9.3571,9.3571,9.3571,9.3571,9.3571,9.3571,9.3571,9.3571,9.3571,9.3571,9.3571,9.3571,9.3571,9.3571,9.3571,9.3571,9.3571,9.3571,9.3571,9.3571,9.3571,9.3571,9.3571,9.3571,9.3571,9.3571,9.3571,9.3571,9.3571,9.3571,9.3571,9.3571,9.3571,9.3571,9.363,9.3806,9.427,9.4614,9.4841,9.5121,9.5344,9.54,7.8789,7.8789,7.8789,7.8789,7.8789,7.8789,7.8789,7.8789,7.8789,7.8789,7.8789,7.8789,7.8789,7.8789,7.8789,7.8789,7.8789,7.8789,7.8789,7.8789,7.8789,7.8789,7.8789,7.8789,7.8789,7.8908,7.9178,7.9477,7.9806,8.0494,8.0943,8.1272,8.1601,8.1991,8.238,8.2589,8.2709,8.2844,8.2995,8.3221,8.3671,8.4307,8.508,8.5729,8.6791,8.7624,8.851,8.9246,9.0033,9.0869,9.1625,9.2276,9.2762,9.3156,9.3394,9.3571,9.3571,9.3571,9.3571,9.3571,9.3571,9.3571,9.3571,9.3571,9.3571,9.3571,9.3571,9.3571,9.3571,9.3571,9.3571,9.3571,9.3571,9.3571,9.3571,9.3571,9.3571,9.3571,9.3571,9.3571,9.3571,9.3571,9.3571,9.3571,9.3571,9.3571,9.3571,9.3571,9.3571,9.3571,9.3571,9.3571,9.3571,9.3571,9.3571,9.3571,9.3571,9.3571,9.3571,9.3571,9.3571,9.3571,9.3571,9.3571,9.3571,9.3571,9.3571,9.3571,9.3806,9.4213,9.45,9.4784,9.5065,9.54,9.54,7.8789,7.8789,7.8789,7.8789,7.8789,7.8789,7.8789,7.8789,7.8789,7.8789,7.8789,7.8789,7.8789,7.8789,7.8789,7.8789,7.8789,7.8789,7.8789,7.8789,7.8789,7.8789,7.8789,7.8819,7.8908,7.9118,7.9507,7.9896,8.0584,8.1392,8.1751,8.1931,8.211,8.2409,8.2589,8.2769,8.2769,8.2769,8.2844,8.2995,8.3446,8.3863,8.457,8.5111,8.5943,8.6791,8.7693,8.8578,8.9412,9.0357,9.1219,9.1906,9.2459,9.2883,9.3275,9.3453,9.3571,9.3571,9.3571,9.3571,9.3571,9.3571,9.3571,9.3571,9.3571,9.3571,9.3571,9.3571,9.3571,9.3571,9.3571,9.3571,9.3571,9.3571,9.3571,9.3571,9.3571,9.3571,9.3571,9.3571,9.3571,9.3571,9.3571,9.3571,9.3571,9.3571,9.3571,9.3571,9.3571,9.3571,9.3571,9.3571,9.3571,9.3571,9.3571,9.3571,9.3571,9.3571,9.3571,9.3571,9.3571,9.3571,9.3571,9.3571,9.3571,9.3571,9.3571,9.363,9.3806,9.4155,9.45,9.4953,9.5121,9.54,9.54,7.8789,7.8789,7.8789,7.8789,7.8789,7.8789,7.8789,7.8789,7.8789,7.8789,7.8789,7.8789,7.8789,7.8789,7.8789,7.8789,7.8789,7.8789,7.8789,7.8789,7.8789,7.8789,7.8849,7.8908,7.9208,7.9686,8.0105,8.0704,8.1542,8.1811,8.22,8.2499,8.2559,8.2649,8.2739,8.2769,8.2769,8.2769,8.2769,8.2995,8.3296,8.3521,8.4086,8.4674,8.5184,8.5943,8.6861,8.7799,8.868,8.974,9.0806,9.1625,9.2398,9.2822,9.3216,9.3571,9.3571,9.3571,9.3571,9.3571,9.3571,9.3571,9.3571,9.3571,9.3571,9.3571,9.3571,9.3571,9.3571,9.3571,9.3571,9.3571,9.3571,9.3571,9.3571,9.3571,9.3571,9.3571,9.3571,9.3571,9.3571,9.3571,9.3571,9.3571,9.3571,9.3571,9.3571,9.3571,9.3605,9.3571,9.3571,9.3571,9.3571,9.3571,9.3571,9.3571,9.3571,9.3571,9.3571,9.3571,9.3571,9.3571,9.3571,9.3571,9.3571,9.3571,9.363,9.363,9.3981,9.4408,9.4863,9.5199,9.5344,9.54,9.54,7.8789,7.8789,7.8789,7.8789,7.8789,7.8789,7.8789,7.8789,7.8789,7.8789,7.8789,7.8789,7.8789,7.8789,7.8789,7.8789,7.8789,7.8789,7.8789,7.8789,7.8819,7.8789,7.8908,7.9297,7.9627,8.0016,8.0524,8.1153,8.1751,8.211,8.2439,8.2814,8.2769,8.2769,8.2769,8.2769,8.2769,8.2769,8.2844,8.292,8.2995,8.3296,8.3596,8.4012,8.4454,8.5153,8.6014,8.6969,8.8004,8.9014,9.0131,9.1123,9.2092,9.2581,9.3003,9.3453,9.3571,9.3571,9.3571,9.3571,9.3571,9.3571,9.3571,9.3571,9.3571,9.3571,9.3571,9.3571,9.3571,9.3571,9.3571,9.3571,9.3571,9.3571,9.3571,9.3571,9.3571,9.3571,9.3571,9.3571,9.3571,9.3571,9.3571,9.3774,9.3842,9.3876,9.3909,9.3774,9.374,9.3639,9.3605,9.3571,9.3571,9.3571,9.3571,9.3639,9.3605,9.3571,9.3571,9.3571,9.3571,9.3571,9.3571,9.3571,9.3571,9.3571,9.3689,9.3864,9.4294,9.475,9.5031,9.5254,9.54,9.54,9.54,7.8789,7.8789,7.8789,7.8789,7.8789,7.8789,7.8789,7.8789,7.8789,7.8789,7.8789,7.8789,7.8789,7.8789,7.8789,7.8789,7.8789,7.8789,7.8789,7.8819,7.9088,7.9178,7.9417,7.9836,8.0315,8.0644,8.1212,8.1871,8.22,8.2559,8.2739,8.2814,8.2769,8.2769,8.2769,8.2769,8.2769,8.2769,8.2844,8.2844,8.292,8.3071,8.3221,8.3596,8.4012,8.457,8.5297,8.6157,8.7247,8.8343,8.9478,9.0614,9.1658,9.2398,9.2822,9.3275,9.3571,9.3571,9.3571,9.3571,9.3571,9.3571,9.3571,9.3571,9.3571,9.3571,9.3571,9.3571,9.3571,9.3571,9.3571,9.3571,9.3571,9.3571,9.3571,9.3571,9.3571,9.3571,9.3639,9.3605,9.3706,9.3673,9.374,9.3943,9.4146,9.418,9.4248,9.4146,9.4079,9.4112,9.4112,9.4146,9.4045,9.4045,9.3943,9.3706,9.3673,9.3605,9.3571,9.3571,9.3571,9.3571,9.3571,9.3571,9.3571,9.363,9.3864,9.4097,9.4466,9.4806,9.5031,9.5254,9.54,9.54,9.54,7.8789,7.8789,7.8789,7.8789,7.8789,7.8789,7.8789,7.8789,7.8789,7.8789,7.8789,7.8789,7.8789,7.8789,7.8789,7.8789,7.8878,7.8849,7.8938,7.9118,7.9567,7.9746,8.0075,8.0524,8.0973,8.1482,8.1931,8.226,8.2679,8.2739,8.2739,8.2769,8.2769,8.2769,8.2769,8.2769,8.2769,8.2769,8.2769,8.2769,8.2844,8.2844,8.3071,8.3266,8.3715,8.4203,8.5008,8.6014,8.7109,8.8208,8.9378,9.0422,9.1408,9.2214,9.2641,9.3096,9.3394,9.3571,9.3571,9.3571,9.3571,9.3571,9.3571,9.3571,9.3571,9.3571,9.3571,9.3571,9.3571,9.3571,9.3571,9.3571,9.3571,9.3571,9.3571,9.3571,9.3571,9.3605,9.3673,9.3774,9.3943,9.4045,9.4214,9.4383,9.4755,9.489,9.506,9.5263,9.5195,9.5161,9.5161,9.5161,9.4992,9.4687,9.4451,9.4112,9.3774,9.3673,9.3605,9.3571,9.3571,9.3571,9.3571,9.3571,9.3571,9.3747,9.4039,9.4328,9.4614,9.4863,9.5143,9.5254,9.54,9.54,9.54,7.8789,7.8789,7.8789,7.8789,7.8789,7.8789,7.8789,7.8789,7.8789,7.8789,7.8789,7.8789,7.8789,7.8789,7.8789,7.8819,7.8998,7.9238,7.9477,7.9776,8.0195,8.0434,8.0764,8.1153,8.1572,8.1901,8.223,8.2529,8.2679,8.2769,8.2769,8.2769,8.2769,8.2769,8.2769,8.2769,8.2769,8.2769,8.2769,8.2769,8.2769,8.2769,8.289,8.3071,8.3371,8.3863,8.4497,8.5442,8.6479,8.7317,8.8645,8.9773,9.0742,9.15,9.2153,9.3003,9.3394,9.3571,9.3571,9.3571,9.3571,9.3571,9.3571,9.3571,9.3571,9.3571,9.3571,9.3571,9.3571,9.3571,9.3571,9.3571,9.3571,9.3571,9.3605,9.3639,9.3673,9.3808,9.3909,9.4383,9.4552,9.4755,9.489,9.5161,9.5533,9.5702,9.5905,9.6176,9.6277,9.621,9.6142,9.6142,9.5804,9.5466,9.4924,9.4552,9.4112,9.3774,9.3673,9.3605,9.3571,9.3571,9.3571,9.3571,9.3571,9.3923,9.4328,9.45,9.4614,9.5031,9.531,9.54,9.54,9.54,9.54,7.8789,7.8789,7.8789,7.8789,7.8789,7.8789,7.8789,7.8789,7.8789,7.8789,7.8789,7.8789,7.8789,7.8849,7.9088,7.9238,7.9297,7.9896,8.0195,8.0375,8.0883,8.1093,8.1422,8.1781,8.211,8.235,8.2469,8.2709,8.2769,8.2769,8.2769,8.2769,8.2769,8.2769,8.2769,8.2769,8.2769,8.2769,8.2769,8.2769,8.2769,8.2769,8.2769,8.292,8.3221,8.3491,8.3938,8.4935,8.58,8.6721,8.8035,8.9046,9.0066,9.0996,9.2092,9.2883,9.3216,9.3453,9.3571,9.3571,9.3571,9.3571,9.3571,9.3571,9.3571,9.3571,9.3571,9.3571,9.3571,9.3571,9.3571,9.3571,9.3571,9.3571,9.3639,9.374,9.3876,9.4045,9.4485,9.506,9.5364,9.5567,9.5804,9.6074,9.6277,9.6413,9.6717,9.7123,9.7191,9.7123,9.7089,9.7056,9.6582,9.6108,9.5601,9.5026,9.4518,9.4079,9.374,9.3673,9.3605,9.3571,9.3571,9.3571,9.3571,9.3981,9.4328,9.45,9.4614,9.5065,9.54,9.54,9.54,9.54,9.54,7.8789,7.8789,7.8789,7.8789,7.8789,7.8789,7.8789,7.8789,7.8789,7.8789,7.8789,7.8789,7.8849,7.9088,7.9447,7.9776,8.0045,8.0554,8.0883,8.0913,8.1542,8.1841,8.202,8.2409,8.2529,8.2679,8.2769,8.2769,8.2769,8.2769,8.2769,8.2769,8.2769,8.2769,8.2769,8.2769,8.2769,8.2769,8.2769,8.2769,8.2769,8.2769,8.2844,8.2844,8.3146,8.3521,8.4012,8.4717,8.5585,8.6581,8.7487,8.8375,8.9641,9.0869,9.1997,9.2702,9.3036,9.3335,9.3512,9.3571,9.3571,9.3571,9.3571,9.3571,9.3571,9.3571,9.3571,9.3571,9.3571,9.3571,9.3571,9.3571,9.3571,9.3706,9.3842,9.4045,9.4282,9.4687,9.5398,9.5905,9.6277,9.648,9.6582,9.6819,9.6988,9.7123,9.7326,9.7766,9.7834,9.7766,9.7732,9.7698,9.7326,9.6785,9.6277,9.5702,9.4992,9.4485,9.4011,9.3673,9.3605,9.3571,9.3571,9.3571,9.363,9.3981,9.427,9.4443,9.4671,9.5177,9.54,9.54,9.54,9.54,9.54,7.8789,7.8789,7.8789,7.8789,7.8789,7.8789,7.8789,7.8789,7.8789,7.8819,7.8789,7.8849,7.9118,7.9597,7.9836,8.0165,8.0674,8.1212,8.1482,8.1721,8.22,8.235,8.2469,8.2619,8.2769,8.2769,8.2769,8.2769,8.2769,8.2769,8.2769,8.2769,8.2769,8.2769,8.2769,8.2769,8.2769,8.2769,8.2769,8.2769,8.2769,8.2769,8.2844,8.2844,8.2995,8.3371,8.3789,8.435,8.5111,8.5903,8.6963,8.8104,8.9444,9.0806,9.1687,9.2337,9.2762,9.3156,9.3453,9.3571,9.3571,9.3571,9.3571,9.3571,9.3571,9.3571,9.3571,9.3571,9.3571,9.3571,9.3605,9.3605,9.3673,9.3876,9.4112,9.4451,9.4789,9.5567,9.6345,9.6717,9.7123,9.7258,9.736,9.7495,9.7664,9.7766,9.78,9.7969,9.7969,9.7901,9.7901,9.7867,9.7901,9.7461,9.6954,9.621,9.5398,9.4687,9.4112,9.3842,9.3605,9.3571,9.3571,9.3571,9.3689,9.3981,9.4213,9.4443,9.4727,9.5233,9.54,9.54,9.54,9.54,9.54,7.8789,7.8789,7.8789,7.8789,7.8789,7.8789,7.8968,7.9208,7.9238,7.9417,7.9597,7.9447,7.9627,8.0285,8.0524,8.0764,8.1332,8.1901,8.214,8.238,8.2499,8.2649,8.2769,8.2769,8.2769,8.2769,8.2769,8.2769,8.2769,8.2769,8.2769,8.2769,8.2769,8.2769,8.2769,8.2769,8.2769,8.2769,8.2769,8.2769,8.2769,8.2769,8.2769,8.2769,8.292,8.3296,8.3715,8.4203,8.482,8.5688,8.6823,8.7794,8.8913,8.9968,9.0996,9.1749,9.2337,9.2883,9.3275,9.3512,9.3571,9.3571,9.3571,9.3571,9.3571,9.3571,9.3571,9.3571,9.3571,9.3571,9.3774,9.3808,9.4112,9.4349,9.4857,9.533,9.5905,9.665,9.7123,9.7394,9.7631,9.7698,9.7732,9.7732,9.7901,9.7901,9.8003,9.8003,9.8003,9.8003,9.8003,9.8003,9.8003,9.7969,9.7563,9.665,9.5669,9.4958,9.4282,9.3876,9.3571,9.3571,9.3571,9.3571,9.3689,9.3923,9.4155,9.4443,9.4784,9.5254,9.54,9.54,9.54,9.54,9.54,7.8789,7.8789,7.8789,7.8789,7.8819,7.8908,7.9267,7.9746,7.9926,8.0315,8.0764,8.0315,8.0464,8.0973,8.1452,8.1721,8.202,8.238,8.2649,8.2679,8.2709,8.2769,8.2769,8.2769,8.2769,8.2769,8.2769,8.2769,8.2769,8.2769,8.2769,8.2769,8.2769,8.2769,8.2769,8.2769,8.2769,8.2769,8.2769,8.2769,8.2769,8.2769,8.2769,8.2769,8.2844,8.3221,8.364,8.4086,8.4601,8.5545,8.6612,8.7518,8.8375,8.9246,9.0293,9.1186,9.1844,9.2459,9.2943,9.3335,9.3453,9.3571,9.3571,9.3571,9.3571,9.3571,9.3571,9.3571,9.3571,9.374,9.3943,9.418,9.4485,9.4992,9.5601,9.6176,9.692,9.7529,9.7732,9.7935,9.7969,9.8003,9.8003,9.8003,9.8003,9.8003,9.8003,9.8003,9.8003,9.8003,9.8003,9.8003,9.8003,9.7935,9.7867,9.6886,9.5736,9.5263,9.4586,9.4011,9.3571,9.3571,9.3571,9.363,9.3747,9.3981,9.427,9.4557,9.4919,9.531,9.54,9.54,9.54,9.54,9.54,7.8789,7.8789,7.8789,7.8789,7.8878,7.9387,7.9716,7.9896,8.0405,8.0973,8.1422,8.1512,8.1542,8.1601,8.1661,8.1961,8.2439,8.2739,8.2739,8.2739,8.2769,8.2769,8.2769,8.2769,8.2769,8.2769,8.2769,8.2769,8.2769,8.2769,8.2769,8.2769,8.2769,8.2769,8.2769,8.2769,8.2769,8.2769,8.2769,8.2769,8.2769,8.2769,8.2769,8.2769,8.2844,8.3266,8.3715,8.3863,8.4454,8.5256,8.6227,8.7032,8.7862,8.8712,8.9707,9.055,9.1249,9.203,9.2581,9.3096,9.3275,9.3512,9.3512,9.3571,9.3571,9.3571,9.3571,9.3605,9.3706,9.4045,9.4282,9.4552,9.489,9.5669,9.6345,9.692,9.7597,9.7766,9.7935,9.8003,9.8003,9.8003,9.8003,9.8003,9.8003,9.8003,9.8003,9.8003,9.8003,9.8003,9.8003,9.8003,9.8003,9.8003,9.7935,9.6717,9.5702,9.5296,9.4755,9.4011,9.3571,9.3571,9.3571,9.363,9.3806,9.4063,9.4351,9.4614,9.4975,9.5254,9.5365,9.54,9.54,9.54,9.54]}]]